[[{"header":{"parameterUnit":"m.s-1","parameterCategory":1,"la1":31.0,"la2":29.5877,"lo1":-88.7671,"lo2":-86.6584,"dy":0.0162,"dx":0.0185,"nx":115,"ny":88,"refTime":"2024-06-30T00:00:00:Z","depth":0,"parameterNumber":2,"parameterNumberName":"U-component_of_WINDS"},"data":[0.0,0.0,0.0,0.0,0.0,0.0,0.0,0.0,0.0,0.0,0.0,0.0,0.0,0.0,0.0,0.0,0.0,0.0,0.0,0.0,0.0,0.0,0.0,0.0,0.0,0.0,0.0,0.0,0.0,0.0,0.0,0.0,0.0,0.0,0.0,0.0,0.0,0.0,0.0,0.0,0.0,0.0,0.0,0.0,0.0,0.0,0.0,0.0,0.0,0.0,0.0,0.0,0.0,0.0,0.0,0.0,0.0,0.0,0.0,0.0,0.0,0.0,0.0,0.0,0.0,0.0,0.0,0.0,0.0,0.0,0.0,0.0,0.0,0.0,0.0,0.0,0.0,0.0,0.0,0.0,0.0,0.0,0.0,0.0,0.0,0.0,0.0,0.0,0.0,0.0,0.0,0.0,0.0,0.0,0.0,0.0,0.0,0.0,0.0,0.0,0.0,0.0,0.0,0.0,0.0,0.0,0.0,0.0,0.0,0.0,0.0,0.0,0.0,0.0,0.0,0.0,0.0,0.0,0.0,0.0,0.0,0.0,0.0,0.0,0.0,0.0,0.0,0.0,0.0,0.0,0.0,0.0,0.0,0.0,0.0,0.0,0.0,0.0,0.0,0.0,0.0,0.0,0.0,0.0,0.0,0.0,0.0,0.0,0.0,0.0,0.0,0.0,0.0,0.0,0.0,0.0,0.0,0.0,0.0,0.0,0.0,0.0,0.0,0.0,0.0,0.0,0.0,0.0,0.0,0.0,0.0,0.0,0.0,0.0,0.0,0.0,0.0,0.0,0.0,0.0,0.0,0.0,0.0,0.0,0.0,0.0,0.0,0.0,0.0,0.0,0.0,0.0,0.0,0.0,0.0,0.0,0.0,0.0,0.0,0.0,0.0,0.0,0.0,0.0,0.0,0.0,0.0,0.0,0.0,0.0,0.0,0.0,0.0,0.0,0.0,0.0,0.0,0.0,0.0,0.0,0.0,0.0,0.0,0.0,0.0,0.0,0.0,0.0,0.0,0.0,0.0,0.0,0.0,0.0,0.0,0.0,0.0,0.0,0.0,0.0,0.0,0.0,0.0,0.0,0.0,0.0,0.0,0.0,0.0,0.0,0.0,0.0,0.0,0.0,0.0,0.0,0.0,0.0,0.0,0.0,0.0,0.0,0.0,0.0,0.0,0.0,0.0,0.0,0.0,0.0,0.0,0.0,0.0,0.0,0.0,0.0,0.0,0.0,0.0,0.0,0.0,0.0,0.0,0.0,0.0,0.0,0.0,0.0,0.0,0.0,0.0,0.0,0.0,0.0,0.0,0.0,0.0,0.0,0.0,0.0,0.0,0.0,0.0,0.0,0.0,0.0,0.0,0.0,0.0,0.0,0.0,0.0,0.0,0.0,0.0,0.0,0.0,0.0,0.0,0.0,0.0,0.0,0.0,0.0,0.0,0.0,0.0,0.0,0.0,0.0,0.0,0.0,0.0,0.0,0.0,0.0,0.0,0.0,0.0,0.0,0.0,0.0,0.0,0.0,0.0,0.0,0.0,0.0,0.0,0.0,0.0,0.0,0.0,0.0,0.0,0.0,0.0,0.0,0.0,0.0,0.0,0.0,0.0,0.0,0.0,0.0,0.0,0.0,0.0,0.0,0.0,0.0,0.0,0.0,0.0,0.0,0.0,0.0,0.0,0.0,0.0,0.0,0.0,0.0,0.0,0.0,0.0,0.0,0.0,0.0,0.0,0.0,0.0,0.0,0.0,0.0,0.0,0.0,0.0,0.0,0.0,0.0,0.0,0.0,0.0,0.0,0.0,0.0,0.0,0.0,0.0,0.0,0.0,0.0,0.0,0.0,0.0,0.0,0.0,0.0,0.0,0.0,0.0,0.0,0.0,0.0,0.0,0.0,0.0,0.0,0.0,0.0,0.0,0.0,0.0,0.0,0.0,0.0,0.0,0.0,0.0,0.0,0.0,0.0,0.0,0.0,0.0,0.0,0.0,0.0,0.0,0.0,0.0,0.0,0.0,0.0,0.0,0.0,0.0,0.0,0.0,0.0,0.0,0.0,0.0,0.0,0.0,0.0,0.0,0.0,0.0,0.0,0.0,0.0,0.0,0.0,0.0,0.0,0.0,0.0,0.0,0.0,0.0,0.0,0.0,0.0,0.0,0.0,0.0,0.0,0.0,0.0,0.0,0.0,0.0,0.0,0.0,0.0,0.0,0.0,0.0,0.0,0.0,0.0,0.0,0.0,0.0,0.0,0.0,0.0,0.0,0.0,0.0,0.0,0.0,0.0,0.0,0.0,0.0,0.0,0.0,0.0,0.0,0.0,0.0,0.0,0.0,0.0,0.0,0.0,0.0,0.0,0.0,0.0,0.0,0.0,0.0,0.0,0.0,0.0,0.0,0.0,0.0,0.0,0.0,0.0,0.0,0.0,0.0,0.0,0.0,0.0,0.0,0.0,0.0,0.0,0.0,0.0,0.0,0.0,0.0,0.0,0.0,0.0,0.0,0.0,0.0,0.0,0.0,0.0,0.0,0.0,0.0,0.0,0.0,0.0,0.0,0.0,0.0,0.0,0.0,0.0,0.0,0.0,0.0,0.0,0.0,0.0,0.0,0.0,0.0,0.0,0.0,0.0,0.0,0.0,0.0,0.0,0.0,0.0,0.0,0.0,0.0,0.0,0.0,0.0,0.0,0.0,0.0,0.0,0.0,0.0,0.0,0.0,0.0,0.0,0.0,0.0,0.0,0.0,0.0,0.0,0.0,0.0,0.0,0.0,0.0,0.0,0.0,0.0,0.0,0.0,0.0,0.0,0.0,0.0,0.0,0.0,0.0,0.0,0.0,0.0,0.0,0.0,0.0,0.0,0.0,0.0,0.0,0.0,0.0,0.0,0.0,0.0,0.0,0.0,0.0,0.0,0.0,0.0,0.0,0.0,0.0,0.0,0.0,0.0,0.0,0.0,0.0,0.0,0.0,0.0,0.0,0.0,0.0,0.0,0.0,0.0,0.0,0.0,0.0,0.0,0.0,0.0,0.0,0.0,0.0,0.0,0.0,0.0,0.0,0.0,0.0,0.0,0.0,0.0,0.0,0.0,0.0,0.0,0.0,0.0,0.0,0.0,0.0,0.0,0.0,0.0,0.0,0.0,0.0,0.0,0.0,0.0,0.0,0.0,0.0,0.0,0.0,0.0,0.0,0.0,0.0,0.0,0.0,0.0,0.0,0.0,0.0,0.0,0.0,0.0,0.0,0.0,0.0,0.0,0.0,0.0,0.0,0.0,0.0,0.0,0.0,0.0,0.0,0.0,0.0,0.0,0.0,0.0,0.0,0.0,0.0,0.0,0.0,0.0,0.0,0.0,0.0,0.0,0.0,0.0,0.0,0.0,0.0,0.0,0.0,0.0,0.0,0.0,0.0,0.0,0.0,0.0,0.0,0.0,0.0,0.0,0.0,0.0,0.0,0.0,0.0,0.0,0.0,0.0,0.0,0.0,0.0,0.0,0.0,0.0,0.0,0.0,0.0,0.0,0.0,0.0,0.0,0.0,0.0,0.0,0.0,0.0,0.0,0.0,0.0,0.0,0.0,0.0,0.0,0.0,0.0,0.0,0.0,0.0,0.0,0.0,0.0,0.0,0.0,0.0,0.0,0.0,0.0,0.0,0.0,0.0,0.0,0.0,0.0,0.0,0.0,0.0,0.0,0.0,0.0,0.0,0.0,0.0,0.0,0.0,0.0,0.0,0.0,0.0,0.0,0.0,0.0,0.0,0.0,0.0,0.0,0.0,0.0,0.0,0.0,0.0,0.0,0.0,0.0,0.0,0.0,0.0,0.0,0.0,0.0,0.0,0.0,0.0,0.0,0.0,0.0,0.0,0.0,0.0,0.0,0.0,0.0,0.0,0.0,0.0,0.0,0.0,0.0,0.0,0.0,0.0,0.0,0.0,0.0,0.0,0.0,0.0,0.0,0.0,0.0,0.0,0.0,0.0,0.0,0.0,0.0,0.0,0.0,0.0,0.0,0.0,0.0,0.0,0.0,0.0,0.0,0.0,0.0,0.0,0.0,0.0,0.0,0.0,0.0,0.0,0.0,0.0,0.0,0.0,0.0,0.0,0.0,0.0,0.0,0.0,0.0,0.0,0.0,0.0,0.0,0.0,0.0,0.0,0.0,0.0,0.0,0.0,0.0,0.0,0.0,0.0,0.0,0.0,0.0,0.0,0.0,0.0,0.0,0.0,0.0,0.0,0.0,0.0,0.0,0.0,0.0,0.0,0.0,0.0,-1.3261,0.0,0.0,0.0,0.0,0.0,0.0,0.0,0.0,0.0,0.0,0.0,0.0,0.0,0.0,0.0,0.0,0.0,0.0,0.0,0.0,0.0,0.0,0.0,0.0,0.0,0.0,0.0,0.0,0.0,0.0,0.0,0.0,0.0,0.0,0.0,0.0,0.0,0.0,0.0,0.0,0.0,0.0,0.0,0.0,0.0,0.0,0.0,0.0,0.0,0.0,0.0,0.0,0.0,0.0,0.0,0.0,0.0,0.0,0.0,0.0,0.0,0.0,0.0,0.0,0.0,0.0,0.0,0.0,0.0,0.0,0.0,0.0,0.0,0.0,0.0,0.0,0.0,0.0,0.0,0.0,0.0,0.0,0.0,0.0,0.0,0.0,0.0,0.0,0.0,0.0,0.0,0.0,0.0,0.0,0.0,0.0,0.0,0.0,0.0,0.0,0.0,0.0,0.0,0.0,0.0,0.0,0.0,0.0,0.0,0.0,-1.2953,-1.2979,-1.2962,-1.2962,-1.2962,0.0,0.0,0.0,0.0,0.0,0.0,0.0,0.0,0.0,0.0,0.0,0.0,0.0,0.0,0.0,0.0,0.0,0.0,0.0,0.0,0.0,0.0,0.0,0.0,0.0,0.0,0.0,0.0,0.0,0.0,0.0,0.0,0.0,0.0,0.0,0.0,0.0,0.0,0.0,0.0,0.0,0.0,0.0,0.0,0.0,0.0,0.0,0.0,0.0,0.0,0.0,0.0,0.0,0.0,0.0,0.0,0.0,0.0,0.0,0.0,0.0,0.0,0.0,0.0,0.0,0.0,0.0,0.0,0.0,0.0,0.0,0.0,0.0,0.0,0.0,0.0,0.0,0.0,0.0,0.0,0.0,0.0,0.0,0.0,0.0,0.0,0.0,0.0,0.0,0.0,0.0,0.0,0.0,0.0,0.0,0.0,0.0,0.0,0.0,0.0,0.0,0.0,0.0,0.0,0.0,0.0,0.0,0.0,0.0,0.0,0.0,0.0,-1.328,-1.3258,-1.32,0.0,0.0,0.0,0.0,0.0,0.0,0.0,0.0,0.0,0.0,0.0,0.0,0.0,0.0,0.0,0.0,0.0,0.0,0.0,0.0,0.0,0.0,0.0,0.0,0.0,0.0,0.0,0.0,0.0,0.0,0.0,0.0,0.0,0.0,0.0,0.0,0.0,0.0,0.0,0.0,0.0,0.0,0.0,0.0,0.0,0.0,0.0,0.0,0.0,0.0,0.0,0.0,0.0,0.0,0.0,0.0,0.0,0.0,0.0,0.0,0.0,0.0,0.0,0.0,0.0,0.0,0.0,0.0,0.0,0.0,0.0,0.0,0.0,0.0,0.0,0.0,0.0,0.0,0.0,0.0,0.0,0.0,0.0,0.0,0.0,0.0,0.0,0.0,0.0,0.0,0.0,0.0,0.0,0.0,0.0,0.0,0.0,0.0,0.0,0.0,0.0,0.0,0.0,0.0,0.0,0.0,0.0,0.0,0.0,0.0,-1.3965,-1.5277,-1.5308,0.0,-1.4978,0.0,0.0,0.0,0.0,0.0,0.0,0.0,0.0,0.0,0.0,0.0,0.0,0.0,0.0,0.0,0.0,0.0,0.0,0.0,0.0,0.0,0.0,0.0,0.0,0.0,0.0,0.0,0.0,0.0,0.0,0.0,0.0,0.0,0.0,0.0,0.0,0.0,0.0,0.0,0.0,0.0,0.0,0.0,0.0,0.0,0.0,0.0,0.0,0.0,0.0,0.0,0.0,0.0,0.0,0.0,0.0,0.0,0.0,0.0,0.0,0.0,0.0,0.0,0.0,0.0,0.0,0.0,0.0,0.0,0.0,0.0,0.0,0.0,0.0,0.0,0.0,0.0,0.0,0.0,0.0,0.0,0.0,0.0,0.0,0.0,0.0,0.0,0.0,0.0,0.0,0.0,0.0,0.0,0.0,0.0,0.0,0.0,0.0,0.0,0.0,0.0,0.0,0.0,0.0,0.0,0.0,0.0,0.0,0.0,0.0,0.0,-1.5103,-1.4971,-1.4989,0.0,0.0,0.0,0.0,0.0,0.0,0.0,0.0,0.0,0.0,0.0,0.0,0.0,0.0,0.0,0.0,0.0,0.0,0.0,0.0,0.0,0.0,0.0,0.0,0.0,0.0,0.0,0.0,0.0,0.0,0.0,0.0,0.0,0.0,0.0,0.0,0.0,0.0,0.0,0.0,0.0,0.0,0.0,0.0,0.0,0.0,0.0,0.0,0.0,0.0,0.0,0.0,0.0,0.0,0.0,0.0,0.0,0.0,0.0,0.0,0.0,0.0,0.0,0.0,0.0,0.0,0.0,0.0,0.0,0.0,0.0,0.0,0.0,0.0,0.0,0.0,0.0,0.0,0.0,0.0,0.0,0.0,0.0,0.0,0.0,0.0,0.0,0.0,0.0,0.0,0.0,0.0,0.0,0.0,0.0,0.0,0.0,0.0,0.0,0.0,0.0,0.0,0.0,0.0,0.0,0.0,0.0,0.0,0.0,0.0,-1.427,0.0,-1.5301,-1.5275,-1.5059,-1.4706,0.0,0.0,0.0,0.0,0.0,0.0,0.0,0.0,0.0,0.0,0.0,0.0,0.0,0.0,0.0,0.0,0.0,0.0,0.0,0.0,0.0,0.0,0.0,0.0,0.0,0.0,0.0,0.0,0.0,0.0,0.0,0.0,0.0,0.0,0.0,0.0,0.0,0.0,0.0,0.0,0.0,0.0,0.0,0.0,0.0,0.0,0.0,0.0,0.0,0.0,0.0,0.0,0.0,0.0,0.0,0.0,0.0,0.0,0.0,0.0,0.0,0.0,0.0,0.0,0.0,0.0,0.0,0.0,0.0,0.0,0.0,0.0,0.0,0.0,0.0,0.0,0.0,0.0,0.0,0.0,0.0,0.0,0.0,0.0,0.0,0.0,0.0,0.0,0.0,0.0,0.0,0.0,0.0,0.0,0.0,0.0,0.0,0.0,0.0,0.0,0.0,0.0,0.0,0.0,0.0,0.0,0.0,0.0,0.0,-1.5691,-1.5522,-1.6684,-1.706,-1.6074,0.0,0.0,0.0,0.0,0.0,0.0,0.0,0.0,0.0,0.0,0.0,0.0,0.0,0.0,0.0,0.0,0.0,0.0,0.0,0.0,0.0,0.0,0.0,0.0,0.0,0.0,0.0,0.0,0.0,0.0,0.0,0.0,0.0,0.0,0.0,0.0,0.0,0.0,0.0,0.0,0.0,0.0,0.0,0.0,0.0,0.0,0.0,0.0,0.0,0.0,0.0,0.0,0.0,0.0,0.0,0.0,0.0,0.0,0.0,0.0,0.0,0.0,0.0,0.0,0.0,0.0,0.0,0.0,0.0,0.0,0.0,0.0,0.0,0.0,0.0,0.0,0.0,0.0,0.0,0.0,0.0,0.0,0.0,0.0,0.0,0.0,0.0,0.0,0.0,0.0,0.0,0.0,0.0,0.0,0.0,0.0,0.0,0.0,0.0,0.0,0.0,0.0,0.0,0.0,0.0,0.0,0.0,0.0,0.0,-1.4255,-1.4859,-1.6189,0.0,-1.6172,-1.4982,0.0,0.0,0.0,0.0,0.0,0.0,0.0,0.0,0.0,0.0,0.0,0.0,0.0,0.0,0.0,0.0,0.0,0.0,0.0,0.0,0.0,0.0,0.0,0.0,0.0,0.0,0.0,0.0,0.0,0.0,0.0,0.0,0.0,0.0,0.0,0.0,0.0,0.0,0.0,0.0,0.0,0.0,0.0,0.0,0.0,0.0,0.0,0.0,0.0,0.0,0.0,0.0,0.0,0.0,0.0,0.0,0.0,0.0,0.0,0.0,0.0,0.0,0.0,0.0,0.0,0.0,0.0,0.0,0.0,0.0,0.0,0.0,0.0,0.0,0.0,0.0,0.0,0.0,0.0,0.0,0.0,0.0,0.0,0.0,0.0,0.0,0.0,0.0,0.0,0.0,0.0,0.0,0.0,0.0,0.0,0.0,0.0,0.0,0.0,0.0,0.0,0.0,0.0,0.0,0.0,0.0,0.0,0.0,0.0,-1.3772,0.0,-1.7105,0.0,-1.5959,-1.4506,0.0,0.0,0.0,0.0,0.0,0.0,0.0,0.0,0.0,0.0,0.0,0.0,0.0,0.0,0.0,0.0,0.0,0.0,0.0,0.0,0.0,0.0,0.0,0.0,0.0,0.0,0.0,0.0,0.0,0.0,0.0,0.0,0.0,0.0,0.0,0.0,0.0,0.0,0.0,0.0,0.0,0.0,0.0,0.0,0.0,0.0,0.0,0.0,0.0,0.0,0.0,0.0,0.0,0.0,0.0,0.0,0.0,0.0,0.0,0.0,0.0,0.0,0.0,0.0,0.0,0.0,0.0,0.0,0.0,0.0,0.0,0.0,0.0,0.0,0.0,0.0,0.0,0.0,0.0,0.0,0.0,0.0,0.0,0.0,0.0,0.0,0.0,0.0,0.0,0.0,0.0,0.0,0.0,0.0,0.0,0.0,0.0,0.0,0.0,0.0,0.0,0.0,0.0,0.0,0.0,0.0,0.0,0.0,0.0,-1.6066,-1.8173,-1.8171,-1.6004,-1.6616,-1.4855,0.0,0.0,0.0,0.0,0.0,0.0,0.0,0.0,0.0,0.0,0.0,0.0,0.0,0.0,0.0,0.0,0.0,0.0,0.0,0.0,0.0,0.0,0.0,0.0,0.0,0.0,0.0,0.0,0.0,0.0,0.0,0.0,0.0,0.0,0.0,0.0,0.0,0.0,0.0,0.0,0.0,0.0,0.0,0.0,0.0,0.0,0.0,0.0,0.0,0.0,0.0,0.0,0.0,0.0,0.0,0.0,0.0,0.0,0.0,0.0,0.0,0.0,0.0,0.0,0.0,0.0,0.0,0.0,0.0,0.0,0.0,0.0,0.0,0.0,0.0,0.0,0.0,0.0,0.0,0.0,0.0,0.0,0.0,0.0,0.0,0.0,0.0,0.0,0.0,0.0,0.0,0.0,0.0,0.0,0.0,0.0,0.0,0.0,0.0,0.0,0.0,0.0,0.0,0.0,0.0,0.0,0.0,0.0,0.0,-1.5538,-1.7321,-1.8233,-1.8021,-1.5844,-1.4567,0.0,0.0,0.0,0.0,0.0,0.0,0.0,0.0,0.0,0.0,0.0,0.0,0.0,0.0,0.0,0.0,0.0,0.0,0.0,0.0,0.0,0.0,0.0,0.0,0.0,0.0,0.0,0.0,0.0,0.0,0.0,0.0,0.0,0.0,0.0,0.0,0.0,0.0,0.0,0.0,0.0,0.0,0.0,0.0,0.0,0.0,0.0,0.0,0.0,0.0,0.0,0.0,0.0,0.0,0.0,0.0,0.0,0.0,0.0,0.0,0.0,0.0,0.0,0.0,0.0,0.0,0.0,0.0,0.0,0.0,0.0,0.0,0.0,0.0,0.0,0.0,0.0,0.0,0.0,0.0,0.0,0.0,0.0,0.0,0.0,0.0,0.0,0.0,0.0,0.0,0.0,0.0,0.0,0.0,0.0,0.0,0.0,0.0,0.0,0.0,0.0,0.0,0.0,0.0,0.0,0.0,0.0,0.0,0.0,-1.7334,-1.8703,-1.9498,-1.9544,-1.6719,-1.5221,-1.5252,0.0,0.0,0.0,0.0,0.0,0.0,0.0,0.0,0.0,0.0,0.0,0.0,0.0,0.0,0.0,0.0,0.0,0.0,0.0,0.0,0.0,0.0,0.0,0.0,0.0,0.0,0.0,0.0,0.0,0.0,0.0,0.0,0.0,0.0,0.0,0.0,0.0,0.0,0.0,0.0,0.0,0.0,0.0,0.0,0.0,0.0,0.0,0.0,0.0,0.0,0.0,0.0,0.0,0.0,0.0,0.0,0.0,0.0,0.0,0.0,0.0,0.0,0.0,0.0,0.0,0.0,0.0,0.0,0.0,0.0,0.0,0.0,0.0,0.0,0.0,0.0,0.0,0.0,0.0,0.0,0.0,0.0,0.0,0.0,0.0,0.0,0.0,0.0,0.0,0.0,0.0,0.0,0.0,0.0,0.0,0.0,0.0,0.0,0.0,0.0,0.0,0.0,0.0,0.0,0.0,0.0,0.0,0.0,-2.0897,-2.1957,-2.1827,-2.0524,-1.9007,-1.6848,0.0,0.0,0.0,0.0,0.0,0.0,0.0,0.0,0.0,0.0,0.0,0.0,0.0,0.0,0.0,0.0,0.0,0.0,0.0,0.0,0.0,0.0,0.0,0.0,0.0,0.0,0.0,0.0,0.0,0.0,0.0,0.0,0.0,0.0,0.0,0.0,0.0,0.0,0.0,0.0,0.0,0.0,0.0,0.0,0.0,0.0,0.0,0.0,0.0,0.0,0.0,0.0,0.0,0.0,0.0,0.0,0.0,0.0,0.0,0.0,0.0,0.0,0.0,0.0,0.0,0.0,0.0,0.0,0.0,0.0,0.0,0.0,0.0,0.0,0.0,0.0,0.0,0.0,0.0,0.0,0.0,0.0,0.0,0.0,0.0,0.0,0.0,0.0,0.0,0.0,0.0,0.0,0.0,0.0,0.0,0.0,0.0,0.0,0.0,0.0,0.0,0.0,0.0,0.0,0.0,0.0,0.0,0.0,0.0,-2.3468,-2.4334,-2.4098,-2.2747,-2.0775,-1.9072,0.0,0.0,0.0,0.0,0.0,0.0,0.0,0.0,0.0,0.0,0.0,0.0,0.0,0.0,0.0,0.0,0.0,0.0,0.0,0.0,0.0,0.0,0.0,0.0,0.0,0.0,0.0,0.0,0.0,0.0,0.0,0.0,0.0,0.0,0.0,0.0,0.0,0.0,0.0,0.0,0.0,0.0,0.0,0.0,0.0,0.0,0.0,0.0,0.0,0.0,0.0,0.0,0.0,0.0,0.0,0.0,0.0,0.0,0.0,0.0,0.0,0.0,0.0,0.0,0.0,0.0,0.0,0.0,0.0,0.0,0.0,0.0,0.0,0.0,0.0,0.0,0.0,0.0,0.0,0.0,0.0,0.0,0.0,0.0,0.0,0.0,0.0,0.0,0.0,0.0,0.0,0.0,0.0,0.0,0.0,0.0,0.0,0.0,0.0,0.0,0.0,0.0,0.0,0.0,0.0,0.0,0.0,0.0,-2.2278,-2.4963,-2.5944,-2.6063,-2.5294,-2.295,-2.0791,0.0,0.0,0.0,0.0,0.0,0.0,0.0,0.0,0.0,0.0,0.0,0.0,0.0,0.0,0.0,0.0,0.0,0.0,0.0,0.0,0.0,0.0,0.0,0.0,0.0,0.0,0.0,0.0,0.0,0.0,0.0,0.0,0.0,0.0,0.0,0.0,0.0,0.0,0.0,0.0,0.0,0.0,0.0,0.0,0.0,0.0,0.0,0.0,0.0,0.0,0.0,0.0,0.0,0.0,0.0,0.0,0.0,0.0,0.0,0.0,0.0,0.0,0.0,0.0,0.0,0.0,0.0,0.0,0.0,0.0,0.0,0.0,0.0,0.0,0.0,0.0,0.0,0.0,0.0,0.0,0.0,0.0,0.0,0.0,0.0,0.0,0.0,0.0,0.0,0.0,0.0,0.0,0.0,0.0,0.0,0.0,0.0,0.0,0.0,0.0,0.0,0.0,0.0,0.0,0.0,0.0,0.0,0.0,-2.3759,-2.5756,-2.7061,-2.769,-2.763,-2.5091,-2.2129,0.0,0.0,0.0,0.0,0.0,0.0,0.0,0.0,0.0,0.0,0.0,0.0,0.0,0.0,0.0,0.0,0.0,0.0,0.0,0.0,0.0,0.0,0.0,0.0,0.0,0.0,0.0,0.0,0.0,0.0,0.0,0.0,0.0,0.0,0.0,0.0,0.0,0.0,0.0,0.0,0.0,0.0,0.0,0.0,0.0,0.0,0.0,0.0,0.0,0.0,0.0,0.0,0.0,0.0,0.0,0.0,0.0,0.0,0.0,0.0,0.0,0.0,0.0,0.0,0.0,0.0,0.0,0.0,0.0,0.0,0.0,0.0,0.0,0.0,0.0,0.0,0.0,0.0,0.0,0.0,0.0,0.0,0.0,0.0,0.0,0.0,0.0,0.0,0.0,0.0,0.0,0.0,0.0,0.0,0.0,0.0,0.0,0.0,0.0,0.0,0.0,0.0,0.0,0.0,0.0,0.0,0.0,0.0,-2.4612,-2.7106,-2.7949,-2.8382,-2.8368,-2.5785,-2.3302,0.0,0.0,0.0,0.0,0.0,0.0,0.0,0.0,0.0,0.0,0.0,0.0,0.0,0.0,0.0,0.0,0.0,0.0,0.0,0.0,0.0,0.0,0.0,0.0,0.0,0.0,0.0,0.0,0.0,0.0,0.0,0.0,0.0,0.0,0.0,0.0,0.0,0.0,0.0,0.0,0.0,0.0,0.0,0.0,0.0,0.0,0.0,0.0,-1.0457,0.0,0.0,0.0,0.0,0.0,0.0,0.0,0.0,0.0,0.0,0.0,0.0,0.0,0.0,0.0,0.0,0.0,0.0,0.0,0.0,0.0,0.0,0.0,0.0,0.0,0.0,0.0,0.0,0.0,0.0,0.0,0.0,0.0,0.0,0.0,0.0,0.0,0.0,0.0,0.0,0.0,0.0,0.0,0.0,0.0,0.0,0.0,0.0,0.0,0.0,0.0,0.0,0.0,0.0,0.0,0.0,0.0,0.0,0.0,-2.5674,-2.8004,-2.8412,-2.8742,-2.8951,-2.6458,-2.4029,0.0,0.0,0.0,0.0,0.0,0.0,0.0,0.0,0.0,0.0,0.0,0.0,0.0,0.0,0.0,0.0,0.0,0.0,0.0,0.0,0.0,0.0,0.0,0.0,0.0,0.0,0.0,0.0,0.0,0.0,0.0,0.0,0.0,0.0,0.0,0.0,0.0,0.0,0.0,0.0,0.0,0.0,0.0,0.0,0.0,0.0,0.0,0.0,0.0,0.0,0.0,0.0,0.0,0.0,0.0,0.0,0.0,0.0,0.0,0.0,0.0,0.0,0.0,0.0,0.0,0.0,0.0,0.0,0.0,0.0,0.0,0.0,0.0,0.0,0.0,0.0,0.0,0.0,0.0,0.0,0.0,0.0,0.0,0.0,0.0,0.0,0.0,0.0,0.0,0.0,0.0,0.0,0.0,0.0,0.0,0.0,0.0,0.0,0.0,0.0,0.0,0.0,0.0,0.0,0.0,0.0,0.0,-2.361,-2.6422,-2.8637,-2.8652,-2.8921,-2.9547,-2.7065,-2.4522,-2.1939,0.0,0.0,0.0,0.0,0.0,0.0,0.0,0.0,0.0,0.0,0.0,0.0,0.0,0.0,0.0,0.0,0.0,0.0,0.0,0.0,0.0,0.0,0.0,0.0,0.0,0.0,0.0,0.0,0.0,0.0,0.0,0.0,0.0,0.0,0.0,0.0,0.0,0.0,-0.8923,-1.0299,0.0,0.0,0.0,0.0,0.0,0.0,0.0,0.0,-1.1842,0.0,0.0,0.0,0.0,0.0,0.0,0.0,0.0,0.0,0.0,0.0,0.0,0.0,0.0,0.0,0.0,0.0,0.0,0.0,0.0,0.0,0.0,0.0,0.0,0.0,0.0,0.0,0.0,0.0,0.0,0.0,0.0,0.0,0.0,0.0,0.0,0.0,0.0,0.0,0.0,0.0,0.0,0.0,0.0,0.0,0.0,0.0,0.0,0.0,0.0,0.0,0.0,0.0,0.0,0.0,0.0,-2.2862,-2.3595,-2.5704,-2.9322,-2.8876,-2.8906,-2.9502,-2.7424,-2.5101,-2.2594,0.0,0.0,0.0,0.0,0.0,0.0,0.0,0.0,0.0,0.0,0.0,0.0,0.0,0.0,0.0,0.0,0.0,0.0,0.0,0.0,0.0,0.0,0.0,0.0,0.0,0.0,0.0,0.0,0.0,0.0,0.0,0.0,0.0,0.0,0.0,0.0,0.0,0.0,0.0,-1.2998,-1.3745,0.0,0.0,0.0,0.0,0.0,0.0,0.0,0.0,-1.2592,0.0,0.0,0.0,0.0,0.0,0.0,0.0,0.0,0.0,0.0,0.0,0.0,0.0,0.0,0.0,0.0,0.0,0.0,0.0,0.0,0.0,0.0,0.0,0.0,0.0,0.0,0.0,0.0,0.0,0.0,0.0,0.0,0.0,0.0,0.0,0.0,0.0,0.0,0.0,0.0,0.0,0.0,0.0,0.0,0.0,0.0,0.0,0.0,0.0,0.0,0.0,0.0,0.0,0.0,0.0,-2.2443,-2.4283,-2.6587,-2.9472,-2.8936,-2.8906,-2.9517,-2.6589,-2.407,0.0,0.0,0.0,0.0,0.0,0.0,0.0,0.0,0.0,0.0,0.0,0.0,0.0,0.0,0.0,0.0,0.0,0.0,0.0,0.0,0.0,0.0,0.0,0.0,0.0,0.0,0.0,0.0,0.0,0.0,0.0,0.0,0.0,0.0,0.0,0.0,0.0,0.0,0.0,0.0,-1.3464,-1.4327,-1.5097,0.0,0.0,0.0,0.0,0.0,0.0,-1.3559,-1.3107,0.0,0.0,0.0,0.0,0.0,0.0,0.0,0.0,0.0,0.0,0.0,0.0,0.0,0.0,0.0,0.0,0.0,0.0,0.0,0.0,0.0,0.0,0.0,0.0,0.0,0.0,0.0,0.0,0.0,0.0,0.0,0.0,0.0,0.0,0.0,0.0,0.0,0.0,0.0,0.0,0.0,0.0,0.0,0.0,0.0,0.0,0.0,0.0,0.0,0.0,0.0,0.0,0.0,0.0,0.0,-2.1665,-2.4522,-2.7096,-2.9262,-2.8858,-2.8843,-2.9307,-2.5983,-2.3383,0.0,0.0,0.0,0.0,0.0,0.0,0.0,0.0,0.0,0.0,0.0,0.0,0.0,0.0,0.0,0.0,0.0,0.0,0.0,0.0,0.0,0.0,0.0,0.0,0.0,0.0,0.0,0.0,0.0,0.0,0.0,0.0,0.0,0.0,0.0,0.0,0.0,0.0,0.0,0.0,0.0,-1.491,-1.5588,-1.499,0.0,0.0,0.0,0.0,-1.4947,-1.4488,0.0,0.0,0.0,0.0,0.0,0.0,0.0,0.0,0.0,0.0,0.0,0.0,0.0,0.0,0.0,0.0,0.0,0.0,0.0,0.0,0.0,0.0,0.0,0.0,0.0,0.0,0.0,0.0,0.0,0.0,0.0,0.0,0.0,0.0,0.0,0.0,0.0,0.0,0.0,0.0,0.0,0.0,0.0,0.0,0.0,0.0,0.0,0.0,0.0,0.0,0.0,0.0,0.0,0.0,0.0,0.0,-2.1575,-2.3161,-2.5495,-2.8513,-2.858,-2.8574,-2.8678,-2.6898,-2.4567,0.0,0.0,0.0,0.0,0.0,0.0,0.0,0.0,0.0,0.0,0.0,0.0,0.0,0.0,0.0,0.0,0.0,0.0,0.0,0.0,0.0,0.0,0.0,0.0,0.0,0.0,0.0,0.0,0.0,0.0,0.0,0.0,0.0,0.0,0.0,0.0,0.0,0.0,0.0,0.0,0.0,-1.6626,-1.5827,-1.6008,-1.591,0.0,0.0,-1.6007,-1.5668,-1.6355,0.0,0.0,0.0,0.0,0.0,0.0,0.0,0.0,0.0,0.0,0.0,0.0,0.0,0.0,0.0,0.0,0.0,0.0,0.0,0.0,0.0,0.0,0.0,0.0,0.0,0.0,0.0,0.0,0.0,0.0,0.0,0.0,0.0,0.0,0.0,0.0,0.0,0.0,0.0,0.0,0.0,0.0,0.0,0.0,0.0,0.0,0.0,0.0,0.0,0.0,0.0,0.0,0.0,0.0,0.0,-1.8478,-2.162,-2.3699,-2.5989,-2.8472,-2.8208,-2.7996,-2.8034,-2.5558,-2.3055,0.0,0.0,0.0,0.0,0.0,0.0,0.0,0.0,0.0,0.0,0.0,0.0,0.0,0.0,0.0,0.0,0.0,0.0,0.0,0.0,0.0,0.0,0.0,0.0,0.0,0.0,0.0,0.0,0.0,0.0,0.0,0.0,0.0,0.0,0.0,0.0,0.0,0.0,0.0,0.0,0.0,0.0,-1.7025,-1.7003,0.0,0.0,0.0,-1.6638,-1.7061,0.0,0.0,0.0,0.0,0.0,0.0,0.0,0.0,0.0,0.0,0.0,0.0,0.0,0.0,0.0,0.0,0.0,0.0,0.0,0.0,0.0,0.0,0.0,0.0,0.0,0.0,0.0,0.0,0.0,0.0,0.0,0.0,0.0,0.0,0.0,0.0,0.0,0.0,0.0,0.0,0.0,0.0,0.0,0.0,0.0,0.0,0.0,0.0,0.0,0.0,0.0,0.0,0.0,0.0,0.0,0.0,0.0,-2.168,-2.4283,-2.6497,-2.8248,-2.7991,-2.7645,-2.73,-2.4721,0.0,0.0,0.0,0.0,0.0,0.0,0.0,0.0,0.0,0.0,0.0,0.0,0.0,0.0,0.0,0.0,0.0,0.0,0.0,0.0,0.0,0.0,0.0,0.0,0.0,0.0,0.0,-0.7906,0.0,0.0,0.0,0.0,0.0,0.0,0.0,0.0,0.0,0.0,0.0,0.0,0.0,0.0,-1.7381,-1.8068,-1.804,-1.8202,0.0,0.0,-1.7315,-1.7915,-1.7513,-1.6738,0.0,0.0,0.0,0.0,0.0,0.0,0.0,0.0,0.0,0.0,0.0,0.0,0.0,0.0,0.0,0.0,0.0,0.0,0.0,0.0,0.0,0.0,0.0,0.0,0.0,0.0,0.0,0.0,0.0,0.0,0.0,0.0,0.0,0.0,0.0,0.0,0.0,0.0,0.0,0.0,0.0,0.0,0.0,0.0,0.0,0.0,0.0,0.0,0.0,0.0,0.0,0.0,0.0,0.0,0.0,-2.1665,-2.4268,-2.6273,-2.7625,-2.818,-2.7874,-2.6696,-2.5607,-2.3619,0.0,0.0,0.0,0.0,0.0,0.0,0.0,0.0,0.0,0.0,0.0,0.0,0.0,0.0,0.0,0.0,0.0,0.0,0.0,0.0,0.0,0.0,0.0,0.0,0.0,0.0,0.0,0.0,0.0,0.0,0.0,0.0,0.0,0.0,0.0,0.0,0.0,0.0,0.0,0.0,0.0,-1.878,-1.8355,-1.9107,-1.9562,0.0,0.0,-1.8543,-1.7612,-1.8242,-1.7942,-1.5374,0.0,0.0,0.0,0.0,0.0,0.0,0.0,0.0,0.0,0.0,0.0,0.0,0.0,0.0,0.0,0.0,0.0,0.0,0.0,0.0,0.0,0.0,0.0,0.0,0.0,0.0,0.0,0.0,0.0,0.0,0.0,0.0,0.0,0.0,0.0,0.0,0.0,0.0,0.0,0.0,0.0,0.0,0.0,0.0,0.0,0.0,0.0,0.0,0.0,0.0,0.0,0.0,0.0,-1.9014,-2.168,-2.4283,-2.6243,-2.755,-2.7835,-2.7336,-2.6004,-2.4844,-2.2903,0.0,0.0,0.0,0.0,0.0,0.0,0.0,0.0,0.0,0.0,0.0,0.0,0.0,0.0,0.0,0.0,0.0,0.0,0.0,0.0,0.0,0.0,0.0,0.0,0.0,0.0,0.0,0.0,-0.7906,-0.7857,-0.7711,0.0,0.0,0.0,0.0,0.0,0.0,0.0,0.0,0.0,0.0,-1.9164,-1.9248,-1.9642,0.0,0.0,-1.9497,-1.897,-1.8894,-1.8668,-1.8041,-1.6635,-1.5864,0.0,0.0,0.0,0.0,0.0,0.0,0.0,0.0,0.0,0.0,0.0,0.0,0.0,0.0,0.0,0.0,0.0,0.0,0.0,0.0,0.0,0.0,0.0,0.0,0.0,0.0,0.0,0.0,0.0,0.0,0.0,0.0,0.0,0.0,0.0,0.0,0.0,0.0,0.0,0.0,0.0,0.0,0.0,0.0,0.0,0.0,0.0,0.0,0.0,0.0,0.0,0.0,-1.9263,-2.1984,-2.4528,-2.6419,-2.757,-2.7585,-2.6971,-2.5644,-2.4507,-2.2667,0.0,0.0,0.0,0.0,0.0,0.0,0.0,0.0,0.0,0.0,0.0,0.0,0.0,0.0,0.0,0.0,0.0,0.0,0.0,0.0,0.0,0.0,0.0,0.0,0.0,0.0,0.0,0.0,-0.8086,-0.7982,-0.7462,0.0,0.0,0.0,0.0,0.0,0.0,0.0,0.0,0.0,0.0,-1.9899,-2.0639,-2.0578,-2.0592,-2.1011,-2.002,-1.9246,-1.9321,-1.8832,-1.8103,-1.7036,0.0,0.0,0.0,0.0,0.0,0.0,0.0,0.0,0.0,0.0,0.0,0.0,0.0,0.0,0.0,0.0,0.0,0.0,0.0,0.0,0.0,0.0,0.0,0.0,0.0,0.0,0.0,0.0,0.0,0.0,-1.1035,0.0,0.0,0.0,0.0,0.0,0.0,0.0,0.0,0.0,0.0,0.0,0.0,0.0,0.0,0.0,0.0,0.0,0.0,0.0,0.0,0.0,0.0,0.0,-2.2649,-2.5083,-2.6757,-2.7565,-2.7585,-2.6971,-2.5659,-2.4933,-2.3334,-2.0726,0.0,0.0,0.0,0.0,0.0,0.0,0.0,0.0,0.0,0.0,0.0,0.0,0.0,0.0,0.0,0.0,0.0,0.0,0.0,0.0,0.0,0.0,0.0,0.0,0.0,0.0,-0.7906,-0.8484,-0.8612,0.0,0.0,0.0,0.0,0.0,0.0,0.0,0.0,0.0,0.0,-1.9701,-2.1295,-2.2435,-2.2085,-2.1679,-2.1683,-2.0619,-1.9447,-1.848,-1.8681,-1.823,0.0,0.0,0.0,0.0,0.0,0.0,0.0,0.0,0.0,0.0,0.0,0.0,0.0,0.0,0.0,0.0,0.0,0.0,0.0,0.0,0.0,0.0,0.0,0.0,0.0,0.0,0.0,-1.6424,-1.5839,0.0,0.0,0.0,0.0,0.0,0.0,0.0,0.0,0.0,0.0,0.0,-2.3361,-2.3825,0.0,0.0,0.0,0.0,0.0,0.0,0.0,0.0,0.0,0.0,0.0,0.0,-1.9992,-2.2649,-2.4799,-2.6419,-2.754,-2.7585,-2.6971,-2.5644,-2.5303,-2.3619,-2.0412,0.0,0.0,0.0,0.0,0.0,0.0,0.0,0.0,0.0,0.0,0.0,0.0,0.0,0.0,0.0,0.0,0.0,0.0,0.0,0.0,0.0,0.0,0.0,0.0,0.0,-0.7906,0.0,0.0,0.0,0.0,0.0,0.0,0.0,0.0,0.0,0.0,0.0,-1.7641,-1.9251,-2.098,-2.2248,-2.2652,-2.2898,-2.2875,0.0,0.0,0.0,0.0,0.0,0.0,0.0,0.0,0.0,0.0,0.0,0.0,0.0,0.0,-1.6547,-1.3986,-1.319,-1.2985,-1.316,0.0,0.0,0.0,0.0,0.0,0.0,0.0,0.0,0.0,0.0,0.0,0.0,0.0,0.0,-2.0094,0.0,-1.8313,0.0,0.0,0.0,0.0,0.0,0.0,0.0,0.0,-2.4577,-2.6031,-2.7181,-2.7658,-2.7475,0.0,-2.5879,-2.3203,0.0,0.0,0.0,0.0,0.0,0.0,0.0,0.0,-2.0865,-2.3317,-2.5251,-2.6684,-2.754,-2.7585,-2.6971,-2.563,-2.5028,-2.3397,-2.0607,-1.8903,-1.7391,0.0,0.0,0.0,0.0,0.0,0.0,0.0,0.0,0.0,0.0,0.0,0.0,0.0,0.0,0.0,0.0,0.0,0.0,0.0,0.0,0.0,0.0,0.0,-0.8596,0.0,0.0,0.0,0.0,0.0,0.0,0.0,0.0,0.0,-1.6443,-1.7863,-1.9466,-2.1107,-2.2125,-2.2942,-2.3616,0.0,0.0,0.0,0.0,0.0,0.0,0.0,-2.019,-1.9851,-1.9762,-1.9887,-2.0425,-2.0434,-2.0263,-1.9874,0.0,0.0,-1.576,-1.492,-1.4739,-1.4908,-1.566,-1.622,-1.6091,-1.6908,-1.7564,0.0,0.0,0.0,0.0,0.0,0.0,0.0,0.0,-2.3126,-2.3393,0.0,-2.2341,0.0,0.0,0.0,0.0,0.0,-2.3139,0.0,0.0,-2.9397,-3.0835,-3.026,-3.0903,-3.0497,-2.9264,-3.048,-2.9245,-2.5593,-2.0934,0.0,0.0,0.0,0.0,0.0,0.0,-2.2562,-2.4635,-2.6474,-2.7524,-2.7655,-2.7685,-2.7045,-2.5685,-2.4193,-2.2762,-2.1432,-2.0789,-1.9264,-1.661,-1.4864,0.0,0.0,0.0,0.0,0.0,0.0,0.0,0.0,0.0,0.0,0.0,0.0,0.0,0.0,0.0,0.0,0.0,0.0,0.0,0.0,-0.9509,0.0,0.0,0.0,0.0,0.0,0.0,0.0,0.0,0.0,0.0,-1.8439,-1.9486,-2.1052,-2.3293,0.0,0.0,0.0,0.0,-2.4028,-2.4635,-2.4198,-2.3356,-2.2096,-2.2312,-2.201,-2.0283,0.0,0.0,-2.1916,-2.1659,-2.1167,-2.01,-2.0338,-2.0377,-1.9233,-1.8066,-1.7526,-1.7978,-1.7714,-1.7626,-1.8078,-1.8179,-1.8279,-2.7639,0.0,0.0,0.0,0.0,-2.6288,-2.7547,-2.9317,-2.8858,-2.8316,-2.7639,-2.6454,0.0,0.0,0.0,0.0,0.0,0.0,-2.7351,-2.96,-3.0736,-3.163,-3.2455,-3.2679,-3.2544,-3.2154,-3.2036,-3.1157,-2.9533,-2.7095,-2.3856,-1.9937,0.0,0.0,0.0,0.0,-2.398,-2.5909,-2.7372,-2.836,-2.8888,-2.888,-2.822,-2.6838,-2.4271,-2.2781,-2.2586,-2.161,-2.0286,-1.8625,-1.7139,0.0,0.0,0.0,0.0,0.0,0.0,0.0,0.0,0.0,0.0,0.0,0.0,0.0,0.0,0.0,0.0,0.0,0.0,0.0,-0.9554,-0.9794,-1.0264,0.0,0.0,0.0,0.0,0.0,0.0,0.0,0.0,0.0,-2.1986,-2.2373,-2.2994,0.0,0.0,-2.4773,-2.4815,-2.5355,-2.5653,-2.5329,0.0,0.0,0.0,-2.3582,-2.3378,-2.3186,-2.3538,-2.3583,-2.2828,-2.2365,-2.197,-2.1631,-2.1405,-2.1142,-2.079,-1.956,-1.8682,-1.8719,-1.8632,-1.8606,-1.8744,-1.9045,-1.9346,-3.1857,-2.92,-2.895,-2.9252,-2.9943,-3.0525,-3.165,-3.3083,-3.2386,-3.1901,-3.1529,-3.0192,-2.8602,-2.6877,-2.6014,0.0,0.0,0.0,-2.977,-3.207,-3.2374,-3.3136,-3.4235,-3.4286,-3.4117,-3.3812,-3.3393,-3.278,-3.207,-3.1173,-2.8704,-2.4815,0.0,0.0,-2.2666,-2.4026,-2.535,-2.6528,-2.7565,-2.8295,-2.8678,-2.8162,-2.7491,-2.6626,-2.4495,-2.3185,-2.2791,-2.2118,-2.112,-1.9804,-1.8331,-1.6618,0.0,0.0,0.0,0.0,0.0,0.0,0.0,0.0,0.0,0.0,0.0,-1.0598,0.0,0.0,0.0,0.0,-1.0058,-1.0727,-1.1396,-1.2138,0.0,0.0,0.0,0.0,0.0,0.0,0.0,-2.0498,-2.2293,-2.3684,-2.4313,-2.4627,-2.4923,-2.5287,-2.5488,-2.5637,-2.5722,0.0,-2.6515,-2.6377,-2.6698,-2.6598,-2.5499,-2.5055,-2.4891,-2.4842,-2.4525,-2.4163,-2.3679,-2.3044,-2.2648,-2.2598,-2.2359,-2.2146,-2.2146,-2.1114,-2.0224,-2.0023,-1.9986,-1.9999,-1.9999,-2.025,-2.0426,-3.5358,-3.4743,-3.337,-3.3151,-3.3714,-3.4393,-3.5065,-3.5667,-3.4271,-3.4423,-3.5537,-3.3541,-3.2598,-3.2344,-3.0279,0.0,-3.0461,-3.114,-3.2222,-3.3588,-3.4269,-3.4945,-3.56,-3.56,-3.525,-3.459,-3.4573,-3.4201,-3.3508,-3.3453,-3.2405,-3.0342,-2.7918,-2.6363,-2.578,-2.6389,-2.6778,-2.6913,-2.7576,-2.787,-2.7805,-2.6417,-2.567,-2.5678,-2.479,-2.3648,-2.2336,-2.2332,-2.1698,-2.0292,-1.8744,-1.7312,-1.5964,0.0,0.0,0.0,0.0,0.0,0.0,0.0,0.0,0.0,0.0,0.0,0.0,0.0,0.0,0.0,-1.2508,0.0,-1.3961,-1.5651,0.0,0.0,0.0,-1.9196,-1.9872,-2.1111,-2.2383,-2.355,0.0,0.0,-2.5615,0.0,-2.6701,-2.6701,-2.6153,-2.6198,-2.7345,-2.6986,-2.6911,-2.7415,-2.757,-2.7342,-2.6663,-2.6512,-2.6273,-2.559,-2.4936,-2.4538,-2.4366,-2.3738,-2.3275,-2.322,-2.3143,-2.307,-2.3083,-2.2581,-2.2221,-2.1669,-2.1493,-2.1443,-2.1368,-2.138,-2.1242,-3.6274,-3.6223,-3.6999,-3.6807,-3.6017,-3.6117,-3.6634,-3.7243,-3.632,-3.6143,-3.6491,-3.5966,-3.5086,-3.3897,-3.2848,-3.2763,-3.3457,-3.3647,-3.4201,-3.5059,-3.5245,-3.5414,-3.56,-3.5616,-3.5498,-3.5329,-3.5329,-3.4962,-3.4252,-3.4235,-3.3694,-3.2624,-3.1968,-3.0262,-2.7599,-2.8258,-2.8895,-2.9437,-3.0025,-3.0128,-2.9625,-2.7447,-2.6272,-2.6257,-2.4518,-2.3003,-2.1907,-2.2007,-2.1391,-1.9937,-1.9747,-1.8935,-1.7311,-1.5246,0.0,0.0,0.0,0.0,0.0,0.0,0.0,0.0,0.0,-1.4188,-1.1026,0.0,-1.4421,0.0,-1.3468,-1.4231,-1.586,-1.6428,0.0,0.0,-2.0094,-2.1246,-2.1924,-2.3146,-2.4036,-2.4321,-2.5382,-2.6183,-2.6348,-2.6956,-2.736,-2.736,-2.7225,-2.704,-2.6834,-2.7136,-2.742,-2.7555,-2.7585,-2.7534,-2.7357,-2.7357,-2.7045,-2.6377,-2.6068,-2.5783,-2.5231,-2.4509,-2.3989,-2.3972,-2.3514,-2.3155,-2.3095,-2.2982,-2.2882,-2.2694,-2.2083,-2.1481,-2.1481,-2.1506,-2.1455,-3.66,-3.6722,-3.8241,-3.8447,-3.7758,-3.8076,-3.8455,-3.8828,-3.8053,-3.7751,-3.776,-3.7432,-3.6806,-3.6011,-3.5588,-3.5639,-3.5977,-3.5656,-3.574,-3.6113,-3.5752,-3.5616,-3.5616,-3.5616,-3.5616,-3.5616,-3.5616,-3.5397,-3.5013,-3.4996,-3.4624,-3.3897,-3.3897,-3.2736,-3.0549,-3.0311,-3.0126,-2.9908,-3.023,-3.023,-2.9859,-2.769,-2.6361,-2.6019,-2.4357,-2.2758,-2.1306,-2.1654,-2.1203,-1.9789,-1.9927,-1.9442,-1.821,-1.6562,-1.5037,0.0,0.0,0.0,0.0,0.0,0.0,0.0,0.0,0.0,0.0,0.0,-1.5919,-1.5172,-1.5621,-1.6667,-1.8324,-1.925,-2.0105,-2.0966,-2.2458,-2.358,-2.3976,-2.4881,-2.5615,-2.5914,-2.6572,-2.7046,-2.7061,-2.736,-2.772,-2.8004,-2.8049,-2.7776,-2.7185,-2.7357,-2.7585,-2.7585,-2.7585,-2.7585,-2.7585,-2.7585,-2.7357,-2.6654,-2.6496,-2.6176,-2.5119,-2.4595,-2.4205,-2.3839,-2.3395,-2.3095,-2.3095,-2.3095,-2.3095,-2.302,-2.2631,-2.2272,-2.2209,-2.2221,-2.2171,-3.6661,-3.6873,-3.8298,-3.8962,-3.9096,-3.9808,-4.0113,-4.0037,-3.9319,-3.9049,-3.9089,-3.8362,-3.8058,-3.8041,-3.7939,-3.7898,-3.7872,-3.7229,-3.6948,-3.6914,-3.6129,-3.5735,-3.5735,-3.565,-3.5616,-3.5616,-3.5616,-3.5616,-3.5616,-3.5616,-3.5261,-3.4658,-3.4542,-3.4144,-3.3397,-3.2176,-3.0888,-2.9645,-2.9563,-2.9518,-2.948,-2.7602,-2.633,-2.5722,-2.4319,-2.2712,-2.1027,-2.1313,-2.0944,-1.9798,-1.9723,-1.942,-1.8837,-1.7564,-1.6532,0.0,-1.4663,0.0,0.0,0.0,0.0,0.0,0.0,0.0,0.0,-1.719,-1.7386,-1.7218,-1.8431,-1.9735,-2.0976,-2.2682,-2.355,-2.3182,-2.4642,-2.5734,-2.5749,-2.6318,-2.6956,-2.7525,-2.7585,-2.7615,-2.772,-2.7735,-2.7974,-2.8592,-2.8727,-2.8506,-2.7993,-2.7814,-2.7809,-2.7824,-2.7779,-2.7779,-2.763,-2.7585,-2.7382,-2.68,-2.6695,-2.6149,-2.4936,-2.4667,-2.4366,-2.3679,-2.3543,-2.3412,-2.3305,-2.3275,-2.3258,-2.3138,-2.3045,-2.302,-2.302,-2.3007,-2.2945,-3.6964,-3.7632,-3.8525,-3.9246,-3.9876,-4.0045,-4.0113,-4.0045,-3.9244,-3.9289,-3.9817,-3.9123,-3.8785,-3.8734,-3.8176,-3.7898,-3.7905,-3.777,-3.7686,-3.7669,-3.6907,-3.6569,-3.6541,-3.5904,-3.5616,-3.5616,-3.5616,-3.5616,-3.5616,-3.5616,-3.5532,-3.538,-3.4858,-3.422,-3.3462,0.0,0.0,0.0,-3.0393,-3.0123,-3.0053,-2.8179,-2.7105,-2.6893,-2.4502,0.0,-2.208,-2.1119,-2.0309,-1.9741,-1.9723,0.0,0.0,0.0,0.0,0.0,0.0,0.0,0.0,0.0,0.0,0.0,-1.9091,-1.9119,-1.7728,-1.951,-2.0557,-2.003,-2.1156,-2.2254,-2.2981,-2.3857,-2.459,-2.5046,-2.5869,-2.6393,-2.6437,-2.7016,-2.748,-2.757,-2.76,-2.7824,-2.8293,-2.8397,-2.8652,-2.9265,-2.9412,-2.9382,-2.9235,-2.8742,-2.8633,-2.9067,-2.8723,-2.8188,-2.769,-2.7615,-2.7594,-2.7423,-2.7397,-2.7049,-2.6229,-2.6,-2.5783,-2.5035,-2.4979,-2.4696,-2.4176,-2.406,-2.3796,-2.3258,-2.3125,-2.3095,-2.3095,-2.3095,-2.3083,-3.6859,0.0,-3.8048,-3.8816,0.0,-3.9516,-3.9714,-4.007,-3.9679,-3.9731,-4.0079,-3.9723,-3.9554,-3.9512,-3.914,-3.8988,-3.8971,-3.8599,-3.8447,-3.8396,-3.7686,-3.7347,-3.7313,-3.6569,-3.6197,-3.618,-3.5808,-3.5616,-3.5616,-3.5616,-3.543,-3.5098,-3.5098,-3.4735,-3.4032,-3.2994,-3.2021,-3.1207,-3.0898,-3.074,-3.067,-2.9157,-2.794,-2.7244,0.0,0.0,0.0,0.0,0.0,0.0,0.0,0.0,0.0,0.0,0.0,-1.9163,-1.8568,-1.8194,-1.824,-1.882,-1.9462,-2.0139,-2.1111,-2.1126,-1.9761,-2.0932,-2.1829,-2.2128,-2.2757,-2.3535,-2.4492,-2.5173,-2.5734,-2.6078,-2.6677,-2.7106,-2.7136,-2.739,-2.7585,-2.763,-2.7899,-2.8233,-2.8562,-2.8906,-2.934,-2.9951,-3.0043,-3.0163,-3.0387,-2.9699,-2.925,-2.9532,-2.9026,-2.8502,-2.8199,-2.8083,-2.7944,-2.7735,-2.7884,-2.7632,-2.6674,-2.6496,-2.6162,-2.5161,-2.4851,-2.4709,-2.4379,-2.4002,-2.3796,-2.4047,-2.3619,-2.3305,-2.3543,-2.3395,-2.3095,-3.6691,-3.6873,-3.7645,-3.8414,-3.9113,-3.9113,-3.9489,-4.0113,0.0,0.0,0.0,-4.0113,-4.0113,-4.0113,-4.0113,-4.0113,-4.0062,-3.9486,-3.9216,-3.9182,-3.843,-3.8108,-3.8058,-3.7218,-3.6812,-3.6761,-3.5977,-3.5616,-3.5616,-3.5616,-3.5322,-3.4854,-3.5224,-3.5054,-3.4376,-3.3024,-3.2006,-3.1404,-3.1162,-3.1112,-3.1173,-3.0059,-2.884,-2.7592,-2.6707,-2.5153,-2.2866,-2.3064,-2.2505,-2.0981,-2.0868,-2.0887,-2.0887,-2.0868,-2.1126,-2.1635,-2.1695,-2.1695,-2.1695,-2.1799,-2.1919,-2.2024,-2.2658,-2.2697,-2.1919,-2.2084,-2.2652,-2.3699,-2.3999,-2.4597,-2.5689,-2.6363,-2.6791,-2.6791,-2.727,-2.7585,-2.7585,-2.7585,-2.7645,-2.7794,-2.8248,-2.8712,-2.8981,-2.943,-2.9968,-3.0522,-3.0687,-3.0838,-3.1241,-3.0612,-2.9879,-2.9636,-2.928,-2.8966,-2.8801,-2.8771,-2.8532,-2.8184,-2.8483,-2.8281,-2.7241,-2.6862,-2.6319,-2.5338,-2.4889,-2.4908,-2.4696,-2.4179,-2.393,-2.4992,-2.4105,-2.3318,-2.3839,-2.356,-2.3125,-3.701,-3.769,-3.8442,-3.9209,-3.9927,-3.9927,-3.9978,-4.0113,-4.0113,-4.0113,-4.0113,-4.0113,-4.0113,-4.0113,-4.0113,-4.0113,-4.0113,-3.9994,-3.9943,0.0,-3.9174,-3.8836,-3.8768,-3.7455,-3.6812,-3.6745,-3.6011,-3.5616,-3.5616,-3.5616,-3.5538,-3.5385,-3.4965,-3.4391,-3.3606,-3.2318,-3.1821,-3.2117,-3.1016,-3.0679,-3.1173,-3.0386,-2.9666,-2.8883,-2.7114,-2.5532,-2.4171,-2.3142,-2.2229,-2.1599,-2.156,-2.156,-2.156,-2.156,-2.1605,-2.168,-2.1695,-2.1695,-2.171,-2.2254,-2.2793,-2.331,-2.3969,-2.3812,-2.2718,-2.3565,-2.4276,-2.45,-2.545,-2.6228,-2.6482,-2.7046,-2.7405,-2.7435,-2.754,-2.7585,-2.76,-2.763,-2.7839,-2.8338,-2.8532,-2.9086,-2.9953,-3.0283,-3.0612,-3.1167,-3.1241,-3.1376,-3.1421,-3.1361,-3.0748,-2.9968,-2.9983,-2.9968,-2.9606,-2.9445,-2.9382,-2.9352,-2.9352,-2.9136,-2.8142,-2.8064,-2.7786,-2.7109,-2.6771,-2.6657,-2.6188,-2.5577,-2.5007,-2.4766,-2.3872,-2.3305,-2.3454,-2.3245,-2.3095,-3.7703,-3.8414,-3.8772,-3.9368,-4.0113,-4.0113,-4.0113,-4.0113,-4.0113,-4.0113,-4.0113,-4.0113,-4.0113,-4.0113,-4.0113,-4.0113,-4.0113,-4.0113,-4.0113,-4.0079,-3.9757,-3.9588,-3.9503,-3.8464,-3.7794,-3.7364,-3.662,-3.6028,-3.5633,-3.5616,-3.5407,-3.5075,-3.4736,-3.4594,-3.4558,-3.3303,-3.2733,-3.284,-3.0853,-3.0102,-3.0679,-3.0042,-2.941,-2.8735,-2.8046,-2.7004,-2.5431,-2.4823,-2.3947,-2.2668,-2.2365,-2.2254,-2.2254,-2.2239,-2.2368,-2.2697,-2.2727,-2.2727,-2.2748,-2.2996,-2.346,-2.4066,-2.4425,-2.453,-2.4298,-2.4784,-2.53,-2.5659,-2.6273,-2.6776,-2.7106,-2.742,-2.7585,-2.7585,-2.7585,-2.7585,-2.7645,-2.7959,-2.8248,-2.8607,-2.9235,-2.9864,-3.0417,-3.0836,-3.1107,-3.1466,-3.1496,-3.1496,-3.1496,-3.1496,-3.1316,-3.0748,-3.0567,-3.0387,-3.0133,-3.0088,-2.9953,-2.9654,-2.9864,-2.962,-2.8773,-2.8568,-2.8131,-2.7202,-2.7001,-2.6881,-2.6522,-2.5906,-2.5495,-2.5508,-2.4509,-2.3884,-2.3708,-2.3454,-2.3138,-3.8532,-3.8908,-3.9113,-3.9542,-4.0096,-4.0113,-4.0113,-4.0113,-4.0113,-4.0113,-4.0113,-4.0113,-4.0113,-4.0113,-4.0113,-4.0113,-4.0113,-4.0113,-4.0113,-4.0113,-4.0113,-4.0113,-4.0028,-3.9343,-3.8616,-3.7889,-3.7168,-3.6383,-3.5684,-3.5616,-3.5339,-3.4854,-3.483,-3.5081,-3.556,-3.4272,-3.3556,-3.3267,-3.0903,-2.9857,-3.0267,-2.9848,-2.9201,-2.8424,-2.8757,-2.8216,-2.6629,-2.6349,-2.5544,-2.3984,-2.3376,-2.3043,-2.2912,-2.2897,-2.3122,-2.3535,-2.3595,-2.367,-2.3819,-2.3834,-2.4133,-2.4769,-2.4963,-2.5262,-2.5749,-2.5974,-2.6168,-2.6527,-2.6722,-2.7061,-2.7465,-2.7585,-2.7585,-2.7585,-2.7585,-2.7585,-2.766,-2.8173,-2.8682,-2.8891,-2.9819,-3.0522,-3.0776,-3.1167,-3.1466,-3.1481,-3.1496,-3.1496,-3.1496,-3.1496,-3.1496,-3.1406,-3.1032,-3.0776,-3.0731,-3.0746,-3.0567,-3.0073,-3.0417,-3.03,-2.957,-2.9134,-2.8524,-2.7588,-2.7018,-2.6896,-2.6747,-2.6176,-2.596,-2.6149,-2.537,-2.4523,-2.4234,-2.3826,-2.3305,-3.949,-3.9038,-3.9679,-4.002,-4.0113,-4.0113,-4.0113,-4.0113,-4.0113,-4.0113,-4.0113,-4.0113,-4.0113,-4.0113,-4.0113,-4.0113,-4.0113,-4.0113,-4.0113,-4.0113,-4.0113,-4.0113,-4.0045,-3.9343,-3.8599,-3.7889,-3.7161,-3.6434,-3.5633,-3.5616,-3.556,-3.5515,-3.5492,-3.5515,-3.5431,-3.4312,-3.3539,-3.3364,-3.1416,-3.0348,-3.03,-3.0267,-2.9679,-2.8537,-2.8443,-2.809,-2.7411,-2.6651,-2.5944,-2.5321,-2.4601,-2.4003,-2.3606,-2.3505,-2.355,-2.364,-2.364,-2.3842,-2.4425,-2.4515,-2.4799,-2.548,-2.6033,-2.6378,-2.6527,-2.7061,-2.7165,-2.6866,-2.7165,-2.7495,-2.7585,-2.7585,-2.7585,-2.7585,-2.7585,-2.7585,-2.772,-2.8173,-2.8831,-2.9457,-3.0133,-3.0731,-3.1227,-3.1436,-3.1481,-3.1496,-3.1496,-3.1496,-3.1496,-3.1496,-3.1496,-3.1496,-3.1391,-3.1376,-3.1346,-3.1391,-3.1256,-3.1212,-3.1316,-3.1137,-3.0718,-3.0073,-2.9361,-2.8824,-2.8241,-2.7635,-2.7354,-2.693,-2.65,-2.6351,-2.581,-2.5077,-2.4509,-2.425,-2.3959,-4.0165,-4.023,-4.0138,-4.0113,-4.0113,-4.0113,-4.0113,-4.0113,-4.0113,-4.0113,-4.0113,-4.0113,-4.0113,-4.0113,-4.0113,-4.0113,-4.0113,-4.0113,-4.0113,-4.0113,-4.0113,-4.0113,-4.0062,-3.9808,-3.9056,-3.7973,-3.7584,-3.6806,-3.5785,-3.5616,-3.5616,-3.5616,-3.5616,-3.5616,-3.556,-3.5059,-3.4538,-3.4027,-3.2844,-3.1813,-3.0968,-3.0169,-2.954,-2.9141,-2.9317,-2.9161,-2.8528,-2.7843,-2.7195,-2.653,-2.529,-2.4601,-2.4784,-2.441,-2.4365,-2.4732,-2.4792,-2.4889,-2.5173,-2.5173,-2.5495,-2.6138,-2.6422,-2.6737,-2.7165,-2.745,-2.7465,-2.73,-2.745,-2.7585,-2.7585,-2.7585,-2.7585,-2.7585,-2.7585,-2.7735,-2.8184,-2.8798,-2.943,-3.0058,-3.0702,-3.1152,-3.1421,-3.1496,-3.1496,-3.1496,-3.1496,-3.1496,-3.1496,-3.1496,-3.1496,-3.1496,-3.1496,-3.1496,-3.1496,-3.1496,-3.1496,-3.1496,-3.1496,-3.1436,-3.0928,-3.0627,-3.0028,-2.9684,-2.9097,-2.8543,-2.8222,-2.7962,-2.7589,-2.69,-2.5946,-2.5287,-2.5007,-2.4951,-2.461,-4.0756,-4.0806,-4.0316,-4.0113,-4.0113,-4.0113,-4.0113,-4.0113,-4.0113,-4.0113,-4.0113,-4.0113,-4.0113,-4.0113,-4.0113,-4.0113,-4.0113,-4.0113,-4.0113,-4.0113,-4.0113,-4.0113,-4.0113,-4.0096,-3.9453,-3.8345,-3.799,-3.711,-3.5769,-3.5616,-3.5616,-3.5616,-3.5616,-3.5616,-3.5616,-3.5616,-3.5228,-3.4506,-3.3778,-3.2828,-3.166,-3.0505,-2.9739,-2.9496,-2.9827,-2.9861,-2.9515,-2.8942,-2.8307,-2.7603,-2.6144,-2.5394,-2.5563,-2.5128,-2.5083,-2.554,-2.56,-2.5704,-2.5854,-2.5884,-2.6153,-2.6767,-2.6881,-2.7091,-2.748,-2.7585,-2.7585,-2.757,-2.7585,-2.7585,-2.7585,-2.7585,-2.7585,-2.7585,-2.7585,-2.7884,-2.8517,-2.9175,-2.9804,-3.0432,-3.1046,-3.1496,-3.1496,-3.1496,-3.1496,-3.1496,-3.1496,-3.1496,-3.1496,-3.1496,-3.1496,-3.1496,-3.1496,-3.1496,-3.1496,-3.1496,-3.1496,-3.1496,-3.1496,-3.1346,-3.0793,-3.0702,-3.0462,-3.0043,-2.9774,-2.9325,-2.8637,-2.8435,-2.8234,-2.7179,-2.6363,-2.5892,-2.5742,-2.5715,-2.537,-4.1407,-4.0223,-4.0113,-4.0113,-4.0113,-4.0113,-4.0113,-4.0113,-4.0113,-4.0113,-4.0113,-4.0113,-4.0113,-4.0113,-4.0113,-4.0113,-4.0113,-4.0113,-4.0113,-4.0113,-4.0113,-4.0113,-4.0113,-4.0096,-3.969,-3.8836,-3.8278,-3.7172,-3.5735,-3.5616,-3.5616,-3.5616,-3.5616,-3.5616,-3.5616,-3.5616,-3.5267,-3.459,-3.3863,-3.3047,-3.2283,-3.1516,-3.0568,-2.9645,-2.9473,-2.9794,-3.0103,-2.9547,-2.8906,-2.8378,-2.7508,-2.6676,-2.577,-2.5606,-2.5644,-2.5689,-2.5674,-2.5929,-2.6452,-2.6566,-2.6811,-2.739,-2.7465,-2.754,-2.757,-2.7585,-2.7585,-2.7585,-2.7585,-2.7585,-2.766,-2.763,-2.763,-2.766,-2.763,-2.7974,-2.8592,-2.931,-2.9861,-3.0477,-3.1107,-3.1466,-3.1496,-3.1496,-3.1496,-3.1496,-3.1496,-3.1496,-3.1496,-3.1496,-3.1496,-3.1496,-3.1496,-3.1496,-3.1496,-3.1496,-3.1496,-3.1496,-3.1496,-3.1481,-3.1256,-3.1031,-3.0702,-3.0417,-3.0133,-2.9654,-2.8921,-2.8442,-2.8188,-2.7665,-2.7376,-2.7034,-2.6522,-2.6469,-2.6149,-4.145,-4.013,-4.0113,-4.0113,-4.0113,-4.0113,-4.0113,-4.0113,-4.0113,-4.0113,-4.0113,-4.0113,-4.0113,-4.0113,-4.0113,-4.0113,-4.0113,-4.0113,-4.0113,-4.0113,-4.0113,-4.0113,-4.0113,-4.0096,-3.9723,-3.9039,-3.8717,-3.7838,-3.6451,-3.5853,-3.5616,-3.5616,-3.5616,-3.5616,-3.5616,-3.5616,-3.5447,-3.5143,-3.4472,-3.3744,-3.2983,-3.2293,-3.1446,-3.063,-3.0555,-3.0642,-3.0858,-3.0232,-2.9646,-2.905,-2.8028,-2.728,-2.6943,-2.6896,-2.6881,-2.6896,-2.6881,-2.6976,-2.721,-2.724,-2.733,-2.754,-2.7585,-2.7585,-2.7585,-2.7585,-2.7585,-2.76,-2.76,-2.775,-2.8079,-2.7869,-2.7779,-2.8143,-2.8248,-2.8652,-2.9549,-3.0043,-3.0417,-3.0987,-3.1391,-3.1481,-3.1496,-3.1496,-3.1496,-3.1496,-3.1496,-3.1496,-3.1496,-3.1496,-3.1496,-3.1496,-3.1496,-3.1496,-3.1496,-3.1496,-3.1496,-3.1496,-3.1496,-3.1496,-3.1346,-3.1316,-3.1062,-3.1002,-3.0702,-3.0193,-2.9505,-2.8438,-2.8154,-2.7809,-2.7585,-2.7484,-2.724,-2.706,-2.6733,-4.1247,-4.0197,-4.0113,-4.0113,-4.0113,-4.0113,-4.0113,-4.0113,-4.0113,-4.0113,-4.0113,-4.0113,-4.0113,-4.0113,-4.0113,-4.0113,-4.0113,-4.0113,-4.0113,-4.0113,-4.0113,-4.0113,-4.0113,-4.0113,-3.9859,-3.9385,-3.9089,-3.8251,-3.6914,-3.6248,-3.5876,-3.5616,-3.5616,-3.5616,-3.5616,-3.5616,-3.5616,-3.5481,-3.4878,-3.4134,-3.3406,-3.2662,-3.1938,-3.1309,-3.119,-3.119,-3.119,-3.0801,-3.033,-2.9658,-2.886,-2.8348,-2.8194,-2.7993,-2.791,-2.7885,-2.7695,-2.7585,-2.7585,-2.7585,-2.7585,-2.7585,-2.7585,-2.7585,-2.7585,-2.7585,-2.7585,-2.7615,-2.7839,-2.8169,-2.8427,-2.8393,-2.8438,-2.8831,-2.8921,-2.934,-3.0328,-3.0477,-3.0821,-3.1301,-3.1481,-3.1496,-3.1496,-3.1496,-3.1496,-3.1496,-3.1496,-3.1496,-3.1496,-3.1496,-3.1496,-3.1496,-3.1496,-3.1496,-3.1496,-3.1496,-3.1496,-3.1496,-3.1496,-3.1496,-3.1496,-3.1496,-3.1496,-3.1496,-3.1212,-3.0718,-2.9879,-2.8723,-2.8109,-2.775,-2.7585,-2.7534,-2.7484,-2.7534,-2.7292,-4.0781,-4.0146,-4.0113,-4.0113,-4.0113,-4.0113,-4.0113,-4.0113,-4.0113,-4.0113,-4.0113,-4.0113,-4.0113,-4.0113,-4.0113,-4.0113,-4.0113,-4.0113,-4.0113,-4.0113,-4.0113,-4.0113,-4.0113,-4.0113,-4.0096,-3.996,-3.9309,-3.8244,-3.6941,-3.6745,-3.6332,-3.5718,-3.5616,-3.5616,-3.5616,-3.5616,-3.5616,-3.5464,-3.4945,-3.4218,-3.344,-3.2784,-3.2073,-3.136,-3.1224,-3.119,-3.119,-3.1171,-3.0858,-3.0314,-3.0197,-2.9962,-2.9293,-2.8803,-2.8487,-2.8343,-2.7944,-2.7635,-2.7585,-2.7585,-2.7585,-2.7585,-2.7585,-2.7585,-2.7585,-2.7585,-2.763,-2.7794,-2.8173,-2.8607,-2.8786,-2.919,-2.9532,-2.9606,-2.9606,-2.9879,-3.0387,-3.0552,-3.0776,-3.1346,-3.1496,-3.1496,-3.1496,-3.1496,-3.1496,-3.1496,-3.1496,-3.1496,-3.1496,-3.1496,-3.1496,-3.1496,-3.1496,-3.1496,-3.1496,-3.1496,-3.1496,-3.1496,-3.1496,-3.1496,-3.1496,-3.1496,-3.1496,-3.1481,-3.1227,-3.0733,-3.0208,-2.9142,-2.8603,-2.8244,-2.7989,-2.7914,-2.8064,-2.8184,-2.8019,-4.0764,-4.013,-4.0113,-4.0113,-4.0113,-4.0113,-4.0113,-4.0113,-4.0113,-4.0113,-4.0113,-4.0113,-4.0113,-4.0113,-4.0113,-4.0113,-4.0113,-4.0113,-4.0113,-4.0113,-4.0113,-4.0113,-4.0113,-4.0113,-4.0113,-3.9977,-3.9326,-3.8514,-3.7618,-3.7049,-3.6383,-3.5752,-3.5616,-3.5616,-3.5616,-3.5616,-3.5616,-3.5583,-3.538,-3.489,-3.415,-3.3423,-3.2696,-3.2005,-3.1481,-3.119,-3.119,-3.119,-3.0915,-3.0335,-3.0293,-3.0038,-2.9496,-2.9225,-2.8927,-2.8535,-2.8359,-2.7993,-2.765,-2.7585,-2.7585,-2.7585,-2.7585,-2.7585,-2.7585,-2.7585,-2.7809,-2.8169,-2.8502,-2.8876,-2.9729,-3.0058,-3.0193,-3.0208,-3.0223,-3.0477,-3.0987,-3.1152,-3.1271,-3.1436,-3.1496,-3.1496,-3.1496,-3.1496,-3.1496,-3.1496,-3.1496,-3.1496,-3.1496,-3.1496,-3.1496,-3.1496,-3.1496,-3.1496,-3.1496,-3.1496,-3.1496,-3.1496,-3.1496,-3.1496,-3.1496,-3.1496,-3.1496,-3.1421,-3.1152,-3.0778,-3.0253,-2.9771,-2.9217,-2.9022,-2.8948,-2.8933,-2.8978,-2.8858,-2.8663,-4.1001,-4.013,-4.0113,-4.0113,-4.0113,-4.0113,-4.0113,-4.0113,-4.0113,-4.0113,-4.0113,-4.0113,-4.0113,-4.0113,-4.0113,-4.0113,-4.0113,-4.0113,-4.0113,-4.0113,-4.0113,-4.0113,-4.0113,-4.0113,-4.0113,-4.0045,-3.9614,-3.887,-3.7922,-3.7432,-3.6671,-3.5769,-3.5616,-3.5616,-3.5616,-3.5616,-3.5616,-3.5616,-3.56,-3.5245,-3.4573,-3.4032,-3.3322,-3.2412,-3.1853,-3.1478,-3.1241,-3.119,-3.1018,-3.0699,-3.0621,-3.0435,-3.0102,-2.987,-2.9473,-2.8943,-2.8583,-2.8238,-2.7685,-2.7585,-2.7585,-2.7585,-2.7585,-2.7585,-2.7585,-2.7585,-2.7839,-2.8113,-2.8472,-2.9026,-2.9924,-3.0402,-3.0582,-3.0853,-3.0896,-3.1047,-3.1436,-3.1496,-3.1496,-3.1496,-3.1496,-3.1496,-3.1496,-3.1496,-3.1496,-3.1496,-3.1496,-3.1496,-3.1496,-3.1496,-3.1496,-3.1496,-3.1496,-3.1496,-3.1496,-3.1496,-3.1496,-3.1496,-3.1496,-3.1496,-3.1496,-3.1496,-3.1496,-3.1466,-3.1286,-3.0957,-3.0477,-3.0208,-2.9819,-2.9834,-2.9714,-2.9487,-2.9322,-2.9397,-2.9262,-4.1373,-4.018,-4.0113,-4.0113,-4.0113,-4.0113,-4.0113,-4.0113,-4.0113,-4.0113,-4.0113,-4.0113,-4.0113,-4.0113,-4.0113,-4.0113,-4.0113,-4.0113,-4.0113,-4.0113,-4.0113,-4.0113,-4.0113,-4.0113,-4.0113,-4.0096,-4.0045,-3.9242,-3.7956,-3.7821,-3.7104,-3.5752,-3.5616,-3.5616,-3.5616,-3.5616,-3.5616,-3.5616,-3.5616,-3.5245,-3.4641,-3.4472,-3.3812,-3.2496,-3.2276,-3.1904,-3.1292,-3.119,-3.119,-3.1171,-3.1095,-3.1075,-3.1035,-3.0638,-3.0064,-2.9496,-2.8904,-2.8391,-2.7845,-2.787,-2.7795,-2.776,-2.782,-2.771,-2.787,-2.786,-2.7876,-2.8037,-2.846,-2.9011,-2.9699,-3.0298,-3.0866,-3.1346,-3.1376,-3.1436,-3.1481,-3.1496,-3.1496,-3.1496,-3.1496,-3.1496,-3.1496,-3.1496,-3.1496,-3.1496,-3.1496,-3.1496,-3.1496,-3.1496,-3.1496,-3.1496,-3.1496,-3.1496,-3.1496,-3.1496,-3.1496,-3.1496,-3.1496,-3.1496,-3.1496,-3.1496,-3.1496,-3.1466,-3.1391,-3.1077,-3.0853,-3.0644,-3.0447,-3.0298,-3.0073,-2.9744,-2.9789,-3.0013,-3.0043,-4.0933,-4.013,-4.0113,-4.0113,-4.0113,-4.0113,-4.0113,-4.0113,-4.0113,-4.0113,-4.0113,-4.0113,-4.0113,-4.0113,-4.0113,-4.0113,-4.0113,-4.0113,-4.0113,-4.0113,-4.0113,-4.0113,-4.0113,-4.0113,-4.0113,-4.0113,-4.0062,-3.9351,-3.8007,-3.7898,-3.711,-3.5667,-3.5616,-3.5616,-3.5616,-3.5616,-3.5616,-3.5616,-3.5616,-3.5532,-3.5245,-3.4759,-3.4066,-3.3203,-3.2615,-3.1972,-3.1292,-3.119,-3.119,-3.119,-3.119,-3.119,-3.1171,-3.1015,-3.0621,-3.0102,-2.9848,-2.9316,-2.8591,-2.8638,-2.8685,-2.8367,-2.8591,-2.8927,-2.8904,-2.8496,-2.8565,-2.8878,-2.9247,-2.9589,-3.0205,-3.0878,-3.1329,-3.1436,-3.1625,-3.1567,-3.1496,-3.1496,-3.1496,-3.1496,-3.1496,-3.1496,-3.1496,-3.1496,-3.1496,-3.1496,-3.1496,-3.1496,-3.1496,-3.1496,-3.1496,-3.1496,-3.1496,-3.1496,-3.1496,-3.1496,-3.1496,-3.1496,-3.1496,-3.1496,-3.1496,-3.1496,-3.1496,-3.1481,-3.1481,-3.1241,-3.1286,-3.1227,-3.1002,-3.0746,-3.0806,-3.0702,-3.0868,-3.1062,-3.0987,-4.0764,-4.0113,-4.0113,-4.0113,-4.0113,-4.0113,-4.0113,-4.0113,-4.0113,-4.0113,-4.0113,-4.0113,-4.0113,-4.0113,-4.0113,-4.0113,-4.0113,-4.0113,-4.0113,-4.0113,-4.0113,-4.0113,-4.0113,-4.0113,-4.0113,-4.0113,-4.0113,-3.9259,-3.8142,-3.7898,-3.7036,-3.587,-3.5616,-3.5616,-3.5616,-3.5616,-3.5616,-3.5616,-3.5616,-3.5616,-3.5549,-3.5216,-3.4387,-3.3609,-3.2916,-3.2324,-3.1376,-3.119,-3.119,-3.119,-3.119,-3.119,-3.119,-3.119,-3.0918,-3.0372,-3.0293,-2.9865,-2.918,-2.9241,-2.9241,-2.9012,-2.9264,-2.9361,-2.9316,-2.9058,-2.9108,-2.9335,-2.9745,-3.0284,-3.0942,-3.1778,-3.2302,-3.2446,-3.2379,-3.2145,-3.1611,-3.1496,-3.1496,-3.1496,-3.1496,-3.1496,-3.1496,-3.1496,-3.1496,-3.1496,-3.1496,-3.1496,-3.1496,-3.1496,-3.1496,-3.1496,-3.1496,-3.1496,-3.1496,-3.1496,-3.1496,-3.1496,-3.1496,-3.1496,-3.1496,-3.1496,-3.1496,-3.1496,-3.1496,-3.1496,-3.1496,-3.1496,-3.1376,-3.1256,-3.1481,-3.1496,-3.1496,-3.1496,-3.1496,-4.0696,-4.0113,-4.0113,-4.0113,-4.0113,-4.0113,-4.0113,-4.0113,-4.0113,-4.0113,-4.0113,-4.0113,-4.0113,-4.0113,-4.0113,-4.0113,-4.0113,-4.0113,-4.0113,-4.0113,-4.0113,-4.0113,-4.0113,-4.0113,-4.0113,-4.0113,-4.0113,-3.9225,-3.8244,-3.7898,-3.7036,-3.5955,-3.5616,-3.5616,-3.5616,-3.5616,-3.5616,-3.5616,-3.5616,-3.5616,-3.5616,-3.5464,-3.4754,-3.3541,-3.2933,-3.2307,-3.1478,-3.119,-3.119,-3.119,-3.119,-3.119,-3.119,-3.119,-3.0958,-3.0597,-3.0456,-3.0187,-2.9651,-2.9629,-2.9607,-2.9563,-2.9585,-2.9601,-2.9695,-2.9607,-2.9592,-2.9871,-3.0227,-3.0967,-3.181,-3.2898,-3.3316,-3.3349,-3.3469,-3.2917,-3.1992,-3.1611,-3.1582,-3.1496,-3.1496,-3.1496,-3.1496,-3.1496,-3.1496,-3.1496,-3.1496,-3.1496,-3.1496,-3.1496,-3.1496,-3.1496,-3.1496,-3.1496,-3.1496,-3.1496,-3.1496,-3.1496,-3.1496,-3.1496,-3.1496,-3.1496,-3.1496,-3.1496,-3.1496,-3.1496,-3.1496,-3.1496,-3.1496,-3.1496,-3.1496,-3.1496,-3.1496,-3.1496,-3.1496,-4.0265,-4.0113,-4.0113,-4.0113,-4.0113,-4.0113,-4.0113,-4.0113,-4.0113,-4.0113,-4.0113,-4.0113,-4.0113,-4.0113,-4.0113,-4.0113,-4.0113,-4.0113,-4.0113,-4.0113,-4.0113,-4.0113,-4.0113,-4.0113,-4.0113,-4.0113,-4.0113,-3.9317,-3.8244,-3.7787,-3.7127,-3.5802,-3.5616,-3.5616,-3.5616,-3.5616,-3.5616,-3.5616,-3.5616,-3.5616,-3.5616,-3.5566,-3.489,-3.3491,-3.2391,-3.1647,-3.1326,-3.119,-3.119,-3.119,-3.119,-3.119,-3.119,-3.119,-3.1095,-3.0998,-3.0938,-3.0736,-3.033,-3.0435,-3.0597,-3.0187,-3.0456,-3.0801,-3.076,-3.0347,-3.0461,-3.0811,-3.1195,-3.1935,-3.2988,-3.3393,-3.3719,-3.3786,-3.371,-3.3365,-3.2586,-3.2355,-3.2076,-3.1653,-3.1496,-3.1496,-3.1496,-3.1496,-3.1496,-3.1496,-3.1496,-3.1496,-3.1496,-3.1496,-3.1496,-3.1496,-3.1496,-3.1496,-3.1496,-3.1496,-3.1496,-3.1496,-3.1496,-3.1496,-3.1496,-3.1496,-3.1496,-3.1496,-3.1496,-3.1496,-3.1496,-3.1496,-3.1496,-3.1496,-3.1496,-3.1496,-3.1496,-3.1496,-3.1481,-4.0113,-4.0113,-4.0113,-4.0113,-4.0113,-4.0113,-4.0113,-4.0113,-4.0113,-4.0113,-4.0113,-4.0113,-4.0113,-4.0113,-4.0113,-4.0113,-4.0113,-4.0113,-4.0113,-4.0113,-4.0113,-4.0113,-4.0113,-4.0113,-4.0113,-4.0113,-4.0113,-3.9283,-3.8261,-3.7763,-3.7104,-3.5735,-3.5616,-3.5616,-3.5616,-3.5616,-3.5616,-3.5616,-3.5616,-3.5616,-3.5616,-3.5583,-3.489,-3.3558,-3.2307,-3.1579,-3.1224,-3.119,-3.119,-3.119,-3.119,-3.119,-3.119,-3.119,-3.119,-3.119,-3.119,-3.1092,-3.0915,-3.0975,-3.1035,-3.074,-3.1035,-3.1131,-3.1289,-3.1146,-3.1412,-3.1883,-3.252,-3.3383,-3.4372,-3.456,-3.4536,-3.4536,-3.4536,-3.4128,-3.3303,-3.2803,-3.2327,-3.171,-3.1496,-3.1496,-3.1496,-3.1496,-3.1496,-3.1496,-3.1496,-3.1496,-3.1496,-3.1496,-3.1496,-3.1496,-3.1496,-3.1496,-3.1496,-3.1496,-3.1496,-3.1496,-3.1496,-3.1496,-3.1496,-3.1496,-3.1496,-3.1496,-3.1496,-3.1496,-3.1496,-3.1496,-3.1496,-3.1496,-3.1496,-3.1496,-3.1481,-3.1466,-3.1466,-4.0113,-4.0113,-4.0113,-4.0113,-4.0113,-4.0113,-4.0113,-4.0113,-4.0113,-4.0113,-4.0113,-4.0113,-4.0113,-4.0113,-4.0113,-4.0113,-4.0113,-4.0113,-4.0113,-4.0113,-4.0113,-4.0113,-4.0113,-4.0113,-4.0113,-4.0113,-4.0113,-3.9259,-3.8261,-3.778,-3.7094,-3.5853,-3.5616,-3.5616,-3.5616,-3.5616,-3.5616,-3.5616,-3.5616,-3.5616,-3.5616,-3.5583,-3.4873,-3.3812,-3.2899,-3.2141,-3.163,-3.1444,-3.1343,-3.1207,-3.119,-3.119,-3.119,-3.119,-3.119,-3.119,-3.119,-3.1151,-3.1112,-3.1171,-3.1171,-3.119,-3.119,-3.119,-3.1309,-3.1762,-3.2178,-3.2857,-3.3578,-3.4701,-3.5515,-3.5424,-3.5487,-3.5532,-3.5554,-3.5005,-3.4012,-3.3209,-3.2691,-3.1682,-3.1496,-3.1496,-3.1496,-3.1496,-3.1496,-3.1496,-3.1524,-3.1496,-3.1496,-3.1496,-3.1496,-3.1496,-3.1496,-3.1496,-3.1496,-3.1496,-3.1496,-3.1496,-3.1496,-3.1496,-3.1496,-3.1496,-3.1496,-3.1496,-3.1496,-3.1496,-3.1496,-3.1496,-3.1496,-3.1496,-3.1496,-3.1496,-3.1466,-3.1421,-3.1376,-4.0113,-4.0113,-4.0113,-4.0113,-4.0113,-4.0113,-4.0113,-4.0113,-4.0113,-4.0113,-4.0113,-4.0113,-4.0113,-4.0113,-4.0113,-4.0113,-4.0113,-4.0113,-4.0113,-4.0113,-4.0113,-4.0113,-4.0113,-4.0113,-4.0113,-4.0113,-4.0045,-3.9334,-3.8227,-3.7797,-3.706,-3.5921,-3.5616,-3.5616,-3.5616,-3.5616,-3.5616,-3.5616,-3.5616,-3.5616,-3.5616,-3.5549,-3.5199,-3.4235,-3.3541,-3.2865,-3.2293,-3.2073,-3.1853,-3.1292,-3.1207,-3.119,-3.119,-3.119,-3.119,-3.119,-3.119,-3.119,-3.119,-3.119,-3.119,-3.119,-3.119,-3.119,-3.136,-3.1904,-3.251,-3.344,-3.4421,-3.5447,-3.5583,-3.5616,-3.5616,-3.5616,-3.5554,-3.527,-3.4592,-3.4112,-3.3401,-3.2117,-3.1752,-3.1653,-3.1866,-3.1908,-3.1894,-3.1866,-3.1768,-3.1625,-3.1496,-3.1496,-3.1496,-3.1496,-3.1496,-3.1496,-3.1496,-3.1496,-3.1496,-3.1496,-3.1496,-3.1496,-3.1496,-3.1496,-3.1496,-3.1496,-3.1496,-3.1496,-3.1496,-3.1496,-3.1496,-3.1496,-3.1496,-3.1466,-3.1241,-3.1032,-3.0972,-4.0113,-4.0113,-4.0113,-4.0113,-4.0113,-4.0113,-4.0113,-4.0113,-4.0113,-4.0113,-4.0113,-4.0113,-4.0113,-4.0113,-4.0113,-4.0113,-4.0113,-4.0113,-4.0113,-4.0113,-4.0113,-4.0113,-4.0113,-4.0113,-4.0113,-4.0113,-4.0028,-3.9334,-3.8041,-3.7898,-3.7019,-3.5955,-3.5616,-3.5616,-3.5616,-3.5616,-3.5616,-3.5616,-3.5616,-3.5616,-3.5616,-3.56,-3.5216,-3.459,-3.4167,-3.3609,-3.2949,-3.2412,-3.2158,-3.1785,-3.141,-3.1241,-3.119,-3.119,-3.119,-3.119,-3.119,-3.119,-3.119,-3.119,-3.119,-3.119,-3.119,-3.119,-3.1376,-3.1921,-3.278,-3.3897,-3.481,-3.5616,-3.5616,-3.5583,-3.5616,-3.5616,-3.56,-3.5293,-3.4847,-3.4664,-3.382,-3.281,-3.2783,-3.2783,-3.2703,-3.2664,-3.2434,-3.2272,-3.2048,-3.1824,-3.1553,-3.1496,-3.1496,-3.1496,-3.1496,-3.1496,-3.1496,-3.1496,-3.1496,-3.1496,-3.1496,-3.1496,-3.1496,-3.1496,-3.1496,-3.1496,-3.1496,-3.1496,-3.1496,-3.1496,-3.1496,-3.1421,-3.1182,-3.0972,-3.0821,-3.0672,-3.0522,-4.0113,-4.0113,-4.0113,-4.0113,-4.0113,-4.0113,-4.0113,-4.0113,-4.0113,-4.0113,-4.0113,-4.0113,-4.0113,-4.0113,-4.0113,-4.0113,-4.0113,-4.0113,-4.0113,-4.0113,-4.0113,-4.0113,-4.0113,-4.0113,-4.0096,-4.0079,-3.9808,-3.9191,-3.8159,-3.7898,-3.7003,-3.6005,-3.5616,-3.5616,-3.5616,-3.5616,-3.5616,-3.5616,-3.5616,-3.5616,-3.5616,-3.5566,-3.5346,-3.481,-3.4726,-3.437,-3.3643,-3.3186,-3.2649,-3.2226,-3.1785,-3.1396,-3.1224,-3.119,-3.119,-3.119,-3.119,-3.119,-3.119,-3.119,-3.119,-3.119,-3.119,-3.119,-3.1461,-3.2104,-3.3152,-3.4455,-3.4979,-3.5447,-3.5515,-3.5453,-3.5464,-3.5616,-3.5577,-3.543,-3.5075,-3.4871,-3.4776,-3.4186,-3.4037,-3.3735,-3.3479,-3.3209,-3.2933,-3.2504,-3.2299,-3.1938,-3.1697,-3.1524,-3.1496,-3.1496,-3.1496,-3.1496,-3.1496,-3.1496,-3.1496,-3.1496,-3.1496,-3.1496,-3.1496,-3.1496,-3.1496,-3.1524,-3.1496,-3.1496,-3.1496,-3.1436,-3.1331,-3.1137,-3.0791,-3.0492,-3.0298,-2.9953,-2.9684,-4.0113,-4.0113,-4.0113,-4.0113,-4.0113,-4.0113,-4.0113,-4.0113,-4.0113,-4.0113,-4.0113,-4.0113,-4.0113,-4.0113,-4.0113,-4.0113,-4.0113,-4.0113,-4.0113,-4.0113,-4.0113,-4.0113,-4.0113,-4.0113,-4.0113,-3.9994,-3.9486,-3.87,-3.8024,-3.7872,-3.707,-3.5887,-3.5616,-3.5616,-3.5616,-3.5616,-3.5616,-3.5616,-3.5616,-3.5616,-3.5616,-3.5616,-3.5532,-3.5447,-3.5346,-3.5081,-3.4438,-3.4049,-3.358,-3.2446,-3.2242,-3.1836,-3.1362,-3.119,-3.119,-3.119,-3.119,-3.119,-3.119,-3.119,-3.119,-3.119,-3.119,-3.119,-3.1512,-3.2527,-3.3829,-3.5245,-3.5042,-3.4962,-3.5228,-3.4996,-3.5081,-3.5346,-3.56,-3.5577,-3.5402,-3.5207,-3.5091,-3.5115,-3.484,-3.4325,-3.3937,-3.3675,-3.3365,-3.2922,-3.2504,-3.2176,-3.191,-3.1796,-3.1739,-3.1796,-3.2048,-3.2061,-3.2117,-3.202,-3.1936,-3.1809,-3.1809,-3.1781,-3.1739,-3.1768,-3.1553,-3.1553,-3.1524,-3.1496,-3.1496,-3.1391,-3.1182,-3.0853,-3.0507,-3.0133,-2.9786,-2.9382,-2.8891,-4.0113,-4.0113,-4.0113,-4.0113,-4.0113,-4.0113,-4.0113,-4.0113,-4.0113,-4.0113,-4.0113,-4.0113,-4.0113,-4.0113,-4.0113,-4.0113,-4.0113,-4.0113,-4.0113,-4.0113,-4.0113,-4.0113,-4.0113,-4.0113,-4.0113,-3.9926,-3.9326,-3.8667,-3.8024,-3.7381,-3.6654,-3.5802,-3.5616,-3.5616,-3.5616,-3.5616,-3.5616,-3.5616,-3.5616,-3.5616,-3.5616,-3.5616,-3.5616,-3.5616,-3.5616,-3.538,-3.5131,-3.4624,-3.4049,-3.3,-3.2615,-3.1955,-3.1393,-3.119,-3.119,-3.119,-3.119,-3.119,-3.119,-3.119,-3.119,-3.119,-3.119,-3.119,-3.1562,-3.2797,-3.3643,-3.3626,-3.4252,-3.4641,-3.4895,-3.4675,-3.503,-3.5329,-3.56,-3.5616,-3.5616,-3.5616,-3.5509,-3.5577,-3.556,-3.4971,-3.4559,-3.456,-3.4252,-3.3761,-3.3287,-3.2853,-3.2532,-3.2299,-3.2244,-3.2216,-3.2544,-3.2864,-3.2917,-3.2917,-3.2891,-3.281,-3.2837,-3.2691,-3.2299,-3.212,-3.1881,-3.1611,-3.1496,-3.1496,-3.1481,-3.1346,-3.1137,-3.0688,-3.0223,-2.9699,-2.9172,-2.8573,-2.8199,-4.0113,-4.0113,-4.0113,-4.0113,-4.0113,-4.0113,-4.0113,-4.0113,-4.0113,-4.0113,-4.0113,-4.0113,-4.0113,-4.0113,-4.0113,-4.0113,-4.0113,-4.0113,-4.0113,-4.0113,-4.0113,-4.0113,-4.0113,-4.0113,-4.0113,-4.0062,-3.9022,-3.8413,-3.7787,-3.7009,-3.6163,-3.5616,-3.5616,-3.5616,-3.5616,-3.5616,-3.5616,-3.5616,-3.5616,-3.5616,-3.5616,-3.5616,-3.5616,-3.5616,-3.5616,-3.5616,-3.5498,-3.5148,-3.4455,-3.3728,-3.3,-3.2361,-3.1698,-3.1362,-3.1207,-3.119,-3.119,-3.119,-3.119,-3.119,-3.119,-3.119,-3.1241,-3.1292,-3.1718,-3.3123,-3.3863,-3.2933,-3.3558,-3.4167,-3.4438,-3.4489,-3.4912,-3.5295,-3.5616,-3.5616,-3.5549,-3.5385,-3.538,-3.5515,-3.5481,-3.5414,-3.5188,-3.5436,-3.5184,-3.464,-3.4112,-3.3556,-3.3156,-3.2841,-3.2841,-3.2826,-3.3024,-3.3349,-3.3401,-3.3505,-3.3582,-3.3684,-3.3684,-3.3365,-3.2788,-3.241,-3.2132,-3.1894,-3.1582,-3.1271,-3.1122,-3.1122,-3.1047,-3.0372,-2.9684,-2.9071,-2.8487,-2.7929,-2.7675,-4.0113,-4.0113,-4.0113,-4.0113,-4.0113,-4.0113,-4.0113,-4.0113,-4.0113,-4.0113,-4.0113,-4.0113,-4.0113,-4.0113,-4.0113,-4.0113,-4.0113,-4.0113,-4.0113,-4.0113,-4.0113,-4.0113,-4.0113,-4.0113,-4.0079,-3.9876,-3.8836,-3.8125,-3.7584,-3.6502,-3.5893,-3.5616,-3.5616,-3.5616,-3.5616,-3.5616,-3.5616,-3.5616,-3.5616,-3.5616,-3.5616,-3.5616,-3.5616,-3.5616,-3.5616,-3.56,-3.5583,-3.5447,-3.5047,-3.4303,-3.3677,-3.2848,-3.2158,-3.165,-3.1393,-3.1207,-3.119,-3.1241,-3.1326,-3.1258,-3.119,-3.119,-3.1292,-3.1495,-3.1836,-3.2175,-3.2666,-3.3085,-3.344,-3.3897,-3.4252,-3.4556,-3.4844,-3.5143,-3.5346,-3.5295,-3.5143,-3.4895,-3.4945,-3.5261,-3.5329,-3.5211,-3.543,-3.5566,-3.5492,-3.4965,-3.4528,-3.3946,-3.3659,-3.3391,-3.3495,-3.3531,-3.3608,-3.371,-3.3684,-3.3836,-3.4137,-3.4112,-3.4012,-3.3556,-3.2986,-3.268,-3.2355,-3.2007,-3.1652,-3.1221,-3.0791,-3.0672,-3.0387,-2.9759,-2.916,-2.8682,-2.8233,-2.7779,-2.7615,-4.0113,-4.0113,-4.0113,-4.0113,-4.0113,-4.0113,-4.0113,-4.0113,-4.0113,-4.0113,-4.0113,-4.0113,-4.0113,-4.0113,-4.0113,-4.0113,-4.0113,-4.0113,-4.0113,-4.0113,-4.0113,-4.0113,-4.0113,-4.0113,-4.0079,-3.9757,-3.865,-3.7898,-3.7753,-3.6349,-3.5785,-3.5616,-3.5616,-3.5616,-3.5616,-3.5616,-3.5616,-3.5616,-3.5616,-3.5616,-3.5616,-3.5616,-3.5616,-3.5616,-3.5616,-3.5616,-3.56,-3.56,-3.5165,-3.4658,-3.4235,-3.344,-3.2598,-3.2053,-3.1664,-3.1343,-3.1292,-3.141,-3.1701,-3.1532,-3.119,-3.1309,-3.1582,-3.1836,-3.1904,-3.2357,-3.2666,-3.2949,-3.3169,-3.3711,-3.4286,-3.4493,-3.4641,-3.4962,-3.5059,-3.4991,-3.467,-3.4336,-3.4523,-3.4878,-3.4945,-3.4912,-3.525,-3.56,-3.547,-3.5253,-3.483,-3.4455,-3.4186,-3.4037,-3.4137,-3.4284,-3.4358,-3.452,-3.4544,-3.4657,-3.4776,-3.4592,-3.4423,-3.3987,-3.3505,-3.2788,-3.2465,-3.212,-3.1745,-3.1326,-3.085,-3.0291,-2.9771,-2.9247,-2.8843,-2.8442,-2.8008,-2.763,-2.7585,-4.0113,-4.0113,-4.0113,-4.0113,-4.0113,-4.0113,-4.0113,-4.0113,-4.0113,-4.0113,-4.0113,-4.0113,-4.0113,-4.0113,-4.0113,-4.0113,-4.0113,-4.0113,-4.0113,-4.0113,-4.0113,-4.0113,-4.0113,-4.0062,-3.9943,-3.9529,-3.8633,-3.7855,-3.7432,-3.6208,-3.5735,-3.5616,-3.5616,-3.5616,-3.5616,-3.5616,-3.5616,-3.5616,-3.5616,-3.5616,-3.5616,-3.5616,-3.5616,-3.5616,-3.5616,-3.5616,-3.5616,-3.5583,-3.538,-3.4962,-3.4523,-3.3947,-3.3224,-3.2564,-3.2192,-3.1853,-3.1546,-3.1647,-3.2138,-3.2005,-3.1546,-3.1718,-3.1633,-3.1718,-3.1867,-3.2324,-3.2188,-3.2121,-3.2747,-3.3558,-3.4121,-3.4286,-3.4353,-3.4585,-3.4861,-3.4793,-3.4049,-3.3626,-3.4066,-3.4472,-3.4336,-3.41,-3.5233,-3.5583,-3.5554,-3.5447,-3.5293,-3.5005,-3.4823,-3.4752,-3.4847,-3.4988,-3.5121,-3.5339,-3.5554,-3.5339,-3.5138,-3.5161,-3.4981,-3.4736,-3.4211,-3.3443,-3.2933,-3.2795,-3.235,-3.1588,-3.0991,-3.0526,-2.9687,-2.8809,-2.8449,-2.8053,-2.7904,-2.7585,-2.7585,-4.0113,-4.0113,-4.0113,-4.0113,-4.0113,-4.0113,-4.0113,-4.0113,-4.0113,-4.0113,-4.0113,-4.0113,-4.0113,-4.0113,-4.0113,-4.0113,-4.0113,-4.0113,-4.0113,-4.0113,-4.0113,-4.0113,-4.0062,-3.9977,-3.9639,-3.8971,-3.8142,-3.7398,-3.6931,-3.6062,-3.5667,-3.5616,-3.5616,-3.5616,-3.5616,-3.5616,-3.5616,-3.5616,-3.5616,-3.5616,-3.5616,-3.5616,-3.5616,-3.5616,-3.5616,-3.5616,-3.5616,-3.5616,-3.5481,-3.5346,-3.4928,-3.4489,-3.4138,-3.297,-3.2699,-3.3034,-3.1901,-3.2019,-3.3051,-3.2544,-3.2276,-3.1955,-3.165,-3.1532,-3.187,-3.1816,-3.1732,-3.1985,-3.2628,-3.2966,-3.3457,-3.3981,-3.4083,-3.4049,-3.4269,-3.41,-3.3322,-3.3017,-3.3461,-3.3846,-3.3305,-3.3068,-3.4573,-3.5566,-3.56,-3.5577,-3.56,-3.5492,-3.5293,-3.5253,-3.5299,-3.5362,-3.5453,-3.5515,-3.5616,-3.5616,-3.5554,-3.56,-3.5424,-3.5028,-3.4736,-3.4137,-3.3744,-3.356,-3.2986,-3.2238,-3.1511,-3.0816,-2.963,-2.8439,-2.8025,-2.7705,-2.7615,-2.7585,-2.7585,-4.0113,-4.0113,-4.0113,-4.0113,-4.0113,-4.0113,-4.0113,-4.0113,-4.0113,-4.0113,-4.0113,-4.0113,-4.0113,-4.0113,-4.0113,-4.0113,-4.0113,-4.0113,-4.0113,-4.0079,-4.0045,-4.0113,-3.9977,-3.9537,-3.9216,-3.8725,-3.7912,-3.7151,-3.6829,-3.5994,-3.5667,-3.5616,-3.5616,-3.5616,-3.5616,-3.5616,-3.5616,-3.5616,-3.5616,-3.5616,-3.5616,-3.5616,-3.5616,-3.5616,-3.5616,-3.5616,-3.5616,-3.5616,-3.5616,-3.5616,-3.5199,-3.4962,-3.4489,-3.3372,-3.3169,-3.3271,-3.2391,-3.2124,-3.273,-3.2611,-3.2493,-3.1901,-3.1427,-3.1326,-3.1515,-3.1393,-3.1698,-3.2188,-3.2476,-3.2949,-3.3931,-3.3744,-3.3609,-3.3102,-3.3051,-3.2831,-3.2391,-3.2479,-3.2716,-3.3102,-3.2933,-3.3237,-3.4286,-3.5363,-3.56,-3.5616,-3.5616,-3.5616,-3.547,-3.547,-3.5492,-3.5515,-3.5577,-3.56,-3.5616,-3.5616,-3.56,-3.56,-3.5362,-3.5005,-3.4728,-3.4616,-3.4431,-3.417,-3.3539,-3.2894,-3.1758,-3.056,-2.914,-2.8101,-2.7821,-2.7625,-2.76,-2.7585,-2.7585,-4.0113,-4.0121,-4.0311,-4.0262,-4.0121,-4.0113,-4.0113,-4.0113,-4.0113,-4.0113,-4.0113,-4.0113,-4.0113,-4.0113,-4.0113,-4.0113,-4.0113,-4.0113,-3.9808,-3.9791,-3.9723,-3.9486,-3.914,-3.8886,-3.8396,-3.8065,-3.7438,-3.6728,-3.6315,-3.5876,-3.5633,-3.5616,-3.5616,-3.5616,-3.5616,-3.5616,-3.5616,-3.5616,-3.5616,-3.5616,-3.5616,-3.5616,-3.5616,-3.5616,-3.5616,-3.5616,-3.5616,-3.5616,-3.5616,-3.5616,-3.5498,-3.5228,-3.4539,-3.3897,-3.3592,-3.3474,-3.3694,-3.2953,-3.2408,-3.2949,-3.2527,-3.141,-3.1224,-3.1326,-3.1413,-3.1376,-3.1647,-3.2053,-3.2307,-3.2662,-3.3152,-3.2933,-3.3017,-3.2527,-3.2293,-3.207,-3.1833,-3.1921,-3.2175,-3.2544,-3.2797,-3.3271,-3.3947,-3.4878,-3.56,-3.5616,-3.5616,-3.5616,-3.5616,-3.5616,-3.5616,-3.5616,-3.5616,-3.5616,-3.5616,-3.5616,-3.56,-3.5583,-3.5385,-3.5115,-3.5161,-3.5098,-3.4934,-3.47,-3.4129,-3.3252,-3.1641,-3.0289,-2.9155,-2.8314,-2.784,-2.7685,-2.761,-2.7585,-2.7585,-4.0146,-4.0229,-4.0709,-4.0625,-4.0179,-4.0121,-4.0113,-4.0113,-4.0113,-4.0113,-4.0113,-4.0113,-4.0028,-4.0011,-4.0028,-3.991,-3.9791,-3.9825,-3.9445,-3.9089,-3.8971,-3.8582,-3.8261,-3.7956,-3.7635,-3.7151,-3.6643,-3.6231,-3.5701,-3.565,-3.5616,-3.5616,-3.5616,-3.5616,-3.5616,-3.5616,-3.5616,-3.5616,-3.5616,-3.5616,-3.5616,-3.5616,-3.5616,-3.5616,-3.5616,-3.5616,-3.5616,-3.5616,-3.5616,-3.5616,-3.5583,-3.5165,-3.4573,-3.3829,-3.3998,-3.4269,-3.481,-3.3609,-3.2239,-3.2848,-3.2493,-3.1461,-3.1207,-3.1616,-3.1718,-3.1481,-3.1579,-3.1749,-3.1935,-3.1732,-3.1681,-3.2138,-3.256,-3.2239,-3.1989,-3.1698,-3.1376,-3.1461,-3.1769,-3.2022,-3.2138,-3.2645,-3.3592,-3.4501,-3.56,-3.5616,-3.5616,-3.5616,-3.5616,-3.5616,-3.5616,-3.5616,-3.5616,-3.5616,-3.5616,-3.5616,-3.56,-3.56,-3.56,-3.5447,-3.5492,-3.5492,-3.5316,-3.5052,-3.4678,-3.3689,-3.2075,-3.0681,-2.9446,-2.874,-2.828,-2.782,-2.777,-2.761,-2.7585,-4.0938,-4.1308,-4.1486,-4.1218,-4.0655,-4.0262,-4.0113,-4.0113,-4.0113,-4.0113,-4.0113,-4.0113,-3.9841,-3.9351,-3.9317,-3.9037,-3.8742,-3.8497,-3.8413,-3.8285,-3.8289,-3.8099,-3.7794,-3.7407,-3.7039,-3.67,-3.6293,-3.6022,-3.5729,-3.5622,-3.5644,-3.5616,-3.5711,-3.5689,-3.5667,-3.5616,-3.5616,-3.5616,-3.5616,-3.5616,-3.5616,-3.5616,-3.5616,-3.5616,-3.5616,-3.5616,-3.5616,-3.5616,-3.5616,-3.5616,-3.5616,-3.538,-3.5295,-3.4134,-3.3491,-3.3034,-3.3728,-3.3947,-3.2564,-3.2848,-3.2747,-3.1562,-3.1207,-3.1224,-3.1396,-3.143,-3.141,-3.1698,-3.1647,-3.1498,-3.1565,-3.1901,-3.2019,-3.1765,-3.1579,-3.1444,-3.119,-3.1275,-3.1582,-3.1955,-3.2056,-3.2797,-3.3677,-3.4636,-3.56,-3.56,-3.5616,-3.5616,-3.5616,-3.5616,-3.5616,-3.5616,-3.5616,-3.5616,-3.5616,-3.5616,-3.5616,-3.5616,-3.5616,-3.5616,-3.5577,-3.5577,-3.56,-3.5245,-3.4624,-3.37,-3.2513,-3.1142,-2.97,-2.9384,-2.895,-2.8384,-2.7929,-2.7845,-2.7735,-4.0512,-4.0848,-4.0872,-4.0662,-4.0289,-3.9771,-3.9624,-3.9828,-4.0031,-4.0113,-4.007,-3.9988,-3.971,-3.9388,-3.9233,-3.8895,-3.8316,-3.8339,-3.8168,-3.7809,-3.7746,-3.7479,-3.7205,-3.7087,-3.6878,-3.6573,-3.6401,-3.6297,-3.5989,-3.5941,-3.5985,-3.6291,-3.6097,-3.5941,-3.5876,-3.5761,-3.5616,-3.5616,-3.5616,-3.5616,-3.5616,-3.5616,-3.5616,-3.5616,-3.5616,-3.5616,-3.5616,-3.5616,-3.5616,-3.5616,-3.5616,-3.5397,-3.5126,-3.4015,-3.2797,-3.2476,-3.3169,-3.3085,-3.2154,-3.2459,-3.2138,-3.1579,-3.119,-3.1207,-3.1207,-3.1241,-3.165,-3.1989,-3.1633,-3.1396,-3.1599,-3.1752,-3.1478,-3.1224,-3.1207,-3.1207,-3.119,-3.119,-3.1529,-3.1972,-3.2564,-3.3271,-3.4134,-3.5025,-3.5583,-3.56,-3.5616,-3.5616,-3.5616,-3.5616,-3.5616,-3.5616,-3.5616,-3.5616,-3.5616,-3.5616,-3.5616,-3.5616,-3.5616,-3.5616,-3.5616,-3.5616,-3.5616,-3.5076,-3.4387,-3.3471,-3.2608,-3.1275,-3.0059,-2.9783,-2.954,-2.9088,-2.8599,-2.8295,-2.8149,-3.9529,-3.9625,-3.9569,-3.9716,-3.9471,-3.9019,-3.9019,-3.9426,-3.9829,-4.0033,-3.9976,-3.9807,-3.9598,-3.9289,-3.9153,-3.8765,-3.8295,-3.8118,-3.7858,-3.7498,-3.7498,-3.7255,-3.7018,-3.6917,-3.6931,-3.6811,-3.6726,-3.6706,-3.6539,-3.6498,-3.6664,-3.7171,-3.6721,-3.6416,-3.6224,-3.5963,-3.5761,-3.5616,-3.5616,-3.5616,-3.5616,-3.5616,-3.5616,-3.5616,-3.5616,-3.5616,-3.5616,-3.5616,-3.5616,-3.5616,-3.5515,-3.5245,-3.459,-3.3846,-3.2696,-3.2222,-3.278,-3.2374,-3.1952,-3.2107,-3.1901,-3.1495,-3.119,-3.119,-3.119,-3.119,-3.1599,-3.1769,-3.1427,-3.1413,-3.1565,-3.1495,-3.1292,-3.119,-3.119,-3.119,-3.119,-3.119,-3.1326,-3.185,-3.2645,-3.3355,-3.3812,-3.4636,-3.5583,-3.56,-3.5616,-3.5616,-3.5532,-3.5532,-3.5566,-3.5566,-3.5583,-3.5583,-3.5616,-3.5616,-3.5616,-3.5616,-3.5616,-3.5616,-3.5616,-3.5616,-3.5616,-3.5042,-3.4433,-3.3575,-3.2629,-3.1406,-3.0539,-3.0145,-2.9913,-2.9695,-2.9339,-2.8973,-2.8496,-4.0293,-4.0632,-4.022,-4.0018,-3.9942,-3.9434,-3.9253,-3.9408,-3.9498,-3.9577,-3.9546,-3.9459,-3.9171,-3.881,-3.8744,-3.8353,-3.7796,-3.7824,-3.7457,-3.7369,-3.7334,-3.7334,-3.7073,-3.7247,-3.7154,-3.7097,-3.7133,-3.7192,-3.7116,-3.7058,-3.7039,-3.7209,-3.698,-3.6803,-3.6495,-3.6165,-3.592,-3.5644,-3.5616,-3.5616,-3.5616,-3.5616,-3.5616,-3.5616,-3.5616,-3.5616,-3.5616,-3.5616,-3.5616,-3.5616,-3.5616,-3.5216,-3.4539,-3.3812,-3.2983,-3.2327,-3.231,-3.1955,-3.1715,-3.1735,-3.1735,-3.1427,-3.119,-3.119,-3.119,-3.119,-3.1241,-3.136,-3.141,-3.1447,-3.1464,-3.1326,-3.119,-3.119,-3.119,-3.119,-3.119,-3.119,-3.119,-3.1833,-3.2645,-3.322,-3.3643,-3.4387,-3.5261,-3.5616,-3.5616,-3.5566,-3.538,-3.5329,-3.543,-3.5447,-3.5532,-3.5549,-3.5583,-3.5616,-3.5616,-3.5616,-3.5616,-3.5616,-3.5616,-3.5616,-3.5566,-3.5126,-3.4525,-3.3648,-3.2786,-3.1873,-3.1126,-3.0622,-3.0477,-3.0351,-3.0145,-2.9805,-2.9134,-3.973,-3.993,-3.9422,-3.9175,-3.9103,-3.8866,-3.8866,-3.9067,-3.9085,-3.9103,-3.9121,-3.9133,-3.8966,-3.8578,-3.8528,-3.8169,-3.7596,-3.7542,-3.7613,-3.7542,-3.7506,-3.7542,-3.756,-3.7685,-3.7667,-3.7614,-3.756,-3.7578,-3.7703,-3.7596,-3.756,-3.7703,-3.7542,-3.7078,-3.6704,-3.6395,-3.6006,-3.5622,-3.5667,-3.5667,-3.5667,-3.5644,-3.5639,-3.5616,-3.5622,-3.5622,-3.5616,-3.5616,-3.5616,-3.5616,-3.5616,-3.489,-3.4235,-3.3626,-3.2831,-3.2087,-3.1715,-3.163,-3.1464,-3.1498,-3.1667,-3.1326,-3.119,-3.119,-3.119,-3.1224,-3.1532,-3.1616,-3.1326,-3.1328,-3.1616,-3.1599,-3.1309,-3.119,-3.119,-3.119,-3.119,-3.119,-3.119,-3.141,-3.2324,-3.3254,-3.3812,-3.4653,-3.5414,-3.56,-3.56,-3.5583,-3.5397,-3.5182,-3.5245,-3.5295,-3.5346,-3.5498,-3.56,-3.5616,-3.5616,-3.5616,-3.5616,-3.5616,-3.5616,-3.5616,-3.5498,-3.516,-3.4602,-3.3702,-3.2844,-3.2019,-3.1478,-3.0989,-3.0995,-3.1055,-3.0801,-3.0477,-2.9848,-3.8747,-3.8627,-3.8236,-3.8032,-3.7997,-3.8033,-3.8289,-3.8666,-3.8695,-3.8698,-3.8747,-3.8913,-3.8956,-3.8894,-3.8782,-3.8413,-3.8133,-3.8032,-3.7997,-3.8015,-3.7997,-3.8015,-3.815,-3.835,-3.8218,-3.8117,-3.8032,-3.8251,-3.8499,-3.8251,-3.815,-3.8417,-3.7999,-3.7377,-3.702,-3.6545,-3.6084,-3.6054,-3.6032,-3.5924,-3.581,-3.5711,-3.5711,-3.5689,-3.5717,-3.5739,-3.5689,-3.5689,-3.5689,-3.5637,-3.564,-3.5049,-3.426,-3.3669,-3.2884,-3.2168,-3.1666,-3.1543,-3.1346,-3.1336,-3.1314,-3.119,-3.119,-3.119,-3.119,-3.1326,-3.1633,-3.1599,-3.1309,-3.1309,-3.1599,-3.1684,-3.136,-3.119,-3.119,-3.119,-3.119,-3.119,-3.119,-3.1224,-3.207,-3.3085,-3.3761,-3.4636,-3.5109,-3.5329,-3.5481,-3.5532,-3.5464,-3.5211,-3.5109,-3.5098,-3.5081,-3.5267,-3.5532,-3.5616,-3.5616,-3.5616,-3.5616,-3.5616,-3.5616,-3.5616,-3.5532,-3.5346,-3.4687,-3.3694,-3.2899,-3.2104,-3.1647,-3.119,-3.119,-3.1171,-3.1015,-3.0699,-3.0414,-3.8707,-3.8692,-3.8596,-3.8546,-3.853,-3.853,-3.8611,-3.8692,-3.8707,-3.8707,-3.8713,-3.8734,-3.875,-3.875,-3.8721,-3.8562,-3.8481,-3.8446,-3.8512,-3.8546,-3.8449,-3.8481,-3.853,-3.8578,-3.8611,-3.853,-3.8465,-3.8611,-3.8707,-3.8596,-3.8546,-3.8627,-3.8593,-3.8117,-3.772,-3.7268,-3.6985,-3.6825,-3.6724,-3.6706,-3.6664,-3.644,-3.5968,-3.6079,-3.6422,-3.6165,-3.5989,-3.6054,-3.6182,-3.6094,-3.5718,-3.5382,-3.4727,-3.3888,-3.3074,-3.259,-3.2049,-3.1728,-3.1584,-3.1408,-3.1332,-3.119,-3.119,-3.119,-3.119,-3.119,-3.136,-3.136,-3.119,-3.119,-3.1376,-3.1376,-3.119,-3.119,-3.119,-3.119,-3.119,-3.119,-3.119,-3.1427,-3.1921,-3.2479,-3.275,-3.3541,-3.4252,-3.4472,-3.4709,-3.4827,-3.5312,-3.516,-3.4979,-3.5013,-3.4979,-3.5148,-3.5487,-3.5583,-3.5616,-3.5616,-3.5616,-3.5616,-3.5616,-3.5616,-3.5498,-3.5211,-3.4484,-3.3503,-3.278,-3.2053,-3.1613,-3.119,-3.119,-3.1151,-3.1055,-3.0918,-3.0658]},{"header":{"parameterUnit":"m.s-1","parameterCategory":1,"la1":31.0,"la2":29.5877,"lo1":-88.7671,"lo2":-86.6584,"dy":0.0162,"dx":0.0185,"nx":115,"ny":88,"refTime":"2024-06-30T00:00:00:Z","depth":0,"parameterNumber":3,"parameterNumberName":"V-component_of_WINDS"},"data":[0.0,0.0,0.0,0.0,0.0,0.0,0.0,0.0,0.0,0.0,0.0,0.0,0.0,0.0,0.0,0.0,0.0,0.0,0.0,0.0,0.0,0.0,0.0,0.0,0.0,0.0,0.0,0.0,0.0,0.0,0.0,0.0,0.0,0.0,0.0,0.0,0.0,0.0,0.0,0.0,0.0,0.0,0.0,0.0,0.0,0.0,0.0,0.0,0.0,0.0,0.0,0.0,0.0,0.0,0.0,0.0,0.0,0.0,0.0,0.0,0.0,0.0,0.0,0.0,0.0,0.0,0.0,0.0,0.0,0.0,0.0,0.0,0.0,0.0,0.0,0.0,0.0,0.0,0.0,0.0,0.0,0.0,0.0,0.0,0.0,0.0,0.0,0.0,0.0,0.0,0.0,0.0,0.0,0.0,0.0,0.0,0.0,0.0,0.0,0.0,0.0,0.0,0.0,0.0,0.0,0.0,0.0,0.0,0.0,0.0,0.0,0.0,0.0,0.0,0.0,0.0,0.0,0.0,0.0,0.0,0.0,0.0,0.0,0.0,0.0,0.0,0.0,0.0,0.0,0.0,0.0,0.0,0.0,0.0,0.0,0.0,0.0,0.0,0.0,0.0,0.0,0.0,0.0,0.0,0.0,0.0,0.0,0.0,0.0,0.0,0.0,0.0,0.0,0.0,0.0,0.0,0.0,0.0,0.0,0.0,0.0,0.0,0.0,0.0,0.0,0.0,0.0,0.0,0.0,0.0,0.0,0.0,0.0,0.0,0.0,0.0,0.0,0.0,0.0,0.0,0.0,0.0,0.0,0.0,0.0,0.0,0.0,0.0,0.0,0.0,0.0,0.0,0.0,0.0,0.0,0.0,0.0,0.0,0.0,0.0,0.0,0.0,0.0,0.0,0.0,0.0,0.0,0.0,0.0,0.0,0.0,0.0,0.0,0.0,0.0,0.0,0.0,0.0,0.0,0.0,0.0,0.0,0.0,0.0,0.0,0.0,0.0,0.0,0.0,0.0,0.0,0.0,0.0,0.0,0.0,0.0,0.0,0.0,0.0,0.0,0.0,0.0,0.0,0.0,0.0,0.0,0.0,0.0,0.0,0.0,0.0,0.0,0.0,0.0,0.0,0.0,0.0,0.0,0.0,0.0,0.0,0.0,0.0,0.0,0.0,0.0,0.0,0.0,0.0,0.0,0.0,0.0,0.0,0.0,0.0,0.0,0.0,0.0,0.0,0.0,0.0,0.0,0.0,0.0,0.0,0.0,0.0,0.0,0.0,0.0,0.0,0.0,0.0,0.0,0.0,0.0,0.0,0.0,0.0,0.0,0.0,0.0,0.0,0.0,0.0,0.0,0.0,0.0,0.0,0.0,0.0,0.0,0.0,0.0,0.0,0.0,0.0,0.0,0.0,0.0,0.0,0.0,0.0,0.0,0.0,0.0,0.0,0.0,0.0,0.0,0.0,0.0,0.0,0.0,0.0,0.0,0.0,0.0,0.0,0.0,0.0,0.0,0.0,0.0,0.0,0.0,0.0,0.0,0.0,0.0,0.0,0.0,0.0,0.0,0.0,0.0,0.0,0.0,0.0,0.0,0.0,0.0,0.0,0.0,0.0,0.0,0.0,0.0,0.0,0.0,0.0,0.0,0.0,0.0,0.0,0.0,0.0,0.0,0.0,0.0,0.0,0.0,0.0,0.0,0.0,0.0,0.0,0.0,0.0,0.0,0.0,0.0,0.0,0.0,0.0,0.0,0.0,0.0,0.0,0.0,0.0,0.0,0.0,0.0,0.0,0.0,0.0,0.0,0.0,0.0,0.0,0.0,0.0,0.0,0.0,0.0,0.0,0.0,0.0,0.0,0.0,0.0,0.0,0.0,0.0,0.0,0.0,0.0,0.0,0.0,0.0,0.0,0.0,0.0,0.0,0.0,0.0,0.0,0.0,0.0,0.0,0.0,0.0,0.0,0.0,0.0,0.0,0.0,0.0,0.0,0.0,0.0,0.0,0.0,0.0,0.0,0.0,0.0,0.0,0.0,0.0,0.0,0.0,0.0,0.0,0.0,0.0,0.0,0.0,0.0,0.0,0.0,0.0,0.0,0.0,0.0,0.0,0.0,0.0,0.0,0.0,0.0,0.0,0.0,0.0,0.0,0.0,0.0,0.0,0.0,0.0,0.0,0.0,0.0,0.0,0.0,0.0,0.0,0.0,0.0,0.0,0.0,0.0,0.0,0.0,0.0,0.0,0.0,0.0,0.0,0.0,0.0,0.0,0.0,0.0,0.0,0.0,0.0,0.0,0.0,0.0,0.0,0.0,0.0,0.0,0.0,0.0,0.0,0.0,0.0,0.0,0.0,0.0,0.0,0.0,0.0,0.0,0.0,0.0,0.0,0.0,0.0,0.0,0.0,0.0,0.0,0.0,0.0,0.0,0.0,0.0,0.0,0.0,0.0,0.0,0.0,0.0,0.0,0.0,0.0,0.0,0.0,0.0,0.0,0.0,0.0,0.0,0.0,0.0,0.0,0.0,0.0,0.0,0.0,0.0,0.0,0.0,0.0,0.0,0.0,0.0,0.0,0.0,0.0,0.0,0.0,0.0,0.0,0.0,0.0,0.0,0.0,0.0,0.0,0.0,0.0,0.0,0.0,0.0,0.0,0.0,0.0,0.0,0.0,0.0,0.0,0.0,0.0,0.0,0.0,0.0,0.0,0.0,0.0,0.0,0.0,0.0,0.0,0.0,0.0,0.0,0.0,0.0,0.0,0.0,0.0,0.0,0.0,0.0,0.0,0.0,0.0,0.0,0.0,0.0,0.0,0.0,0.0,0.0,0.0,0.0,0.0,0.0,0.0,0.0,0.0,0.0,0.0,0.0,0.0,0.0,0.0,0.0,0.0,0.0,0.0,0.0,0.0,0.0,0.0,0.0,0.0,0.0,0.0,0.0,0.0,0.0,0.0,0.0,0.0,0.0,0.0,0.0,0.0,0.0,0.0,0.0,0.0,0.0,0.0,0.0,0.0,0.0,0.0,0.0,0.0,0.0,0.0,0.0,0.0,0.0,0.0,0.0,0.0,0.0,0.0,0.0,0.0,0.0,0.0,0.0,0.0,0.0,0.0,0.0,0.0,0.0,0.0,0.0,0.0,0.0,0.0,0.0,0.0,0.0,0.0,0.0,0.0,0.0,0.0,0.0,0.0,0.0,0.0,0.0,0.0,0.0,0.0,0.0,0.0,0.0,0.0,0.0,0.0,0.0,0.0,0.0,0.0,0.0,0.0,0.0,0.0,0.0,0.0,0.0,0.0,0.0,0.0,0.0,0.0,0.0,0.0,0.0,0.0,0.0,0.0,0.0,0.0,0.0,0.0,0.0,0.0,0.0,0.0,0.0,0.0,0.0,0.0,0.0,0.0,0.0,0.0,0.0,0.0,0.0,0.0,0.0,0.0,0.0,0.0,0.0,0.0,0.0,0.0,0.0,0.0,0.0,0.0,0.0,0.0,0.0,0.0,0.0,0.0,0.0,0.0,0.0,0.0,0.0,0.0,0.0,0.0,0.0,0.0,0.0,0.0,0.0,0.0,0.0,0.0,0.0,0.0,0.0,0.0,0.0,0.0,0.0,0.0,0.0,0.0,0.0,0.0,0.0,0.0,0.0,0.0,0.0,0.0,0.0,0.0,0.0,0.0,0.0,0.0,0.0,0.0,0.0,0.0,0.0,0.0,0.0,0.0,0.0,0.0,0.0,0.0,0.0,0.0,0.0,0.0,0.0,0.0,0.0,0.0,0.0,0.0,0.0,0.0,0.0,0.0,0.0,0.0,0.0,0.0,0.0,0.0,0.0,0.0,0.0,0.0,0.0,0.0,0.0,0.0,0.0,0.0,0.0,0.0,0.0,0.0,0.0,0.0,0.0,0.0,0.0,0.0,0.0,0.0,0.0,0.0,0.0,0.0,0.0,0.0,0.0,0.0,0.0,0.0,0.0,0.0,0.0,0.0,0.0,0.0,0.0,0.0,0.0,0.0,0.0,0.0,0.0,0.0,0.0,0.0,0.0,0.0,0.0,0.0,0.0,0.0,0.0,0.0,0.0,0.0,0.0,0.0,0.0,0.0,0.0,0.0,0.0,0.0,0.0,0.0,0.0,0.0,0.0,0.0,0.0,0.0,0.0,0.0,0.0,0.0,0.0,0.0,0.0,0.0,0.0,0.0,0.0,0.0,0.0,0.0,0.0,0.0,0.0,0.0,0.0,0.0,0.0,0.0,0.0,0.0,0.0,0.0,-0.7618,0.0,0.0,0.0,0.0,0.0,0.0,0.0,0.0,0.0,0.0,0.0,0.0,0.0,0.0,0.0,0.0,0.0,0.0,0.0,0.0,0.0,0.0,0.0,0.0,0.0,0.0,0.0,0.0,0.0,0.0,0.0,0.0,0.0,0.0,0.0,0.0,0.0,0.0,0.0,0.0,0.0,0.0,0.0,0.0,0.0,0.0,0.0,0.0,0.0,0.0,0.0,0.0,0.0,0.0,0.0,0.0,0.0,0.0,0.0,0.0,0.0,0.0,0.0,0.0,0.0,0.0,0.0,0.0,0.0,0.0,0.0,0.0,0.0,0.0,0.0,0.0,0.0,0.0,0.0,0.0,0.0,0.0,0.0,0.0,0.0,0.0,0.0,0.0,0.0,0.0,0.0,0.0,0.0,0.0,0.0,0.0,0.0,0.0,0.0,0.0,0.0,0.0,0.0,0.0,0.0,0.0,0.0,0.0,0.0,0.0,-0.8312,-0.8308,-0.8298,-0.8298,-0.8298,0.0,0.0,0.0,0.0,0.0,0.0,0.0,0.0,0.0,0.0,0.0,0.0,0.0,0.0,0.0,0.0,0.0,0.0,0.0,0.0,0.0,0.0,0.0,0.0,0.0,0.0,0.0,0.0,0.0,0.0,0.0,0.0,0.0,0.0,0.0,0.0,0.0,0.0,0.0,0.0,0.0,0.0,0.0,0.0,0.0,0.0,0.0,0.0,0.0,0.0,0.0,0.0,0.0,0.0,0.0,0.0,0.0,0.0,0.0,0.0,0.0,0.0,0.0,0.0,0.0,0.0,0.0,0.0,0.0,0.0,0.0,0.0,0.0,0.0,0.0,0.0,0.0,0.0,0.0,0.0,0.0,0.0,0.0,0.0,0.0,0.0,0.0,0.0,0.0,0.0,0.0,0.0,0.0,0.0,0.0,0.0,0.0,0.0,0.0,0.0,0.0,0.0,0.0,0.0,0.0,0.0,0.0,0.0,0.0,0.0,0.0,0.0,-0.9021,-0.888,-0.8966,0.0,0.0,0.0,0.0,0.0,0.0,0.0,0.0,0.0,0.0,0.0,0.0,0.0,0.0,0.0,0.0,0.0,0.0,0.0,0.0,0.0,0.0,0.0,0.0,0.0,0.0,0.0,0.0,0.0,0.0,0.0,0.0,0.0,0.0,0.0,0.0,0.0,0.0,0.0,0.0,0.0,0.0,0.0,0.0,0.0,0.0,0.0,0.0,0.0,0.0,0.0,0.0,0.0,0.0,0.0,0.0,0.0,0.0,0.0,0.0,0.0,0.0,0.0,0.0,0.0,0.0,0.0,0.0,0.0,0.0,0.0,0.0,0.0,0.0,0.0,0.0,0.0,0.0,0.0,0.0,0.0,0.0,0.0,0.0,0.0,0.0,0.0,0.0,0.0,0.0,0.0,0.0,0.0,0.0,0.0,0.0,0.0,0.0,0.0,0.0,0.0,0.0,0.0,0.0,0.0,0.0,0.0,0.0,0.0,0.0,-0.8832,-1.0972,-0.9705,0.0,-0.9496,0.0,0.0,0.0,0.0,0.0,0.0,0.0,0.0,0.0,0.0,0.0,0.0,0.0,0.0,0.0,0.0,0.0,0.0,0.0,0.0,0.0,0.0,0.0,0.0,0.0,0.0,0.0,0.0,0.0,0.0,0.0,0.0,0.0,0.0,0.0,0.0,0.0,0.0,0.0,0.0,0.0,0.0,0.0,0.0,0.0,0.0,0.0,0.0,0.0,0.0,0.0,0.0,0.0,0.0,0.0,0.0,0.0,0.0,0.0,0.0,0.0,0.0,0.0,0.0,0.0,0.0,0.0,0.0,0.0,0.0,0.0,0.0,0.0,0.0,0.0,0.0,0.0,0.0,0.0,0.0,0.0,0.0,0.0,0.0,0.0,0.0,0.0,0.0,0.0,0.0,0.0,0.0,0.0,0.0,0.0,0.0,0.0,0.0,0.0,0.0,0.0,0.0,0.0,0.0,0.0,0.0,0.0,0.0,0.0,0.0,0.0,-1.0575,-1.0217,-0.9874,0.0,0.0,0.0,0.0,0.0,0.0,0.0,0.0,0.0,0.0,0.0,0.0,0.0,0.0,0.0,0.0,0.0,0.0,0.0,0.0,0.0,0.0,0.0,0.0,0.0,0.0,0.0,0.0,0.0,0.0,0.0,0.0,0.0,0.0,0.0,0.0,0.0,0.0,0.0,0.0,0.0,0.0,0.0,0.0,0.0,0.0,0.0,0.0,0.0,0.0,0.0,0.0,0.0,0.0,0.0,0.0,0.0,0.0,0.0,0.0,0.0,0.0,0.0,0.0,0.0,0.0,0.0,0.0,0.0,0.0,0.0,0.0,0.0,0.0,0.0,0.0,0.0,0.0,0.0,0.0,0.0,0.0,0.0,0.0,0.0,0.0,0.0,0.0,0.0,0.0,0.0,0.0,0.0,0.0,0.0,0.0,0.0,0.0,0.0,0.0,0.0,0.0,0.0,0.0,0.0,0.0,0.0,0.0,0.0,0.0,-1.0463,0.0,-1.0565,-1.0671,-1.0399,-0.9665,0.0,0.0,0.0,0.0,0.0,0.0,0.0,0.0,0.0,0.0,0.0,0.0,0.0,0.0,0.0,0.0,0.0,0.0,0.0,0.0,0.0,0.0,0.0,0.0,0.0,0.0,0.0,0.0,0.0,0.0,0.0,0.0,0.0,0.0,0.0,0.0,0.0,0.0,0.0,0.0,0.0,0.0,0.0,0.0,0.0,0.0,0.0,0.0,0.0,0.0,0.0,0.0,0.0,0.0,0.0,0.0,0.0,0.0,0.0,0.0,0.0,0.0,0.0,0.0,0.0,0.0,0.0,0.0,0.0,0.0,0.0,0.0,0.0,0.0,0.0,0.0,0.0,0.0,0.0,0.0,0.0,0.0,0.0,0.0,0.0,0.0,0.0,0.0,0.0,0.0,0.0,0.0,0.0,0.0,0.0,0.0,0.0,0.0,0.0,0.0,0.0,0.0,0.0,0.0,0.0,0.0,0.0,0.0,0.0,-1.0961,-1.0519,-1.1655,-1.1132,-1.0464,0.0,0.0,0.0,0.0,0.0,0.0,0.0,0.0,0.0,0.0,0.0,0.0,0.0,0.0,0.0,0.0,0.0,0.0,0.0,0.0,0.0,0.0,0.0,0.0,0.0,0.0,0.0,0.0,0.0,0.0,0.0,0.0,0.0,0.0,0.0,0.0,0.0,0.0,0.0,0.0,0.0,0.0,0.0,0.0,0.0,0.0,0.0,0.0,0.0,0.0,0.0,0.0,0.0,0.0,0.0,0.0,0.0,0.0,0.0,0.0,0.0,0.0,0.0,0.0,0.0,0.0,0.0,0.0,0.0,0.0,0.0,0.0,0.0,0.0,0.0,0.0,0.0,0.0,0.0,0.0,0.0,0.0,0.0,0.0,0.0,0.0,0.0,0.0,0.0,0.0,0.0,0.0,0.0,0.0,0.0,0.0,0.0,0.0,0.0,0.0,0.0,0.0,0.0,0.0,0.0,0.0,0.0,0.0,0.0,-1.0286,-0.9929,-1.0538,0.0,-1.0882,-1.0201,0.0,0.0,0.0,0.0,0.0,0.0,0.0,0.0,0.0,0.0,0.0,0.0,0.0,0.0,0.0,0.0,0.0,0.0,0.0,0.0,0.0,0.0,0.0,0.0,0.0,0.0,0.0,0.0,0.0,0.0,0.0,0.0,0.0,0.0,0.0,0.0,0.0,0.0,0.0,0.0,0.0,0.0,0.0,0.0,0.0,0.0,0.0,0.0,0.0,0.0,0.0,0.0,0.0,0.0,0.0,0.0,0.0,0.0,0.0,0.0,0.0,0.0,0.0,0.0,0.0,0.0,0.0,0.0,0.0,0.0,0.0,0.0,0.0,0.0,0.0,0.0,0.0,0.0,0.0,0.0,0.0,0.0,0.0,0.0,0.0,0.0,0.0,0.0,0.0,0.0,0.0,0.0,0.0,0.0,0.0,0.0,0.0,0.0,0.0,0.0,0.0,0.0,0.0,0.0,0.0,0.0,0.0,0.0,0.0,-1.0052,0.0,-1.1242,0.0,-1.1123,-1.0134,0.0,0.0,0.0,0.0,0.0,0.0,0.0,0.0,0.0,0.0,0.0,0.0,0.0,0.0,0.0,0.0,0.0,0.0,0.0,0.0,0.0,0.0,0.0,0.0,0.0,0.0,0.0,0.0,0.0,0.0,0.0,0.0,0.0,0.0,0.0,0.0,0.0,0.0,0.0,0.0,0.0,0.0,0.0,0.0,0.0,0.0,0.0,0.0,0.0,0.0,0.0,0.0,0.0,0.0,0.0,0.0,0.0,0.0,0.0,0.0,0.0,0.0,0.0,0.0,0.0,0.0,0.0,0.0,0.0,0.0,0.0,0.0,0.0,0.0,0.0,0.0,0.0,0.0,0.0,0.0,0.0,0.0,0.0,0.0,0.0,0.0,0.0,0.0,0.0,0.0,0.0,0.0,0.0,0.0,0.0,0.0,0.0,0.0,0.0,0.0,0.0,0.0,0.0,0.0,0.0,0.0,0.0,0.0,0.0,-1.2524,-1.249,-1.2664,-1.3164,-1.1852,-1.0282,0.0,0.0,0.0,0.0,0.0,0.0,0.0,0.0,0.0,0.0,0.0,0.0,0.0,0.0,0.0,0.0,0.0,0.0,0.0,0.0,0.0,0.0,0.0,0.0,0.0,0.0,0.0,0.0,0.0,0.0,0.0,0.0,0.0,0.0,0.0,0.0,0.0,0.0,0.0,0.0,0.0,0.0,0.0,0.0,0.0,0.0,0.0,0.0,0.0,0.0,0.0,0.0,0.0,0.0,0.0,0.0,0.0,0.0,0.0,0.0,0.0,0.0,0.0,0.0,0.0,0.0,0.0,0.0,0.0,0.0,0.0,0.0,0.0,0.0,0.0,0.0,0.0,0.0,0.0,0.0,0.0,0.0,0.0,0.0,0.0,0.0,0.0,0.0,0.0,0.0,0.0,0.0,0.0,0.0,0.0,0.0,0.0,0.0,0.0,0.0,0.0,0.0,0.0,0.0,0.0,0.0,0.0,0.0,0.0,-1.2058,-1.2412,-1.3217,-1.4398,-1.1751,-1.0487,0.0,0.0,0.0,0.0,0.0,0.0,0.0,0.0,0.0,0.0,0.0,0.0,0.0,0.0,0.0,0.0,0.0,0.0,0.0,0.0,0.0,0.0,0.0,0.0,0.0,0.0,0.0,0.0,0.0,0.0,0.0,0.0,0.0,0.0,0.0,0.0,0.0,0.0,0.0,0.0,0.0,0.0,0.0,0.0,0.0,0.0,0.0,0.0,0.0,0.0,0.0,0.0,0.0,0.0,0.0,0.0,0.0,0.0,0.0,0.0,0.0,0.0,0.0,0.0,0.0,0.0,0.0,0.0,0.0,0.0,0.0,0.0,0.0,0.0,0.0,0.0,0.0,0.0,0.0,0.0,0.0,0.0,0.0,0.0,0.0,0.0,0.0,0.0,0.0,0.0,0.0,0.0,0.0,0.0,0.0,0.0,0.0,0.0,0.0,0.0,0.0,0.0,0.0,0.0,0.0,0.0,0.0,0.0,0.0,-1.3912,-1.419,-1.466,-1.5338,-1.2829,-1.1444,-1.1337,0.0,0.0,0.0,0.0,0.0,0.0,0.0,0.0,0.0,0.0,0.0,0.0,0.0,0.0,0.0,0.0,0.0,0.0,0.0,0.0,0.0,0.0,0.0,0.0,0.0,0.0,0.0,0.0,0.0,0.0,0.0,0.0,0.0,0.0,0.0,0.0,0.0,0.0,0.0,0.0,0.0,0.0,0.0,0.0,0.0,0.0,0.0,0.0,0.0,0.0,0.0,0.0,0.0,0.0,0.0,0.0,0.0,0.0,0.0,0.0,0.0,0.0,0.0,0.0,0.0,0.0,0.0,0.0,0.0,0.0,0.0,0.0,0.0,0.0,0.0,0.0,0.0,0.0,0.0,0.0,0.0,0.0,0.0,0.0,0.0,0.0,0.0,0.0,0.0,0.0,0.0,0.0,0.0,0.0,0.0,0.0,0.0,0.0,0.0,0.0,0.0,0.0,0.0,0.0,0.0,0.0,0.0,0.0,-1.7574,-1.7544,-1.7015,-1.5891,-1.4883,-1.3045,0.0,0.0,0.0,0.0,0.0,0.0,0.0,0.0,0.0,0.0,0.0,0.0,0.0,0.0,0.0,0.0,0.0,0.0,0.0,0.0,0.0,0.0,0.0,0.0,0.0,0.0,0.0,0.0,0.0,0.0,0.0,0.0,0.0,0.0,0.0,0.0,0.0,0.0,0.0,0.0,0.0,0.0,0.0,0.0,0.0,0.0,0.0,0.0,0.0,0.0,0.0,0.0,0.0,0.0,0.0,0.0,0.0,0.0,0.0,0.0,0.0,0.0,0.0,0.0,0.0,0.0,0.0,0.0,0.0,0.0,0.0,0.0,0.0,0.0,0.0,0.0,0.0,0.0,0.0,0.0,0.0,0.0,0.0,0.0,0.0,0.0,0.0,0.0,0.0,0.0,0.0,0.0,0.0,0.0,0.0,0.0,0.0,0.0,0.0,0.0,0.0,0.0,0.0,0.0,0.0,0.0,0.0,0.0,0.0,-1.9736,-2.0193,-1.9865,-1.871,-1.6489,-1.48,0.0,0.0,0.0,0.0,0.0,0.0,0.0,0.0,0.0,0.0,0.0,0.0,0.0,0.0,0.0,0.0,0.0,0.0,0.0,0.0,0.0,0.0,0.0,0.0,0.0,0.0,0.0,0.0,0.0,0.0,0.0,0.0,0.0,0.0,0.0,0.0,0.0,0.0,0.0,0.0,0.0,0.0,0.0,0.0,0.0,0.0,0.0,0.0,0.0,0.0,0.0,0.0,0.0,0.0,0.0,0.0,0.0,0.0,0.0,0.0,0.0,0.0,0.0,0.0,0.0,0.0,0.0,0.0,0.0,0.0,0.0,0.0,0.0,0.0,0.0,0.0,0.0,0.0,0.0,0.0,0.0,0.0,0.0,0.0,0.0,0.0,0.0,0.0,0.0,0.0,0.0,0.0,0.0,0.0,0.0,0.0,0.0,0.0,0.0,0.0,0.0,0.0,0.0,0.0,0.0,0.0,0.0,0.0,-1.8694,-2.0993,-2.1769,-2.187,-2.1177,-1.8709,-1.6501,0.0,0.0,0.0,0.0,0.0,0.0,0.0,0.0,0.0,0.0,0.0,0.0,0.0,0.0,0.0,0.0,0.0,0.0,0.0,0.0,0.0,0.0,0.0,0.0,0.0,0.0,0.0,0.0,0.0,0.0,0.0,0.0,0.0,0.0,0.0,0.0,0.0,0.0,0.0,0.0,0.0,0.0,0.0,0.0,0.0,0.0,0.0,0.0,0.0,0.0,0.0,0.0,0.0,0.0,0.0,0.0,0.0,0.0,0.0,0.0,0.0,0.0,0.0,0.0,0.0,0.0,0.0,0.0,0.0,0.0,0.0,0.0,0.0,0.0,0.0,0.0,0.0,0.0,0.0,0.0,0.0,0.0,0.0,0.0,0.0,0.0,0.0,0.0,0.0,0.0,0.0,0.0,0.0,0.0,0.0,0.0,0.0,0.0,0.0,0.0,0.0,0.0,0.0,0.0,0.0,0.0,0.0,0.0,-1.9936,-2.1659,-2.2656,-2.3183,-2.3133,-2.1054,-1.8201,0.0,0.0,0.0,0.0,0.0,0.0,0.0,0.0,0.0,0.0,0.0,0.0,0.0,0.0,0.0,0.0,0.0,0.0,0.0,0.0,0.0,0.0,0.0,0.0,0.0,0.0,0.0,0.0,0.0,0.0,0.0,0.0,0.0,0.0,0.0,0.0,0.0,0.0,0.0,0.0,0.0,0.0,0.0,0.0,0.0,0.0,0.0,0.0,0.0,0.0,0.0,0.0,0.0,0.0,0.0,0.0,0.0,0.0,0.0,0.0,0.0,0.0,0.0,0.0,0.0,0.0,0.0,0.0,0.0,0.0,0.0,0.0,0.0,0.0,0.0,0.0,0.0,0.0,0.0,0.0,0.0,0.0,0.0,0.0,0.0,0.0,0.0,0.0,0.0,0.0,0.0,0.0,0.0,0.0,0.0,0.0,0.0,0.0,0.0,0.0,0.0,0.0,0.0,0.0,0.0,0.0,0.0,0.0,-2.0652,-2.2694,-2.3452,-2.3816,-2.3803,-2.1685,-1.9509,0.0,0.0,0.0,0.0,0.0,0.0,0.0,0.0,0.0,0.0,0.0,0.0,0.0,0.0,0.0,0.0,0.0,0.0,0.0,0.0,0.0,0.0,0.0,0.0,0.0,0.0,0.0,0.0,0.0,0.0,0.0,0.0,0.0,0.0,0.0,0.0,0.0,0.0,0.0,0.0,0.0,0.0,0.0,0.0,0.0,0.0,0.0,0.0,-1.249,0.0,0.0,0.0,0.0,0.0,0.0,0.0,0.0,0.0,0.0,0.0,0.0,0.0,0.0,0.0,0.0,0.0,0.0,0.0,0.0,0.0,0.0,0.0,0.0,0.0,0.0,0.0,0.0,0.0,0.0,0.0,0.0,0.0,0.0,0.0,0.0,0.0,0.0,0.0,0.0,0.0,0.0,0.0,0.0,0.0,0.0,0.0,0.0,0.0,0.0,0.0,0.0,0.0,0.0,0.0,0.0,0.0,0.0,0.0,-2.1543,-2.3446,-2.3841,-2.4117,-2.4293,-2.225,-2.0162,0.0,0.0,0.0,0.0,0.0,0.0,0.0,0.0,0.0,0.0,0.0,0.0,0.0,0.0,0.0,0.0,0.0,0.0,0.0,0.0,0.0,0.0,0.0,0.0,0.0,0.0,0.0,0.0,0.0,0.0,0.0,0.0,0.0,0.0,0.0,0.0,0.0,0.0,0.0,0.0,0.0,0.0,0.0,0.0,0.0,0.0,0.0,0.0,0.0,0.0,0.0,0.0,0.0,0.0,0.0,0.0,0.0,0.0,0.0,0.0,0.0,0.0,0.0,0.0,0.0,0.0,0.0,0.0,0.0,0.0,0.0,0.0,0.0,0.0,0.0,0.0,0.0,0.0,0.0,0.0,0.0,0.0,0.0,0.0,0.0,0.0,0.0,0.0,0.0,0.0,0.0,0.0,0.0,0.0,0.0,0.0,0.0,0.0,0.0,0.0,0.0,0.0,0.0,0.0,0.0,0.0,0.0,-1.9811,-2.2171,-2.4029,-2.4042,-2.4268,-2.4738,-2.256,-2.0395,-1.8368,0.0,0.0,0.0,0.0,0.0,0.0,0.0,0.0,0.0,0.0,0.0,0.0,0.0,0.0,0.0,0.0,0.0,0.0,0.0,0.0,0.0,0.0,0.0,0.0,0.0,0.0,0.0,0.0,0.0,0.0,0.0,0.0,0.0,0.0,0.0,0.0,0.0,0.0,-1.0152,-1.2086,0.0,0.0,0.0,0.0,0.0,0.0,0.0,0.0,-1.4081,0.0,0.0,0.0,0.0,0.0,0.0,0.0,0.0,0.0,0.0,0.0,0.0,0.0,0.0,0.0,0.0,0.0,0.0,0.0,0.0,0.0,0.0,0.0,0.0,0.0,0.0,0.0,0.0,0.0,0.0,0.0,0.0,0.0,0.0,0.0,0.0,0.0,0.0,0.0,0.0,0.0,0.0,0.0,0.0,0.0,0.0,0.0,0.0,0.0,0.0,0.0,0.0,0.0,0.0,0.0,0.0,-1.9183,-1.9798,-2.1568,-2.455,-2.423,-2.4255,-2.47,-2.2059,-2.0055,-1.8833,0.0,0.0,0.0,0.0,0.0,0.0,0.0,0.0,0.0,0.0,0.0,0.0,0.0,0.0,0.0,0.0,0.0,0.0,0.0,0.0,0.0,0.0,0.0,0.0,0.0,0.0,0.0,0.0,0.0,0.0,0.0,0.0,0.0,0.0,0.0,0.0,0.0,0.0,0.0,-1.4341,-1.5639,0.0,0.0,0.0,0.0,0.0,0.0,0.0,0.0,-1.5007,0.0,0.0,0.0,0.0,0.0,0.0,0.0,0.0,0.0,0.0,0.0,0.0,0.0,0.0,0.0,0.0,0.0,0.0,0.0,0.0,0.0,0.0,0.0,0.0,0.0,0.0,0.0,0.0,0.0,0.0,0.0,0.0,0.0,0.0,0.0,0.0,0.0,0.0,0.0,0.0,0.0,0.0,0.0,0.0,0.0,0.0,0.0,0.0,0.0,0.0,0.0,0.0,0.0,0.0,0.0,-1.8832,-2.0376,-2.2309,-2.4675,-2.428,-2.4255,-2.4713,-2.1724,-1.9622,0.0,0.0,0.0,0.0,0.0,0.0,0.0,0.0,0.0,0.0,0.0,0.0,0.0,0.0,0.0,0.0,0.0,0.0,0.0,0.0,0.0,0.0,0.0,0.0,0.0,0.0,0.0,0.0,0.0,0.0,0.0,0.0,0.0,0.0,0.0,0.0,0.0,0.0,0.0,0.0,-1.4921,-1.5773,-1.5668,0.0,0.0,0.0,0.0,0.0,0.0,-1.6159,-1.562,0.0,0.0,0.0,0.0,0.0,0.0,0.0,0.0,0.0,0.0,0.0,0.0,0.0,0.0,0.0,0.0,0.0,0.0,0.0,0.0,0.0,0.0,0.0,0.0,0.0,0.0,0.0,0.0,0.0,0.0,0.0,0.0,0.0,0.0,0.0,0.0,0.0,0.0,0.0,0.0,0.0,0.0,0.0,0.0,0.0,0.0,0.0,0.0,0.0,0.0,0.0,0.0,0.0,0.0,0.0,-1.8179,-2.0577,-2.2736,-2.4499,-2.3947,-2.3935,-2.4537,-2.1324,-1.9105,0.0,0.0,0.0,0.0,0.0,0.0,0.0,0.0,0.0,0.0,0.0,0.0,0.0,0.0,0.0,0.0,0.0,0.0,0.0,0.0,0.0,0.0,0.0,0.0,0.0,0.0,0.0,0.0,0.0,0.0,0.0,0.0,0.0,0.0,0.0,0.0,0.0,0.0,0.0,0.0,0.0,-1.6059,-1.6789,-1.6145,0.0,0.0,0.0,0.0,-1.7773,-1.7266,0.0,0.0,0.0,0.0,0.0,0.0,0.0,0.0,0.0,0.0,0.0,0.0,0.0,0.0,0.0,0.0,0.0,0.0,0.0,0.0,0.0,0.0,0.0,0.0,0.0,0.0,0.0,0.0,0.0,0.0,0.0,0.0,0.0,0.0,0.0,0.0,0.0,0.0,0.0,0.0,0.0,0.0,0.0,0.0,0.0,0.0,0.0,0.0,0.0,0.0,0.0,0.0,0.0,0.0,0.0,0.0,-1.8103,-1.9434,-2.1393,-2.3873,-2.2835,-2.278,-2.401,-2.0546,-1.8513,0.0,0.0,0.0,0.0,0.0,0.0,0.0,0.0,0.0,0.0,0.0,0.0,0.0,0.0,0.0,0.0,0.0,0.0,0.0,0.0,0.0,0.0,0.0,0.0,0.0,0.0,0.0,0.0,0.0,0.0,0.0,0.0,0.0,0.0,0.0,0.0,0.0,0.0,0.0,0.0,0.0,-1.8064,-1.7047,-1.7279,-1.7554,0.0,0.0,-1.9076,-1.8672,-1.9447,0.0,0.0,0.0,0.0,0.0,0.0,0.0,0.0,0.0,0.0,0.0,0.0,0.0,0.0,0.0,0.0,0.0,0.0,0.0,0.0,0.0,0.0,0.0,0.0,0.0,0.0,0.0,0.0,0.0,0.0,0.0,0.0,0.0,0.0,0.0,0.0,0.0,0.0,0.0,0.0,0.0,0.0,0.0,0.0,0.0,0.0,0.0,0.0,0.0,0.0,0.0,0.0,0.0,0.0,0.0,-1.5505,-1.8141,-1.9886,-2.1807,-2.3891,-2.3047,-2.2874,-2.3471,-2.0421,-1.8298,0.0,0.0,0.0,0.0,0.0,0.0,0.0,0.0,0.0,0.0,0.0,0.0,0.0,0.0,0.0,0.0,0.0,0.0,0.0,0.0,0.0,0.0,0.0,0.0,0.0,0.0,0.0,0.0,0.0,0.0,0.0,0.0,0.0,0.0,0.0,0.0,0.0,0.0,0.0,0.0,0.0,0.0,-1.7553,-1.7492,0.0,0.0,0.0,-1.9872,-2.0333,0.0,0.0,0.0,0.0,0.0,0.0,0.0,0.0,0.0,0.0,0.0,0.0,0.0,0.0,0.0,0.0,0.0,0.0,0.0,0.0,0.0,0.0,0.0,0.0,0.0,0.0,0.0,0.0,0.0,0.0,0.0,0.0,0.0,0.0,0.0,0.0,0.0,0.0,0.0,0.0,0.0,0.0,0.0,0.0,0.0,0.0,0.0,0.0,0.0,0.0,0.0,0.0,0.0,0.0,0.0,0.0,0.0,-1.8191,-2.0376,-2.2234,-2.3703,-2.3126,-2.2839,-2.2857,-2.0153,0.0,0.0,0.0,0.0,0.0,0.0,0.0,0.0,0.0,0.0,0.0,0.0,0.0,0.0,0.0,0.0,0.0,0.0,0.0,0.0,0.0,0.0,0.0,0.0,0.0,0.0,0.0,-0.659,0.0,0.0,0.0,0.0,0.0,0.0,0.0,0.0,0.0,0.0,0.0,0.0,0.0,0.0,-1.7117,-1.795,-1.7923,-1.8202,0.0,0.0,-2.0681,-2.135,-2.0872,-1.9992,0.0,0.0,0.0,0.0,0.0,0.0,0.0,0.0,0.0,0.0,0.0,0.0,0.0,0.0,0.0,0.0,0.0,0.0,0.0,0.0,0.0,0.0,0.0,0.0,0.0,0.0,0.0,0.0,0.0,0.0,0.0,0.0,0.0,0.0,0.0,0.0,0.0,0.0,0.0,0.0,0.0,0.0,0.0,0.0,0.0,0.0,0.0,0.0,0.0,0.0,0.0,0.0,0.0,0.0,0.0,-1.8179,-2.0363,-2.2046,-2.3078,-2.2365,-2.2122,-2.2301,-1.934,-1.7597,0.0,0.0,0.0,0.0,0.0,0.0,0.0,0.0,0.0,0.0,0.0,0.0,0.0,0.0,0.0,0.0,0.0,0.0,0.0,0.0,0.0,0.0,0.0,0.0,0.0,0.0,0.0,0.0,0.0,0.0,0.0,0.0,0.0,0.0,0.0,0.0,0.0,0.0,0.0,0.0,0.0,-1.8536,-1.8077,-1.8982,-1.9907,0.0,0.0,-2.2099,-2.0942,-2.1739,-2.143,-1.8281,0.0,0.0,0.0,0.0,0.0,0.0,0.0,0.0,0.0,0.0,0.0,0.0,0.0,0.0,0.0,0.0,0.0,0.0,0.0,0.0,0.0,0.0,0.0,0.0,0.0,0.0,0.0,0.0,0.0,0.0,0.0,0.0,0.0,0.0,0.0,0.0,0.0,0.0,0.0,0.0,0.0,0.0,0.0,0.0,0.0,0.0,0.0,0.0,0.0,0.0,0.0,0.0,0.0,-1.599,-1.8191,-2.0376,-2.202,-2.3015,-2.2793,-2.2385,-2.182,-1.9939,-1.83,0.0,0.0,0.0,0.0,0.0,0.0,0.0,0.0,0.0,0.0,0.0,0.0,0.0,0.0,0.0,0.0,0.0,0.0,0.0,0.0,0.0,0.0,0.0,0.0,0.0,0.0,0.0,0.0,-0.659,-0.683,-0.7366,0.0,0.0,0.0,0.0,0.0,0.0,0.0,0.0,0.0,0.0,-1.791,-1.8106,-1.9135,0.0,0.0,-2.1893,-2.2658,-2.2517,-2.2248,-2.15,-1.9824,-1.8864,0.0,0.0,0.0,0.0,0.0,0.0,0.0,0.0,0.0,0.0,0.0,0.0,0.0,0.0,0.0,0.0,0.0,0.0,0.0,0.0,0.0,0.0,0.0,0.0,0.0,0.0,0.0,0.0,0.0,0.0,0.0,0.0,0.0,0.0,0.0,0.0,0.0,0.0,0.0,0.0,0.0,0.0,0.0,0.0,0.0,0.0,0.0,0.0,0.0,0.0,0.0,0.0,-1.5844,-1.8406,-2.0264,-2.1778,-2.3083,-2.3095,-2.2581,-2.1518,-2.0564,-1.902,0.0,0.0,0.0,0.0,0.0,0.0,0.0,0.0,0.0,0.0,0.0,0.0,0.0,0.0,0.0,0.0,0.0,0.0,0.0,0.0,0.0,0.0,0.0,0.0,0.0,0.0,0.0,0.0,-0.674,-0.6893,-0.7004,0.0,0.0,0.0,0.0,0.0,0.0,0.0,0.0,0.0,0.0,-1.7917,-1.838,-1.9571,-2.0592,-2.1057,-2.2185,-2.2987,-2.3026,-2.2443,-2.1575,-2.0303,0.0,0.0,0.0,0.0,0.0,0.0,0.0,0.0,0.0,0.0,0.0,0.0,0.0,0.0,0.0,0.0,0.0,0.0,0.0,0.0,0.0,0.0,0.0,0.0,0.0,0.0,0.0,0.0,0.0,0.0,-0.6355,0.0,0.0,0.0,0.0,0.0,0.0,0.0,0.0,0.0,0.0,0.0,0.0,0.0,0.0,0.0,0.0,0.0,0.0,0.0,0.0,0.0,0.0,0.0,-1.892,-1.9952,-2.1331,-2.3027,-2.3095,-2.2581,-2.1531,-2.0968,-1.9623,-1.7353,0.0,0.0,0.0,0.0,0.0,0.0,0.0,0.0,0.0,0.0,0.0,0.0,0.0,0.0,0.0,0.0,0.0,0.0,0.0,0.0,0.0,0.0,0.0,0.0,0.0,0.0,-0.659,-0.7056,-0.7178,0.0,0.0,0.0,0.0,0.0,0.0,0.0,0.0,0.0,0.0,-1.7817,-1.8965,-1.8992,-2.0505,-2.1631,-2.1683,-2.2749,-2.3176,-2.2024,-2.2263,-2.1774,0.0,0.0,0.0,0.0,0.0,0.0,0.0,0.0,0.0,0.0,0.0,0.0,0.0,0.0,0.0,0.0,0.0,0.0,0.0,0.0,0.0,0.0,0.0,0.0,0.0,0.0,0.0,-0.9482,-0.9168,0.0,0.0,0.0,0.0,0.0,0.0,0.0,0.0,0.0,0.0,0.0,-1.3522,-1.4387,0.0,0.0,0.0,0.0,0.0,0.0,0.0,0.0,0.0,0.0,0.0,0.0,-1.6371,-1.892,-2.0397,-2.1778,-2.3058,-2.3095,-2.2581,-2.1518,-2.049,-1.837,-1.5035,0.0,0.0,0.0,0.0,0.0,0.0,0.0,0.0,0.0,0.0,0.0,0.0,0.0,0.0,0.0,0.0,0.0,0.0,0.0,0.0,0.0,0.0,0.0,0.0,0.0,-0.659,0.0,0.0,0.0,0.0,0.0,0.0,0.0,0.0,0.0,0.0,0.0,-1.6451,-1.7295,-1.8318,-1.9001,-1.9007,-2.0483,-2.1803,0.0,0.0,0.0,0.0,0.0,0.0,0.0,0.0,0.0,0.0,0.0,0.0,0.0,0.0,-1.972,-1.6667,-1.5754,-1.5544,-1.5754,0.0,0.0,0.0,0.0,0.0,0.0,0.0,0.0,0.0,0.0,0.0,0.0,0.0,0.0,-1.1602,0.0,-1.0546,0.0,0.0,0.0,0.0,0.0,0.0,0.0,0.0,-1.4189,-1.5029,-1.5733,-1.6578,-1.6427,0.0,-1.5859,-1.4393,0.0,0.0,0.0,0.0,0.0,0.0,0.0,0.0,-1.7124,-1.9522,-2.0769,-2.1948,-2.3058,-2.3095,-2.2581,-2.1506,-1.9864,-1.7631,-1.4733,-1.4571,-1.3557,0.0,0.0,0.0,0.0,0.0,0.0,0.0,0.0,0.0,0.0,0.0,0.0,0.0,0.0,0.0,0.0,0.0,0.0,0.0,0.0,0.0,0.0,0.0,-0.7197,0.0,0.0,0.0,0.0,0.0,0.0,0.0,0.0,0.0,-1.5501,-1.6297,-1.726,-1.847,-1.8814,-1.9208,-1.9773,0.0,0.0,0.0,0.0,0.0,0.0,0.0,-2.2374,-2.3448,-2.3088,-2.2877,-2.3444,-2.3978,-2.4148,-2.3684,0.0,0.0,-1.8824,-1.7821,-1.7565,-1.7806,-1.8704,-1.9331,-1.9134,-2.0105,-2.0932,0.0,0.0,0.0,0.0,0.0,0.0,0.0,0.0,-1.3691,-1.3506,0.0,-1.2866,0.0,0.0,0.0,0.0,0.0,-1.3359,0.0,0.0,-1.6973,-1.7803,-1.7471,-1.7842,-1.7607,-1.6853,-1.7598,-1.6885,-1.4851,-1.3049,0.0,0.0,0.0,0.0,0.0,0.0,-1.7787,-2.0534,-2.0964,-2.1747,-2.295,-2.2975,-2.2493,-2.1409,-1.9158,-1.7466,-1.6408,-1.5737,-1.4484,-1.2488,-1.1903,0.0,0.0,0.0,0.0,0.0,0.0,0.0,0.0,0.0,0.0,0.0,0.0,0.0,0.0,0.0,0.0,0.0,0.0,0.0,0.0,-0.7962,0.0,0.0,0.0,0.0,0.0,0.0,0.0,0.0,0.0,0.0,-1.6386,-1.7354,-1.8503,-1.9762,0.0,0.0,0.0,0.0,-2.1826,-2.2377,-2.2963,-2.3407,-2.354,-2.3979,-2.4178,-2.3696,0.0,0.0,-2.376,-2.4752,-2.5226,-2.3954,-2.4238,-2.4231,-2.2972,-2.153,-2.0887,-2.1425,-2.1111,-2.1006,-2.1545,-2.1665,-2.1784,-2.1789,0.0,0.0,0.0,0.0,-1.7112,-1.7172,-1.8319,-1.7083,-1.6307,-1.5917,-1.5273,0.0,0.0,0.0,0.0,0.0,0.0,-1.5751,-1.709,-1.7701,-1.8262,-1.8785,-1.8867,-1.8789,-1.8564,-1.8496,-1.7988,-1.7051,-1.592,-1.4298,-1.2247,0.0,0.0,0.0,0.0,-1.8318,-2.0197,-2.0208,-2.0511,-2.1279,-2.1322,-2.0834,-1.9814,-1.909,-1.7919,-1.6297,-1.6174,-1.5496,-1.4131,-1.3181,0.0,0.0,0.0,0.0,0.0,0.0,0.0,0.0,0.0,0.0,0.0,0.0,0.0,0.0,0.0,0.0,0.0,0.0,0.0,-0.7999,-0.82,-0.8612,0.0,0.0,0.0,0.0,0.0,0.0,0.0,0.0,0.0,-1.8736,-1.9066,-1.9901,0.0,0.0,-2.1158,-2.2148,-2.2187,-2.2349,-2.3007,0.0,0.0,0.0,-2.3123,-2.2774,-2.3957,-2.5132,-2.602,-2.6376,-2.6361,-2.6183,-2.5779,-2.551,-2.5196,-2.4777,-2.331,-2.2313,-2.2358,-2.2254,-2.2173,-2.2388,-2.2748,-2.3056,-2.5114,-2.3279,-2.1227,-2.0673,-2.1015,-1.926,-1.9111,-2.0026,-1.8982,-1.8418,-1.8203,-1.7432,-1.6514,-1.5478,-1.4981,0.0,0.0,0.0,-1.7187,-1.8516,-1.8691,-1.9131,-1.9766,-1.9795,-1.9697,-1.9521,-1.9231,-1.8926,-1.8516,-1.7998,-1.6572,-1.4363,0.0,0.0,-1.6849,-1.8063,-1.9452,-2.096,-2.1056,-2.1225,-2.1561,-2.1174,-2.0669,-2.0064,-1.931,-1.8196,-1.6711,-1.6667,-1.6206,-1.5162,-1.4289,-1.3338,0.0,0.0,0.0,0.0,0.0,0.0,0.0,0.0,0.0,0.0,0.0,-0.8913,0.0,0.0,0.0,0.0,-0.8402,-0.8941,-0.9541,-1.0207,0.0,0.0,0.0,0.0,0.0,0.0,0.0,-1.72,-1.8706,-1.9874,-2.0401,-2.0665,-2.1192,-2.2323,-2.1914,-2.18,-2.2657,0.0,-2.2546,-2.3183,-2.2903,-2.3019,-2.4145,-2.3364,-2.311,-2.4572,-2.5731,-2.6602,-2.706,-2.704,-2.6991,-2.6931,-2.6647,-2.6393,-2.6393,-2.5219,-2.4155,-2.3916,-2.3871,-2.3834,-2.3834,-2.4133,-2.4343,-2.707,-2.6299,-2.2721,-2.1426,-2.1634,-2.0614,-2.0398,-2.0644,-1.9936,-2.0025,-2.0518,-1.9365,-1.8773,-1.8627,-1.7438,0.0,-1.7631,-1.7978,-1.8603,-1.9441,-1.9785,-2.0176,-2.0605,-2.0605,-2.0352,-1.9971,-1.9961,-1.9746,-1.9346,-1.9363,-1.8756,-1.7562,-1.6941,-1.7532,-1.9207,-1.9795,-2.0734,-2.2038,-2.2431,-2.272,-2.2768,-2.1873,-2.1397,-2.1356,-1.9631,-1.8269,-1.7411,-1.7097,-1.6575,-1.5712,-1.5213,-1.4463,-1.3366,0.0,0.0,0.0,0.0,0.0,0.0,0.0,0.0,0.0,0.0,0.0,0.0,0.0,0.0,0.0,-1.0495,0.0,-1.1741,-1.3191,0.0,0.0,0.0,-1.6107,-1.6638,-1.7714,-1.8781,-1.9761,0.0,0.0,-2.1493,0.0,-2.2355,-2.2355,-2.1945,-2.1983,-2.3047,-2.2745,-2.2531,-2.3055,-2.3083,-2.3352,-2.4008,-2.4029,-2.4233,-2.5037,-2.5878,-2.6256,-2.6416,-2.7008,-2.7433,-2.7429,-2.7519,-2.7555,-2.757,-2.6971,-2.6482,-2.5824,-2.5615,-2.5555,-2.5465,-2.548,-2.5315,-2.7834,-2.7482,-2.4956,-2.3505,-2.289,-2.2733,-2.223,-2.1665,-2.2257,-2.1986,-2.1015,-2.0713,-2.0206,-1.957,-1.8965,-1.8916,-1.9316,-1.9377,-1.9746,-2.0292,-2.04,-2.0498,-2.0605,-2.0615,-2.0546,-2.0449,-2.0449,-2.0185,-1.9775,-1.9766,-1.9453,-1.8883,-1.869,-1.8499,-1.8354,-1.8703,-1.9261,-1.9996,-1.9498,-1.9519,-2.0171,-2.0402,-2.0526,-2.0514,-1.9027,-1.8175,-1.7979,-1.6621,-1.601,-1.6253,-1.5742,-1.5163,-1.4525,-1.2793,0.0,0.0,0.0,0.0,0.0,0.0,0.0,0.0,0.0,-1.1958,-0.9314,0.0,-1.2074,0.0,-1.1326,-1.1967,-1.3367,-1.3876,0.0,0.0,-1.6861,-1.7827,-1.8356,-1.9422,-2.0214,-2.0453,-2.1345,-2.197,-2.2108,-2.2569,-2.2907,-2.2907,-2.2794,-2.3044,-2.3846,-2.3382,-2.2957,-2.307,-2.3095,-2.3155,-2.3365,-2.3365,-2.3666,-2.4436,-2.4738,-2.5007,-2.5563,-2.6283,-2.6759,-2.68,-2.7229,-2.7534,-2.7585,-2.745,-2.733,-2.7106,-2.6318,-2.56,-2.56,-2.563,-2.557,-2.8084,-2.7924,-2.5734,-2.4493,-2.3939,-2.3504,-2.2992,-2.2474,-2.2865,-2.2571,-2.1746,-2.1611,-2.125,-2.0791,-2.0547,-2.0576,-2.0771,-2.0586,-2.0635,-2.085,-2.0693,-2.0615,-2.0615,-2.0615,-2.0615,-2.0615,-2.0615,-2.0488,-2.0215,-2.0205,-1.999,-1.957,-1.957,-1.9235,-1.8629,-1.894,-1.9378,-1.989,-1.9398,-1.9398,-1.9857,-2.0072,-2.0091,-1.983,-1.9202,-1.8511,-1.7877,-1.7109,-1.664,-1.6495,-1.6173,-1.5779,-1.5246,-1.3928,-1.2617,0.0,0.0,0.0,0.0,0.0,0.0,0.0,0.0,0.0,0.0,0.0,-1.3358,-1.2759,-1.3136,-1.4016,-1.5444,-1.6225,-1.6908,-1.7553,-1.8844,-1.9786,-2.0073,-2.0878,-2.1493,-2.1744,-2.2297,-2.2644,-2.2656,-2.2907,-2.3208,-2.3446,-2.3484,-2.3566,-2.3684,-2.3365,-2.3095,-2.3095,-2.3095,-2.3095,-2.3095,-2.3095,-2.3365,-2.4105,-2.4279,-2.4624,-2.5673,-2.6203,-2.659,-2.6945,-2.7331,-2.7585,-2.7585,-2.7585,-2.7585,-2.7495,-2.7031,-2.6542,-2.6467,-2.6482,-2.6422,-2.8004,-2.7723,-2.565,-2.4702,-2.4489,-2.3507,-2.3101,-2.3115,-2.2873,-2.2716,-2.2568,-2.2148,-2.1973,-2.1963,-2.1904,-2.1936,-2.1865,-2.1494,-2.1278,-2.1259,-2.0859,-2.0683,-2.0683,-2.0635,-2.0615,-2.0615,-2.0615,-2.0615,-2.0615,-2.0615,-2.041,-2.001,-2.0094,-1.9962,-1.9574,-1.9862,-2.0107,-2.0279,-2.0365,-2.043,-2.0451,-2.0192,-1.9841,-1.9383,-1.9344,-1.8722,-1.7449,-1.7686,-1.7458,-1.6575,-1.6513,-1.6296,-1.5806,-1.4771,-1.3934,0.0,-1.2303,0.0,0.0,0.0,0.0,0.0,0.0,0.0,0.0,-1.4456,-1.4588,-1.4544,-1.55,-1.6559,-1.7601,-1.9032,-1.9761,-1.9409,-2.0677,-2.1594,-2.1606,-2.2083,-2.2569,-2.3045,-2.3095,-2.312,-2.3208,-2.3221,-2.3421,-2.3991,-2.4104,-2.3972,-2.3489,-2.3339,-2.3283,-2.3296,-2.3258,-2.3258,-2.3133,-2.3095,-2.3335,-2.3972,-2.4089,-2.4652,-2.5878,-2.6108,-2.6416,-2.706,-2.7203,-2.7291,-2.7408,-2.7433,-2.7473,-2.7575,-2.7525,-2.7495,-2.7495,-2.748,-2.7405,-2.7602,-2.6719,-2.5378,-2.4286,-2.343,-2.3178,-2.3101,-2.3178,-2.399,-2.3841,-2.2988,-2.2588,-2.2393,-2.2363,-2.2041,-2.1936,-2.1885,-2.1807,-2.1758,-2.1748,-2.1309,-2.1113,-2.1044,-2.0781,-2.0615,-2.0615,-2.0615,-2.0615,-2.0615,-2.0615,-2.0566,-2.0478,-2.1204,-2.1383,-2.1011,0.0,0.0,0.0,-1.9177,-1.9562,-1.9563,-1.9412,-1.9245,-1.9138,-1.768,0.0,-1.7135,-1.6463,-1.6227,-1.6491,-1.6513,0.0,0.0,0.0,0.0,0.0,0.0,0.0,0.0,0.0,0.0,0.0,-1.6019,-1.6078,-1.4909,-1.6371,-1.725,-1.6845,-1.7752,-1.8632,-1.9284,-2.0063,-2.0679,-2.1016,-2.1707,-2.2146,-2.2184,-2.2619,-2.3007,-2.3083,-2.3108,-2.3296,-2.374,-2.3828,-2.4042,-2.4556,-2.4625,-2.46,-2.4531,-2.4117,-2.3973,-2.4336,-2.4048,-2.3653,-2.3183,-2.312,-2.3206,-2.3318,-2.3348,-2.3721,-2.4567,-2.4781,-2.5007,-2.5755,-2.581,-2.6081,-2.6616,-2.6721,-2.6956,-2.7473,-2.756,-2.7585,-2.7585,-2.7585,-2.757,-2.7775,0.0,-2.6088,-2.4967,0.0,-2.392,-2.3627,-2.3135,-2.3724,-2.3637,-2.3081,-2.2877,-2.2779,-2.2812,-2.2598,-2.251,-2.25,-2.2285,-2.2197,-2.2168,-2.1758,-2.1562,-2.1543,-2.1113,-2.0898,-2.0889,-2.0674,-2.0615,-2.0615,-2.0615,-2.0818,-2.1298,-2.1298,-2.1442,-2.1681,-2.102,-1.9815,-1.8018,-1.8428,-1.8654,-1.8657,-1.8754,-1.8581,-1.8075,0.0,0.0,0.0,0.0,0.0,0.0,0.0,0.0,0.0,0.0,0.0,-1.6116,-1.558,-1.5266,-1.5271,-1.5827,-1.6367,-1.6898,-1.7714,-1.7727,-1.6619,-1.7564,-1.8317,-1.8568,-1.9095,-1.9748,-2.0552,-2.1169,-2.1594,-2.1882,-2.2385,-2.2694,-2.2719,-2.2932,-2.3095,-2.3133,-2.3358,-2.369,-2.3966,-2.4255,-2.4619,-2.5076,-2.5209,-2.531,-2.5498,-2.4921,-2.4544,-2.4725,-2.4356,-2.3916,-2.3609,-2.3565,-2.3396,-2.3221,-2.3346,-2.3704,-2.4229,-2.4279,-2.461,-2.566,-2.596,-2.6095,-2.6431,-2.6774,-2.6956,-2.6707,-2.7111,-2.7408,-2.7203,-2.7331,-2.7585,-2.7964,-2.7723,-2.6666,-2.5546,-2.45,-2.45,-2.3963,-2.3101,0.0,0.0,0.0,-2.3101,-2.3101,-2.3101,-2.3101,-2.3101,-2.3071,-2.274,-2.2584,-2.2565,-2.2187,-2.2002,-2.1973,-2.1434,-2.12,-2.1171,-2.0771,-2.0615,-2.0615,-2.0615,-2.0962,-2.1621,-2.1165,-2.1219,-2.1795,-2.1191,-1.9951,-1.8223,-1.8173,-1.8144,-1.7998,-1.8195,-1.7977,-1.7283,-1.7719,-1.7776,-1.7427,-1.7618,-1.7702,-1.7566,-1.7549,-1.7526,-1.7526,-1.7549,-1.7727,-1.8154,-1.8204,-1.8204,-1.8204,-1.8292,-1.8392,-1.848,-1.897,-1.9045,-1.8392,-1.853,-1.9007,-1.9886,-2.0137,-2.0639,-2.1556,-2.2121,-2.2431,-2.2431,-2.2832,-2.3095,-2.3095,-2.3095,-2.3145,-2.3271,-2.3703,-2.4092,-2.4318,-2.4695,-2.5146,-2.5611,-2.5749,-2.5933,-2.6273,-2.5686,-2.5071,-2.4813,-2.4569,-2.4305,-2.4167,-2.4142,-2.3941,-2.3597,-2.3847,-2.4208,-2.4475,-2.44,-2.4813,-2.5897,-2.6113,-2.5906,-2.6081,-2.6561,-2.6811,-2.5824,-2.6654,-2.7423,-2.6945,-2.7163,-2.756,-2.7574,-2.6637,-2.5504,-2.4382,-2.3343,-2.3343,-2.3256,-2.3101,-2.3101,-2.3101,-2.3101,-2.3101,-2.3101,-2.3101,-2.3101,-2.3101,-2.3101,-2.3033,-2.3003,0.0,-2.2617,-2.2422,-2.2383,-2.157,-2.12,-2.1161,-2.0791,-2.0615,-2.0615,-2.0615,-2.0673,-2.0895,-2.1479,-2.1699,-2.1513,-2.1697,-2.0714,-1.859,-1.8914,-1.8754,-1.7998,-1.7721,-1.7825,-1.8312,-1.7273,-1.7262,-1.8422,-1.7677,-1.7484,-1.8044,-1.8091,-1.8091,-1.8091,-1.8091,-1.8129,-1.8191,-1.8204,-1.8204,-1.8216,-1.8632,-1.9083,-1.956,-2.0112,-2.0025,-1.902,-1.9773,-2.0415,-2.0603,-2.1355,-2.2008,-2.2221,-2.2644,-2.2945,-2.297,-2.3058,-2.3095,-2.3108,-2.3133,-2.3308,-2.3778,-2.3941,-2.4406,-2.5134,-2.541,-2.5686,-2.621,-2.6273,-2.6386,-2.6424,-2.6373,-2.5858,-2.5146,-2.5159,-2.5146,-2.4788,-2.4707,-2.46,-2.4575,-2.4575,-2.483,-2.5284,-2.4666,-2.4421,-2.5169,-2.4585,-2.416,-2.4582,-2.5189,-2.5783,-2.6041,-2.6864,-2.7408,-2.728,-2.7458,-2.7585,-2.6584,-2.5546,-2.4999,-2.4125,-2.3101,-2.3101,-2.3101,-2.3101,-2.3101,-2.3101,-2.3101,-2.3101,-2.3101,-2.3101,-2.3101,-2.3101,-2.3101,-2.3101,-2.3101,-2.3081,-2.2896,-2.2799,-2.275,-2.2207,-2.1765,-2.1572,-2.1143,-2.0801,-2.0625,-2.0615,-2.0857,-2.1336,-2.1811,-2.1669,-2.1022,-2.137,-2.0703,-1.9056,-1.9655,-1.9595,-1.8754,-1.9001,-1.919,-1.9291,-1.817,-1.7873,-1.8562,-1.8035,-1.7842,-1.8031,-1.8436,-1.8632,-1.8632,-1.8619,-1.8769,-1.9045,-1.907,-1.907,-1.9045,-1.9296,-1.9685,-2.0239,-2.0541,-2.0629,-2.0388,-2.0842,-2.123,-2.1531,-2.2046,-2.2418,-2.2694,-2.2957,-2.3095,-2.3095,-2.3095,-2.3095,-2.3145,-2.3409,-2.3703,-2.4004,-2.4531,-2.5059,-2.5523,-2.5875,-2.616,-2.6461,-2.6487,-2.6487,-2.6487,-2.6487,-2.6336,-2.5858,-2.5649,-2.5498,-2.5285,-2.5247,-2.5134,-2.4883,-2.5059,-2.5075,-2.5012,-2.4292,-2.4292,-2.4547,-2.4099,-2.394,-2.425,-2.4908,-2.5328,-2.5287,-2.6283,-2.6878,-2.7034,-2.728,-2.7575,-2.5686,-2.4787,-2.45,-2.3877,-2.3091,-2.3101,-2.3101,-2.3101,-2.3101,-2.3101,-2.3101,-2.3101,-2.3101,-2.3101,-2.3101,-2.3101,-2.3101,-2.3101,-2.3101,-2.3101,-2.3101,-2.3101,-2.3052,-2.2715,-2.2295,-2.1875,-2.1405,-2.1006,-2.0654,-2.0615,-2.0972,-2.1621,-2.1659,-2.1288,-2.0634,-2.1002,-2.0563,-1.9449,-2.0261,-2.0281,-1.9375,-1.9944,-2.0305,-2.0322,-1.9397,-1.8942,-1.9038,-1.8622,-1.8305,-1.828,-1.8678,-1.8995,-1.9183,-1.9171,-1.9359,-1.9748,-1.9798,-1.9861,-1.9987,-1.9999,-2.025,-2.083,-2.0993,-2.1245,-2.1606,-2.1794,-2.1958,-2.2259,-2.2422,-2.2656,-2.2995,-2.3095,-2.3095,-2.3095,-2.3095,-2.3095,-2.3158,-2.364,-2.4067,-2.4243,-2.5021,-2.5611,-2.5824,-2.621,-2.6461,-2.6474,-2.6487,-2.6487,-2.6487,-2.6487,-2.6487,-2.6411,-2.6097,-2.5824,-2.5787,-2.5799,-2.5649,-2.5234,-2.5523,-2.5481,-2.4922,-2.45,-2.4254,-2.4408,-2.4168,-2.3953,-2.4031,-2.4624,-2.4851,-2.4652,-2.5425,-2.6297,-2.6563,-2.693,-2.7408,-2.5218,-2.4691,-2.3724,-2.3222,-2.3101,-2.3101,-2.3101,-2.3101,-2.3101,-2.3101,-2.3101,-2.3101,-2.3101,-2.3101,-2.3101,-2.3101,-2.3101,-2.3101,-2.3101,-2.3101,-2.3101,-2.3101,-2.3062,-2.2715,-2.2285,-2.1875,-2.1455,-2.1035,-2.0625,-2.0615,-2.0634,-2.0712,-2.075,-2.0712,-2.0663,-2.0975,-2.0553,-1.936,-2.0548,-2.0566,-1.9396,-1.9375,-2.016,-2.1651,-2.0429,-2.0083,-2.0515,-1.9274,-1.872,-1.9168,-1.892,-1.905,-1.9633,-1.9723,-1.9761,-1.9836,-1.9836,-2.005,-2.0541,-2.0616,-2.0855,-2.138,-2.1845,-2.2133,-2.2259,-2.2656,-2.2744,-2.2493,-2.2744,-2.302,-2.3095,-2.3095,-2.3095,-2.3095,-2.3095,-2.3095,-2.3208,-2.364,-2.4192,-2.4662,-2.5285,-2.5787,-2.626,-2.6436,-2.6474,-2.6487,-2.6487,-2.6487,-2.6487,-2.6487,-2.6487,-2.6487,-2.6399,-2.6386,-2.6361,-2.6399,-2.6285,-2.6248,-2.6336,-2.6185,-2.5833,-2.5234,-2.4746,-2.4564,-2.4014,-2.355,-2.3518,-2.3826,-2.439,-2.4465,-2.4979,-2.5742,-2.6283,-2.6522,-2.6785,-2.4916,-2.4173,-2.3408,-2.3101,-2.3101,-2.3101,-2.3101,-2.3101,-2.3101,-2.3101,-2.3101,-2.3101,-2.3101,-2.3101,-2.3101,-2.3101,-2.3101,-2.3101,-2.3101,-2.3101,-2.3101,-2.3101,-2.3071,-2.2925,-2.2549,-2.1924,-2.1699,-2.125,-2.0713,-2.0615,-2.0615,-2.0615,-2.0615,-2.0615,-2.0634,-2.0755,-2.0446,-1.9695,-1.993,-1.9927,-1.9729,-1.9921,-2.0398,-2.093,-2.0102,-1.9531,-1.9561,-1.9315,-1.9219,-1.9275,-1.9626,-2.0145,-2.0751,-2.0528,-2.049,-2.0752,-2.0803,-2.093,-2.1169,-2.1169,-2.1393,-2.1933,-2.2171,-2.2435,-2.2744,-2.2982,-2.2995,-2.2857,-2.2982,-2.3095,-2.3095,-2.3095,-2.3095,-2.3095,-2.3095,-2.3221,-2.3597,-2.4111,-2.4695,-2.5222,-2.5762,-2.6197,-2.6424,-2.6487,-2.6487,-2.6487,-2.6487,-2.6487,-2.6487,-2.6487,-2.6487,-2.6487,-2.6487,-2.6487,-2.6487,-2.6487,-2.6487,-2.6487,-2.6487,-2.6436,-2.6009,-2.5699,-2.5197,-2.4908,-2.4362,-2.3898,-2.3734,-2.3829,-2.4142,-2.4328,-2.4838,-2.5508,-2.5783,-2.5837,-2.6162,-2.4549,-2.3619,-2.3218,-2.3101,-2.3101,-2.3101,-2.3101,-2.3101,-2.3101,-2.3101,-2.3101,-2.3101,-2.3101,-2.3101,-2.3101,-2.3101,-2.3101,-2.3101,-2.3101,-2.3101,-2.3101,-2.3101,-2.3101,-2.3091,-2.2721,-2.2139,-2.1934,-2.1426,-2.0703,-2.0615,-2.0615,-2.0615,-2.0615,-2.0615,-2.0615,-2.0615,-2.039,-1.9922,-1.9502,-1.9386,-1.9544,-1.9763,-2.0107,-2.0462,-1.9977,-1.9392,-1.8848,-1.9156,-1.9364,-1.9283,-1.9925,-2.0656,-2.1403,-2.1131,-2.1094,-2.143,-2.1481,-2.1568,-2.1694,-2.1719,-2.1945,-2.246,-2.2506,-2.2681,-2.3007,-2.3095,-2.3095,-2.3083,-2.3095,-2.3095,-2.3095,-2.3095,-2.3095,-2.3095,-2.3095,-2.3346,-2.3929,-2.4481,-2.5008,-2.5536,-2.605,-2.6487,-2.6487,-2.6487,-2.6487,-2.6487,-2.6487,-2.6487,-2.6487,-2.6487,-2.6487,-2.6487,-2.6487,-2.6487,-2.6487,-2.6487,-2.6487,-2.6487,-2.6487,-2.6361,-2.5896,-2.5762,-2.5561,-2.5209,-2.4983,-2.4607,-2.4029,-2.3966,-2.3901,-2.4046,-2.4423,-2.4894,-2.5077,-2.5105,-2.5425,-2.3906,-2.3223,-2.3101,-2.3101,-2.3101,-2.3101,-2.3101,-2.3101,-2.3101,-2.3101,-2.3101,-2.3101,-2.3101,-2.3101,-2.3101,-2.3101,-2.3101,-2.3101,-2.3101,-2.3101,-2.3101,-2.3101,-2.3101,-2.3091,-2.2857,-2.2422,-2.21,-2.1515,-2.0683,-2.0615,-2.0615,-2.0615,-2.0615,-2.0615,-2.0615,-2.0615,-2.0361,-1.9971,-1.9551,-1.9128,-1.8733,-1.838,-1.9008,-2.0279,-2.0494,-1.9955,-1.927,-1.8869,-1.8997,-1.9641,-1.9486,-1.9965,-2.1338,-2.1534,-2.1518,-2.1556,-2.1543,-2.1757,-2.2196,-2.2243,-2.2498,-2.2932,-2.2995,-2.3058,-2.3083,-2.3095,-2.3095,-2.3095,-2.3095,-2.3095,-2.3158,-2.3133,-2.3133,-2.3158,-2.3133,-2.3421,-2.3991,-2.4594,-2.5001,-2.5573,-2.616,-2.6461,-2.6487,-2.6487,-2.6487,-2.6487,-2.6487,-2.6487,-2.6487,-2.6487,-2.6487,-2.6487,-2.6487,-2.6487,-2.6487,-2.6487,-2.6487,-2.6487,-2.6487,-2.6474,-2.6285,-2.6038,-2.5762,-2.5523,-2.5285,-2.4883,-2.4268,-2.3866,-2.3653,-2.3576,-2.3433,-2.3708,-2.425,-2.4308,-2.4652,-2.3871,-2.311,-2.3101,-2.3101,-2.3101,-2.3101,-2.3101,-2.3101,-2.3101,-2.3101,-2.3101,-2.3101,-2.3101,-2.3101,-2.3101,-2.3101,-2.3101,-2.3101,-2.3101,-2.3101,-2.3101,-2.3101,-2.3101,-2.3091,-2.2877,-2.2539,-2.2353,-2.1846,-2.1045,-2.0752,-2.0615,-2.0615,-2.0615,-2.0615,-2.0615,-2.0615,-2.0517,-2.0341,-1.9902,-1.9482,-1.9043,-1.8598,-1.8616,-1.8908,-1.8954,-1.8777,-1.8496,-1.8845,-1.9437,-2.0247,-2.027,-2.098,-2.2309,-2.2518,-2.2506,-2.2518,-2.2506,-2.2636,-2.2782,-2.2807,-2.2882,-2.3058,-2.3095,-2.3095,-2.3095,-2.3095,-2.3095,-2.3108,-2.3108,-2.3233,-2.3509,-2.3333,-2.3258,-2.3615,-2.3703,-2.4042,-2.4795,-2.5209,-2.5523,-2.6059,-2.6399,-2.6474,-2.6487,-2.6487,-2.6487,-2.6487,-2.6487,-2.6487,-2.6487,-2.6487,-2.6487,-2.6487,-2.6487,-2.6487,-2.6487,-2.6487,-2.6487,-2.6487,-2.6487,-2.6487,-2.6361,-2.6336,-2.6122,-2.6072,-2.5762,-2.5335,-2.4757,-2.381,-2.3572,-2.3283,-2.3095,-2.3215,-2.3471,-2.3679,-2.4018,-2.3754,-2.3149,-2.3101,-2.3101,-2.3101,-2.3101,-2.3101,-2.3101,-2.3101,-2.3101,-2.3101,-2.3101,-2.3101,-2.3101,-2.3101,-2.3101,-2.3101,-2.3101,-2.3101,-2.3101,-2.3101,-2.3101,-2.3101,-2.3101,-2.2955,-2.2682,-2.2568,-2.2029,-2.1259,-2.0928,-2.0713,-2.0615,-2.0615,-2.0615,-2.0615,-2.0615,-2.0615,-2.0537,-2.0137,-1.9707,-1.9287,-1.8857,-1.8393,-1.8076,-1.8008,-1.8008,-1.8008,-1.8553,-1.9276,-2.0052,-2.0349,-2.1024,-2.2127,-2.2567,-2.2702,-2.2732,-2.2932,-2.3095,-2.3095,-2.3095,-2.3095,-2.3095,-2.3095,-2.3095,-2.3095,-2.3095,-2.3095,-2.312,-2.3308,-2.3584,-2.3853,-2.3772,-2.381,-2.4192,-2.4268,-2.4619,-2.5448,-2.5573,-2.5862,-2.6323,-2.6474,-2.6487,-2.6487,-2.6487,-2.6487,-2.6487,-2.6487,-2.6487,-2.6487,-2.6487,-2.6487,-2.6487,-2.6487,-2.6487,-2.6487,-2.6487,-2.6487,-2.6487,-2.6487,-2.6487,-2.6487,-2.6487,-2.6487,-2.6487,-2.6248,-2.5833,-2.5071,-2.4048,-2.3534,-2.3233,-2.3095,-2.3155,-2.3215,-2.3155,-2.362,-2.3545,-2.312,-2.3101,-2.3101,-2.3101,-2.3101,-2.3101,-2.3101,-2.3101,-2.3101,-2.3101,-2.3101,-2.3101,-2.3101,-2.3101,-2.3101,-2.3101,-2.3101,-2.3101,-2.3101,-2.3101,-2.3101,-2.3101,-2.3101,-2.3091,-2.3013,-2.2695,-2.208,-2.1328,-2.1161,-2.0977,-2.0674,-2.0615,-2.0615,-2.0615,-2.0615,-2.0615,-2.0527,-2.0176,-1.9756,-1.9307,-1.888,-1.8471,-1.8105,-1.8027,-1.8008,-1.8008,-1.8042,-1.8496,-1.9266,-1.9377,-1.9738,-2.0751,-2.1459,-2.1908,-2.2094,-2.2628,-2.3035,-2.3095,-2.3095,-2.3095,-2.3095,-2.3095,-2.3095,-2.3095,-2.3095,-2.3133,-2.3271,-2.364,-2.4004,-2.4155,-2.4494,-2.4725,-2.4788,-2.4788,-2.5071,-2.5498,-2.5636,-2.5824,-2.6361,-2.6487,-2.6487,-2.6487,-2.6487,-2.6487,-2.6487,-2.6487,-2.6487,-2.6487,-2.6487,-2.6487,-2.6487,-2.6487,-2.6487,-2.6487,-2.6487,-2.6487,-2.6487,-2.6487,-2.6487,-2.6487,-2.6487,-2.6487,-2.6474,-2.626,-2.5845,-2.5347,-2.4399,-2.3948,-2.3647,-2.3434,-2.3371,-2.3496,-2.3597,-2.3459,-2.3535,-2.311,-2.3101,-2.3101,-2.3101,-2.3101,-2.3101,-2.3101,-2.3101,-2.3101,-2.3101,-2.3101,-2.3101,-2.3101,-2.3101,-2.3101,-2.3101,-2.3101,-2.3101,-2.3101,-2.3101,-2.3101,-2.3101,-2.3101,-2.3101,-2.3023,-2.2705,-2.2236,-2.1719,-2.1337,-2.1006,-2.0693,-2.0615,-2.0615,-2.0615,-2.0615,-2.0615,-2.0595,-2.0478,-2.0194,-1.9717,-1.9297,-1.8877,-1.8432,-1.813,-1.8008,-1.8008,-1.8008,-1.8438,-1.9233,-1.9299,-1.9694,-2.0462,-2.0846,-2.1259,-2.1846,-2.2106,-2.2567,-2.3047,-2.3095,-2.3095,-2.3095,-2.3095,-2.3095,-2.3095,-2.3095,-2.3283,-2.3584,-2.3916,-2.423,-2.4946,-2.5222,-2.5335,-2.5347,-2.536,-2.5573,-2.6059,-2.6197,-2.6298,-2.6436,-2.6487,-2.6487,-2.6487,-2.6487,-2.6487,-2.6487,-2.6487,-2.6487,-2.6487,-2.6487,-2.6487,-2.6487,-2.6487,-2.6487,-2.6487,-2.6487,-2.6487,-2.6487,-2.6487,-2.6487,-2.6487,-2.6487,-2.6487,-2.6424,-2.6197,-2.5883,-2.5385,-2.4926,-2.4462,-2.4299,-2.4236,-2.4224,-2.4261,-2.4161,-2.3998,-2.3672,-2.311,-2.3101,-2.3101,-2.3101,-2.3101,-2.3101,-2.3101,-2.3101,-2.3101,-2.3101,-2.3101,-2.3101,-2.3101,-2.3101,-2.3101,-2.3101,-2.3101,-2.3101,-2.3101,-2.3101,-2.3101,-2.3101,-2.3101,-2.3101,-2.3062,-2.2871,-2.2441,-2.1894,-2.1611,-2.1172,-2.0703,-2.0615,-2.0615,-2.0615,-2.0615,-2.0615,-2.0615,-2.0605,-2.04,-1.9961,-1.9648,-1.9238,-1.8666,-1.8344,-1.8174,-1.8037,-1.8008,-1.8226,-1.8721,-1.8811,-1.911,-1.9595,-1.9911,-2.0494,-2.127,-2.1784,-2.2261,-2.2975,-2.3095,-2.3095,-2.3095,-2.3095,-2.3095,-2.3095,-2.3095,-2.3308,-2.359,-2.3891,-2.4356,-2.5109,-2.5511,-2.5661,-2.5946,-2.5925,-2.6109,-2.6436,-2.6487,-2.6487,-2.6487,-2.6487,-2.6487,-2.6487,-2.6487,-2.6487,-2.6487,-2.6487,-2.6487,-2.6487,-2.6487,-2.6487,-2.6487,-2.6487,-2.6487,-2.6487,-2.6487,-2.6487,-2.6487,-2.6487,-2.6487,-2.6487,-2.6487,-2.6487,-2.6461,-2.6311,-2.6034,-2.5573,-2.5347,-2.5021,-2.5034,-2.4933,-2.4687,-2.455,-2.4612,-2.4499,-2.3887,-2.314,-2.3101,-2.3101,-2.3101,-2.3101,-2.3101,-2.3101,-2.3101,-2.3101,-2.3101,-2.3101,-2.3101,-2.3101,-2.3101,-2.3101,-2.3101,-2.3101,-2.3101,-2.3101,-2.3101,-2.3101,-2.3101,-2.3101,-2.3101,-2.3091,-2.3062,-2.2656,-2.1914,-2.1836,-2.1476,-2.0693,-2.0615,-2.0615,-2.0615,-2.0615,-2.0615,-2.0615,-2.0615,-2.04,-2.0,-1.9902,-1.9521,-1.8715,-1.8588,-1.8373,-1.8066,-1.8008,-1.8008,-1.8042,-1.8134,-1.8168,-1.8236,-1.8821,-1.9617,-2.0462,-2.129,-2.2032,-2.275,-2.272,-2.2811,-2.2884,-2.2781,-2.2944,-2.272,-2.2763,-2.2928,-2.3163,-2.3723,-2.4343,-2.4921,-2.5423,-2.59,-2.6361,-2.6386,-2.6436,-2.6474,-2.6487,-2.6487,-2.6487,-2.6487,-2.6487,-2.6487,-2.6487,-2.6487,-2.6487,-2.6487,-2.6487,-2.6487,-2.6487,-2.6487,-2.6487,-2.6487,-2.6487,-2.6487,-2.6487,-2.6487,-2.6487,-2.6487,-2.6487,-2.6487,-2.6487,-2.6487,-2.6461,-2.6399,-2.6135,-2.5946,-2.577,-2.5548,-2.5423,-2.5234,-2.4958,-2.4996,-2.5184,-2.5209,-2.3633,-2.311,-2.3101,-2.3101,-2.3101,-2.3101,-2.3101,-2.3101,-2.3101,-2.3101,-2.3101,-2.3101,-2.3101,-2.3101,-2.3101,-2.3101,-2.3101,-2.3101,-2.3101,-2.3101,-2.3101,-2.3101,-2.3101,-2.3101,-2.3101,-2.3101,-2.3071,-2.2662,-2.1943,-2.1936,-2.1426,-2.0644,-2.0615,-2.0615,-2.0615,-2.0615,-2.0615,-2.0615,-2.0615,-2.0566,-2.04,-2.0068,-1.9668,-1.917,-1.8783,-1.8412,-1.8066,-1.8008,-1.8008,-1.8008,-1.8008,-1.8008,-1.8042,-1.8269,-1.8811,-1.9595,-1.9944,-2.0719,-2.1741,-2.1678,-2.1616,-2.2063,-2.1741,-2.1259,-2.129,-2.1865,-2.2318,-2.2868,-2.3843,-2.4718,-2.5289,-2.5795,-2.623,-2.6436,-2.6302,-2.6371,-2.6487,-2.6487,-2.6487,-2.6487,-2.6487,-2.6487,-2.6487,-2.6487,-2.6487,-2.6487,-2.6487,-2.6487,-2.6487,-2.6487,-2.6487,-2.6487,-2.6487,-2.6487,-2.6487,-2.6487,-2.6487,-2.6487,-2.6487,-2.6487,-2.6487,-2.6487,-2.6487,-2.6474,-2.6474,-2.6273,-2.6311,-2.626,-2.6072,-2.5799,-2.585,-2.5762,-2.5959,-2.6122,-2.6059,-2.3535,-2.3101,-2.3101,-2.3101,-2.3101,-2.3101,-2.3101,-2.3101,-2.3101,-2.3101,-2.3101,-2.3101,-2.3101,-2.3101,-2.3101,-2.3101,-2.3101,-2.3101,-2.3101,-2.3101,-2.3101,-2.3101,-2.3101,-2.3101,-2.3101,-2.3101,-2.3101,-2.2666,-2.2021,-2.1936,-2.1437,-2.0762,-2.0615,-2.0615,-2.0615,-2.0615,-2.0615,-2.0615,-2.0615,-2.0615,-2.0576,-2.0332,-1.9853,-1.9404,-1.9004,-1.8662,-1.8115,-1.8008,-1.8008,-1.8008,-1.8008,-1.8008,-1.8008,-1.8008,-1.8395,-1.921,-1.9299,-1.9955,-2.091,-2.0858,-2.0858,-2.1175,-2.0826,-2.0655,-2.0719,-2.1112,-2.1539,-2.1856,-2.2772,-2.3448,-2.4066,-2.4772,-2.518,-2.5122,-2.524,-2.5569,-2.6349,-2.6487,-2.6487,-2.6487,-2.6487,-2.6487,-2.6487,-2.6487,-2.6487,-2.6487,-2.6487,-2.6487,-2.6487,-2.6487,-2.6487,-2.6487,-2.6487,-2.6487,-2.6487,-2.6487,-2.6487,-2.6487,-2.6487,-2.6487,-2.6487,-2.6487,-2.6487,-2.6487,-2.6487,-2.6487,-2.6487,-2.6487,-2.6386,-2.6285,-2.6474,-2.6487,-2.6487,-2.6487,-2.6487,-2.3496,-2.3101,-2.3101,-2.3101,-2.3101,-2.3101,-2.3101,-2.3101,-2.3101,-2.3101,-2.3101,-2.3101,-2.3101,-2.3101,-2.3101,-2.3101,-2.3101,-2.3101,-2.3101,-2.3101,-2.3101,-2.3101,-2.3101,-2.3101,-2.3101,-2.3101,-2.3101,-2.2646,-2.208,-2.1936,-2.1437,-2.0811,-2.0615,-2.0615,-2.0615,-2.0615,-2.0615,-2.0615,-2.0615,-2.0615,-2.0615,-2.0527,-2.0116,-1.9365,-1.9014,-1.8652,-1.8174,-1.8008,-1.8008,-1.8008,-1.8008,-1.8008,-1.8008,-1.8008,-1.8327,-1.8888,-1.9077,-1.9464,-2.0236,-2.0268,-2.0301,-2.0365,-2.0333,-2.0344,-2.0171,-2.0301,-2.0529,-2.0674,-2.1018,-2.1936,-2.2638,-2.3196,-2.3654,-2.3843,-2.3708,-2.4469,-2.5791,-2.6349,-2.6383,-2.6487,-2.6487,-2.6487,-2.6487,-2.6487,-2.6487,-2.6487,-2.6487,-2.6487,-2.6487,-2.6487,-2.6487,-2.6487,-2.6487,-2.6487,-2.6487,-2.6487,-2.6487,-2.6487,-2.6487,-2.6487,-2.6487,-2.6487,-2.6487,-2.6487,-2.6487,-2.6487,-2.6487,-2.6487,-2.6487,-2.6487,-2.6487,-2.6487,-2.6487,-2.6487,-2.6487,-2.3188,-2.3101,-2.3101,-2.3101,-2.3101,-2.3101,-2.3101,-2.3101,-2.3101,-2.3101,-2.3101,-2.3101,-2.3101,-2.3101,-2.3101,-2.3101,-2.3101,-2.3101,-2.3101,-2.3101,-2.3101,-2.3101,-2.3101,-2.3101,-2.3101,-2.3101,-2.3101,-2.2643,-2.208,-2.1816,-2.1435,-2.0723,-2.0615,-2.0615,-2.0615,-2.0615,-2.0615,-2.0615,-2.0615,-2.0615,-2.0615,-2.0586,-2.0194,-1.9336,-1.8701,-1.8271,-1.8086,-1.8008,-1.8008,-1.8008,-1.8008,-1.8008,-1.8008,-1.8008,-1.8134,-1.8259,-1.8361,-1.8697,-1.9276,-1.911,-1.8888,-1.9464,-1.9077,-1.8553,-1.862,-1.9287,-1.9687,-2.0153,-2.1091,-2.1948,-2.2725,-2.3274,-2.3283,-2.322,-2.3331,-2.3854,-2.5004,-2.5335,-2.5687,-2.6267,-2.6487,-2.6487,-2.6487,-2.6487,-2.6487,-2.6487,-2.6487,-2.6487,-2.6487,-2.6487,-2.6487,-2.6487,-2.6487,-2.6487,-2.6487,-2.6487,-2.6487,-2.6487,-2.6487,-2.6487,-2.6487,-2.6487,-2.6487,-2.6487,-2.6487,-2.6487,-2.6487,-2.6487,-2.6487,-2.6487,-2.6487,-2.6487,-2.6487,-2.6487,-2.6474,-2.3101,-2.3101,-2.3101,-2.3101,-2.3101,-2.3101,-2.3101,-2.3101,-2.3101,-2.3101,-2.3101,-2.3101,-2.3101,-2.3101,-2.3101,-2.3101,-2.3101,-2.3101,-2.3101,-2.3101,-2.3101,-2.3101,-2.3101,-2.3101,-2.3101,-2.3101,-2.3101,-2.2623,-2.209,-2.1858,-2.1476,-2.0683,-2.0615,-2.0615,-2.0615,-2.0615,-2.0615,-2.0615,-2.0615,-2.0615,-2.0615,-2.0595,-2.0194,-1.9375,-1.8652,-1.8232,-1.8027,-1.8008,-1.8008,-1.8008,-1.8008,-1.8008,-1.8008,-1.8008,-1.8008,-1.8008,-1.8008,-1.8178,-1.8438,-1.8337,-1.8236,-1.8654,-1.8236,-1.811,-1.811,-1.8622,-1.9014,-1.9442,-2.0271,-2.1318,-2.2056,-2.2124,-2.2161,-2.2161,-2.2161,-2.275,-2.3975,-2.4719,-2.537,-2.6198,-2.6487,-2.6487,-2.6487,-2.6487,-2.6487,-2.6487,-2.6487,-2.6487,-2.6487,-2.6487,-2.6487,-2.6487,-2.6487,-2.6487,-2.6487,-2.6487,-2.6487,-2.6487,-2.6487,-2.6487,-2.6487,-2.6487,-2.6487,-2.6487,-2.6487,-2.6487,-2.6487,-2.6487,-2.6487,-2.6487,-2.6487,-2.6487,-2.6474,-2.6461,-2.6461,-2.3101,-2.3101,-2.3101,-2.3101,-2.3101,-2.3101,-2.3101,-2.3101,-2.3101,-2.3101,-2.3101,-2.3101,-2.3101,-2.3101,-2.3101,-2.3101,-2.3101,-2.3101,-2.3101,-2.3101,-2.3101,-2.3101,-2.3101,-2.3101,-2.3101,-2.3101,-2.3101,-2.2666,-2.209,-2.1867,-2.1416,-2.0752,-2.0615,-2.0615,-2.0615,-2.0615,-2.0615,-2.0615,-2.0615,-2.0615,-2.0615,-2.0595,-2.0184,-1.9521,-1.8994,-1.851,-1.8262,-1.8154,-1.8096,-1.8018,-1.8008,-1.8008,-1.8008,-1.8008,-1.8008,-1.8008,-1.8008,-1.8076,-1.8144,-1.8042,-1.8042,-1.8008,-1.8008,-1.8008,-1.8076,-1.8384,-1.8719,-1.9066,-1.973,-2.044,-2.0556,-2.0867,-2.0799,-2.0722,-2.0683,-2.1451,-2.2888,-2.4072,-2.4803,-2.6233,-2.6487,-2.6487,-2.6487,-2.6487,-2.6487,-2.6487,-2.6452,-2.6487,-2.6487,-2.6487,-2.6487,-2.6487,-2.6487,-2.6487,-2.6487,-2.6487,-2.6487,-2.6487,-2.6487,-2.6487,-2.6487,-2.6487,-2.6487,-2.6487,-2.6487,-2.6487,-2.6487,-2.6487,-2.6487,-2.6487,-2.6487,-2.6487,-2.6461,-2.6424,-2.6386,-2.3101,-2.3101,-2.3101,-2.3101,-2.3101,-2.3101,-2.3101,-2.3101,-2.3101,-2.3101,-2.3101,-2.3101,-2.3101,-2.3101,-2.3101,-2.3101,-2.3101,-2.3101,-2.3101,-2.3101,-2.3101,-2.3101,-2.3101,-2.3101,-2.3101,-2.3101,-2.3062,-2.2652,-2.207,-2.1877,-2.1396,-2.0791,-2.0615,-2.0615,-2.0615,-2.0615,-2.0615,-2.0615,-2.0615,-2.0615,-2.0615,-2.0576,-2.0322,-1.9766,-1.9365,-1.8975,-1.8598,-1.8471,-1.8344,-1.8066,-1.8018,-1.8008,-1.8008,-1.8008,-1.8008,-1.8008,-1.8008,-1.8008,-1.8008,-1.8008,-1.8008,-1.8008,-1.8008,-1.8008,-1.8105,-1.8373,-1.8769,-1.9307,-1.9873,-2.0517,-2.0595,-2.0615,-2.0615,-2.0615,-2.0683,-2.1088,-2.2038,-2.2739,-2.377,-2.5604,-2.6117,-2.6267,-2.5978,-2.5896,-2.5943,-2.5978,-2.6129,-2.6302,-2.6487,-2.6487,-2.6487,-2.6487,-2.6487,-2.6487,-2.6487,-2.6487,-2.6487,-2.6487,-2.6487,-2.6487,-2.6487,-2.6487,-2.6487,-2.6487,-2.6487,-2.6487,-2.6487,-2.6487,-2.6487,-2.6487,-2.6487,-2.6461,-2.6273,-2.6097,-2.6047,-2.3101,-2.3101,-2.3101,-2.3101,-2.3101,-2.3101,-2.3101,-2.3101,-2.3101,-2.3101,-2.3101,-2.3101,-2.3101,-2.3101,-2.3101,-2.3101,-2.3101,-2.3101,-2.3101,-2.3101,-2.3101,-2.3101,-2.3101,-2.3101,-2.3101,-2.3101,-2.3052,-2.2652,-2.1963,-2.1936,-2.1427,-2.0811,-2.0615,-2.0615,-2.0615,-2.0615,-2.0615,-2.0615,-2.0615,-2.0615,-2.0615,-2.0605,-2.0332,-1.9971,-1.9727,-1.9404,-1.9023,-1.8666,-1.852,-1.8305,-1.8135,-1.8037,-1.8008,-1.8008,-1.8008,-1.8008,-1.8008,-1.8008,-1.8008,-1.8008,-1.8008,-1.8008,-1.8008,-1.8008,-1.8115,-1.8383,-1.8926,-1.957,-2.0098,-2.0615,-2.0615,-2.0595,-2.0615,-2.0615,-2.0605,-2.1049,-2.1669,-2.1924,-2.3136,-2.4612,-2.4648,-2.4648,-2.4755,-2.4838,-2.517,-2.5441,-2.5721,-2.606,-2.6418,-2.6487,-2.6487,-2.6487,-2.6487,-2.6487,-2.6487,-2.6487,-2.6487,-2.6487,-2.6487,-2.6487,-2.6487,-2.6487,-2.6487,-2.6487,-2.6487,-2.6487,-2.6487,-2.6487,-2.6487,-2.6424,-2.6223,-2.6047,-2.5862,-2.5737,-2.5611,-2.3101,-2.3101,-2.3101,-2.3101,-2.3101,-2.3101,-2.3101,-2.3101,-2.3101,-2.3101,-2.3101,-2.3101,-2.3101,-2.3101,-2.3101,-2.3101,-2.3101,-2.3101,-2.3101,-2.3101,-2.3101,-2.3101,-2.3101,-2.3101,-2.3091,-2.3081,-2.2925,-2.2627,-2.2031,-2.1936,-2.1417,-2.084,-2.0615,-2.0615,-2.0615,-2.0615,-2.0615,-2.0615,-2.0615,-2.0615,-2.0615,-2.0586,-2.0458,-2.0098,-2.0049,-1.9844,-1.9424,-1.916,-1.8802,-1.8559,-1.8305,-1.8081,-1.8027,-1.8008,-1.8008,-1.8008,-1.8008,-1.8008,-1.8008,-1.8008,-1.8008,-1.8008,-1.8008,-1.8008,-1.8164,-1.8535,-1.9141,-1.9893,-2.0195,-2.0517,-2.0556,-2.0469,-2.0527,-2.0615,-2.0644,-2.0818,-2.1336,-2.1631,-2.1783,-2.2627,-2.285,-2.3294,-2.3661,-2.4072,-2.448,-2.5111,-2.5406,-2.5921,-2.6245,-2.6452,-2.6487,-2.6487,-2.6487,-2.6487,-2.6487,-2.6487,-2.6487,-2.6487,-2.6487,-2.6487,-2.6487,-2.6487,-2.6487,-2.6452,-2.6487,-2.6487,-2.6487,-2.6436,-2.6348,-2.6185,-2.5837,-2.5586,-2.5423,-2.5134,-2.4908,-2.3101,-2.3101,-2.3101,-2.3101,-2.3101,-2.3101,-2.3101,-2.3101,-2.3101,-2.3101,-2.3101,-2.3101,-2.3101,-2.3101,-2.3101,-2.3101,-2.3101,-2.3101,-2.3101,-2.3101,-2.3101,-2.3101,-2.3101,-2.3101,-2.3101,-2.3033,-2.274,-2.2344,-2.1953,-2.1865,-2.1456,-2.0772,-2.0615,-2.0615,-2.0615,-2.0615,-2.0615,-2.0615,-2.0615,-2.0615,-2.0615,-2.0615,-2.0566,-2.0517,-2.0458,-2.0254,-1.9883,-1.9658,-1.9338,-1.8685,-1.8568,-1.8334,-1.8061,-1.8008,-1.8008,-1.8008,-1.8008,-1.8008,-1.8008,-1.8008,-1.8008,-1.8008,-1.8008,-1.8008,-1.8193,-1.8779,-1.9531,-2.04,-2.0282,-2.0185,-2.039,-2.0205,-2.0254,-2.0458,-2.0605,-2.0644,-2.0905,-2.1155,-2.1346,-2.1308,-2.1718,-2.2451,-2.2999,-2.3415,-2.3854,-2.4528,-2.5111,-2.5594,-2.5955,-2.6094,-2.6164,-2.6094,-2.5721,-2.5674,-2.5604,-2.5756,-2.5861,-2.6047,-2.6047,-2.6082,-2.6164,-2.6129,-2.6418,-2.6418,-2.6452,-2.6487,-2.6487,-2.6399,-2.6223,-2.5946,-2.5598,-2.5285,-2.4938,-2.46,-2.4243,-2.3101,-2.3101,-2.3101,-2.3101,-2.3101,-2.3101,-2.3101,-2.3101,-2.3101,-2.3101,-2.3101,-2.3101,-2.3101,-2.3101,-2.3101,-2.3101,-2.3101,-2.3101,-2.3101,-2.3101,-2.3101,-2.3101,-2.3101,-2.3101,-2.3101,-2.2994,-2.2705,-2.2324,-2.1953,-2.1582,-2.1162,-2.0723,-2.0615,-2.0615,-2.0615,-2.0615,-2.0615,-2.0615,-2.0615,-2.0615,-2.0615,-2.0615,-2.0615,-2.0615,-2.0615,-2.0478,-2.0283,-1.999,-1.9658,-1.9053,-1.8783,-1.8403,-1.8125,-1.8008,-1.8008,-1.8008,-1.8008,-1.8008,-1.8008,-1.8008,-1.8008,-1.8008,-1.8008,-1.8008,-1.8223,-1.8936,-1.9424,-1.9414,-1.9775,-2.0,-2.0146,-2.0019,-2.0225,-2.0449,-2.0605,-2.0615,-2.0615,-2.0615,-2.076,-2.0644,-2.0634,-2.1431,-2.2017,-2.2124,-2.2563,-2.3257,-2.3963,-2.4588,-2.5075,-2.5406,-2.5476,-2.5511,-2.5028,-2.4541,-2.4469,-2.4469,-2.4505,-2.4612,-2.4576,-2.4803,-2.5406,-2.5664,-2.599,-2.6349,-2.6487,-2.6487,-2.6474,-2.6361,-2.6185,-2.5808,-2.536,-2.4921,-2.4424,-2.3923,-2.3609,-2.3101,-2.3101,-2.3101,-2.3101,-2.3101,-2.3101,-2.3101,-2.3101,-2.3101,-2.3101,-2.3101,-2.3101,-2.3101,-2.3101,-2.3101,-2.3101,-2.3101,-2.3101,-2.3101,-2.3101,-2.3101,-2.3101,-2.3101,-2.3101,-2.3101,-2.3071,-2.2529,-2.2178,-2.1816,-2.1367,-2.0879,-2.0615,-2.0615,-2.0615,-2.0615,-2.0615,-2.0615,-2.0615,-2.0615,-2.0615,-2.0615,-2.0615,-2.0615,-2.0615,-2.0615,-2.0615,-2.0546,-2.0293,-1.9893,-1.9473,-1.9053,-1.8637,-1.8301,-1.8061,-1.8018,-1.8008,-1.8008,-1.8008,-1.8008,-1.8008,-1.8008,-1.8008,-1.8037,-1.8066,-1.8266,-1.9075,-1.9551,-1.9014,-1.9375,-1.9727,-1.9883,-1.9912,-2.0156,-2.0429,-2.0615,-2.0615,-2.0576,-2.043,-2.0478,-2.0556,-2.0537,-2.0498,-2.0883,-2.0769,-2.1193,-2.1962,-2.2739,-2.3551,-2.4145,-2.4636,-2.4636,-2.4624,-2.4325,-2.3843,-2.377,-2.3624,-2.3514,-2.3368,-2.3368,-2.3854,-2.4707,-2.5264,-2.5616,-2.5943,-2.6383,-2.6298,-2.6172,-2.6172,-2.6109,-2.5485,-2.4908,-2.4393,-2.3904,-2.3384,-2.317,-2.3101,-2.3101,-2.3101,-2.3101,-2.3101,-2.3101,-2.3101,-2.3101,-2.3101,-2.3101,-2.3101,-2.3101,-2.3101,-2.3101,-2.3101,-2.3101,-2.3101,-2.3101,-2.3101,-2.3101,-2.3101,-2.3101,-2.3101,-2.3101,-2.3081,-2.2964,-2.2422,-2.2012,-2.1699,-2.1074,-2.0723,-2.0615,-2.0615,-2.0615,-2.0615,-2.0615,-2.0615,-2.0615,-2.0615,-2.0615,-2.0615,-2.0615,-2.0615,-2.0615,-2.0615,-2.0605,-2.0595,-2.0517,-2.0234,-1.9805,-1.9443,-1.8965,-1.852,-1.8227,-1.8125,-1.8018,-1.8008,-1.8037,-1.8086,-1.8047,-1.8008,-1.8008,-1.8066,-1.8184,-1.8334,-1.8529,-1.8812,-1.9102,-1.9307,-1.957,-1.9775,-1.9951,-2.0117,-2.0341,-2.0458,-2.0429,-2.0341,-2.0146,-2.0176,-2.041,-2.0449,-2.038,-2.0507,-2.0586,-2.075,-2.1479,-2.2103,-2.2951,-2.3404,-2.3818,-2.3672,-2.3588,-2.3478,-2.3331,-2.3368,-2.3147,-2.2702,-2.2739,-2.2888,-2.3551,-2.4409,-2.485,-2.5335,-2.5804,-2.6208,-2.6024,-2.5837,-2.5737,-2.5498,-2.4971,-2.4469,-2.4067,-2.369,-2.3258,-2.312,-2.3101,-2.3101,-2.3101,-2.3101,-2.3101,-2.3101,-2.3101,-2.3101,-2.3101,-2.3101,-2.3101,-2.3101,-2.3101,-2.3101,-2.3101,-2.3101,-2.3101,-2.3101,-2.3101,-2.3101,-2.3101,-2.3101,-2.3101,-2.3101,-2.3081,-2.2896,-2.2314,-2.1936,-2.1797,-2.0986,-2.0713,-2.0615,-2.0615,-2.0615,-2.0615,-2.0615,-2.0615,-2.0615,-2.0615,-2.0615,-2.0615,-2.0615,-2.0615,-2.0615,-2.0615,-2.0615,-2.0605,-2.0605,-2.0303,-2.001,-1.9766,-1.9307,-1.8773,-1.8506,-1.8281,-1.8096,-1.8066,-1.8135,-1.8256,-1.8159,-1.8008,-1.8076,-1.8188,-1.8334,-1.8373,-1.8682,-1.8812,-1.9023,-1.915,-1.9463,-1.9795,-1.9865,-2.0,-2.0185,-2.0292,-2.0253,-2.0067,-1.9824,-1.9932,-2.0137,-2.0176,-2.0156,-2.0352,-2.0605,-2.0789,-2.1078,-2.1659,-2.2215,-2.2627,-2.285,-2.2702,-2.2478,-2.2366,-2.2151,-2.2113,-2.1973,-2.1783,-2.2038,-2.2301,-2.2925,-2.3624,-2.4707,-2.5194,-2.5664,-2.5879,-2.5651,-2.5431,-2.5248,-2.4926,-2.4487,-2.4148,-2.3866,-2.3502,-2.3133,-2.3095,-2.3101,-2.3101,-2.3101,-2.3101,-2.3101,-2.3101,-2.3101,-2.3101,-2.3101,-2.3101,-2.3101,-2.3101,-2.3101,-2.3101,-2.3101,-2.3101,-2.3101,-2.3101,-2.3101,-2.3101,-2.3101,-2.3101,-2.3101,-2.3071,-2.3003,-2.2822,-2.2305,-2.1855,-2.1611,-2.0957,-2.0683,-2.0615,-2.0615,-2.0615,-2.0615,-2.0615,-2.0615,-2.0615,-2.0615,-2.0615,-2.0615,-2.0615,-2.0615,-2.0615,-2.0615,-2.0615,-2.0615,-2.0595,-2.0478,-2.0185,-1.9932,-1.96,-1.9134,-1.8754,-1.8539,-1.8344,-1.8213,-1.8271,-1.8555,-1.8432,-1.8213,-1.8266,-1.8217,-1.8266,-1.8398,-1.8662,-1.8584,-1.8545,-1.8906,-1.9375,-1.965,-1.9795,-1.9834,-2.0018,-2.0127,-2.0088,-1.9658,-1.9414,-1.9668,-1.9902,-1.9824,-1.9687,-2.0342,-2.0595,-2.0683,-2.0828,-2.1049,-2.1451,-2.1707,-2.1821,-2.1669,-2.1441,-2.126,-2.0972,-2.0683,-2.0972,-2.127,-2.1231,-2.1489,-2.1811,-2.259,-2.3745,-2.448,-2.4601,-2.4767,-2.5014,-2.4541,-2.3742,-2.3827,-2.4067,-2.3766,-2.354,-2.3414,-2.3095,-2.3095,-2.3101,-2.3101,-2.3101,-2.3101,-2.3101,-2.3101,-2.3101,-2.3101,-2.3101,-2.3101,-2.3101,-2.3101,-2.3101,-2.3101,-2.3101,-2.3101,-2.3101,-2.3101,-2.3101,-2.3101,-2.3101,-2.3101,-2.3071,-2.3023,-2.2828,-2.25,-2.2021,-2.1592,-2.1268,-2.082,-2.0644,-2.0615,-2.0615,-2.0615,-2.0615,-2.0615,-2.0615,-2.0615,-2.0615,-2.0615,-2.0615,-2.0615,-2.0615,-2.0615,-2.0615,-2.0615,-2.0615,-2.0615,-2.0537,-2.0458,-2.0166,-1.9912,-1.966,-1.8987,-1.8831,-1.9072,-1.8418,-1.8486,-1.9082,-1.8789,-1.8588,-1.8403,-1.8227,-1.8159,-1.8354,-1.8369,-1.832,-1.8467,-1.8838,-1.9033,-1.9316,-1.9619,-1.9678,-1.9658,-1.9785,-1.9687,-1.9238,-1.9062,-1.927,-1.9541,-1.9228,-1.9092,-1.9961,-2.0586,-2.0605,-2.0644,-2.0605,-2.075,-2.1049,-2.1078,-2.1001,-2.0934,-2.0779,-2.0712,-2.0615,-2.0615,-2.0683,-2.0605,-2.0867,-2.1413,-2.1811,-2.2702,-2.3246,-2.3444,-2.3746,-2.4073,-2.3052,-2.1879,-2.2633,-2.3443,-2.336,-2.3195,-2.312,-2.3095,-2.3095,-2.3101,-2.3101,-2.3101,-2.3101,-2.3101,-2.3101,-2.3101,-2.3101,-2.3101,-2.3101,-2.3101,-2.3101,-2.3101,-2.3101,-2.3101,-2.3101,-2.3101,-2.3101,-2.3101,-2.3081,-2.3062,-2.3101,-2.3023,-2.2769,-2.2584,-2.2301,-2.1834,-2.1395,-2.121,-2.0781,-2.0644,-2.0615,-2.0615,-2.0615,-2.0615,-2.0615,-2.0615,-2.0615,-2.0615,-2.0615,-2.0615,-2.0615,-2.0615,-2.0615,-2.0615,-2.0615,-2.0615,-2.0615,-2.0615,-2.0615,-2.0322,-2.0185,-1.9912,-1.9268,-1.915,-1.9209,-1.8701,-1.85,-1.8896,-1.8828,-1.876,-1.8418,-1.8144,-1.8086,-1.8149,-1.8125,-1.8301,-1.8584,-1.875,-1.9023,-1.959,-1.9482,-1.9404,-1.9111,-1.9082,-1.8955,-1.8701,-1.8705,-1.8841,-1.9111,-1.9014,-1.9189,-1.9795,-2.0468,-2.0605,-2.0615,-2.0615,-2.0615,-2.0789,-2.0789,-2.075,-2.0712,-2.0644,-2.0605,-2.0615,-2.0615,-2.0605,-2.0605,-2.0934,-2.1451,-2.1859,-2.2,-2.2253,-2.2616,-2.289,-2.3033,-2.2134,-2.1598,-2.2309,-2.2807,-2.2934,-2.3078,-2.3108,-2.3095,-2.3095,-2.3101,-2.3047,-2.2633,-2.2721,-2.3047,-2.3101,-2.3101,-2.3101,-2.3101,-2.3101,-2.3101,-2.3101,-2.3101,-2.3101,-2.3101,-2.3101,-2.3101,-2.3101,-2.2925,-2.2916,-2.2877,-2.274,-2.2598,-2.2451,-2.2168,-2.1921,-2.1561,-2.1151,-2.0967,-2.0713,-2.0625,-2.0615,-2.0615,-2.0615,-2.0615,-2.0615,-2.0615,-2.0615,-2.0615,-2.0615,-2.0615,-2.0615,-2.0615,-2.0615,-2.0615,-2.0615,-2.0615,-2.0615,-2.0615,-2.0615,-2.0546,-2.039,-1.9941,-1.957,-1.9394,-1.9326,-1.9453,-1.8978,-1.8711,-1.9023,-1.8779,-1.8135,-1.8027,-1.8086,-1.8091,-1.8115,-1.8271,-1.8506,-1.8652,-1.8857,-1.9141,-1.9014,-1.9062,-1.8779,-1.8598,-1.8516,-1.8379,-1.8383,-1.8529,-1.8789,-1.8936,-1.9209,-1.96,-2.0137,-2.0605,-2.0615,-2.0615,-2.0615,-2.0615,-2.0615,-2.0615,-2.0615,-2.0615,-2.0615,-2.0615,-2.0615,-2.0605,-2.0595,-2.0895,-2.1308,-2.1231,-2.1298,-2.1565,-2.1683,-2.1638,-2.1594,-2.1443,-2.1406,-2.1771,-2.2321,-2.2848,-2.2975,-2.3065,-2.3095,-2.3095,-2.3003,-2.2818,-2.1702,-2.1943,-2.2906,-2.3047,-2.3101,-2.3101,-2.3101,-2.3101,-2.3101,-2.3101,-2.3052,-2.3042,-2.3052,-2.2984,-2.2916,-2.2935,-2.2773,-2.2568,-2.25,-2.2275,-2.209,-2.1914,-2.1728,-2.1395,-2.1103,-2.0918,-2.0664,-2.0635,-2.0615,-2.0615,-2.0615,-2.0615,-2.0615,-2.0615,-2.0615,-2.0615,-2.0615,-2.0615,-2.0615,-2.0615,-2.0615,-2.0615,-2.0615,-2.0615,-2.0615,-2.0615,-2.0615,-2.0615,-2.0595,-2.0303,-1.9961,-1.9531,-1.9629,-1.9785,-2.0098,-1.9404,-1.8613,-1.8965,-1.876,-1.8164,-1.8018,-1.8208,-1.8266,-1.813,-1.8232,-1.833,-1.8437,-1.832,-1.8291,-1.8555,-1.8799,-1.8613,-1.8422,-1.8301,-1.8115,-1.8164,-1.8295,-1.8442,-1.8555,-1.8848,-1.9394,-1.9969,-2.0605,-2.0615,-2.0615,-2.0615,-2.0615,-2.0615,-2.0615,-2.0615,-2.0615,-2.0615,-2.0615,-2.0615,-2.0605,-2.0605,-2.0605,-2.0828,-2.075,-2.075,-2.1011,-2.0958,-2.0325,-2.0193,-2.0681,-2.0841,-2.0907,-2.151,-2.2144,-2.2781,-2.2841,-2.3065,-2.3095,-2.1311,-2.0539,-2.0178,-2.0719,-2.1845,-2.2721,-2.3101,-2.3101,-2.3101,-2.3101,-2.3101,-2.3101,-2.2829,-2.2662,-2.2643,-2.2425,-2.2311,-2.2227,-2.2178,-2.2048,-2.1884,-2.1941,-2.1765,-2.138,-2.1277,-2.1082,-2.0849,-2.0536,-2.0576,-2.0566,-2.0527,-2.0615,-2.0411,-2.045,-2.0489,-2.0615,-2.0615,-2.0615,-2.0615,-2.0615,-2.0615,-2.0615,-2.0615,-2.0615,-2.0615,-2.0615,-2.0615,-2.0615,-2.0615,-2.0615,-2.0615,-2.0478,-2.0429,-1.9707,-1.9336,-1.9072,-1.9473,-1.96,-1.8754,-1.8965,-1.8906,-1.8223,-1.8018,-1.8027,-1.8081,-1.81,-1.8135,-1.8301,-1.8271,-1.8139,-1.8178,-1.8418,-1.8486,-1.834,-1.8232,-1.8154,-1.8008,-1.8057,-1.8188,-1.8403,-1.8461,-1.8936,-1.9443,-2.0048,-2.0605,-2.0605,-2.0615,-2.0615,-2.0615,-2.0615,-2.0615,-2.0615,-2.0615,-2.0615,-2.0615,-2.0615,-2.0615,-2.0615,-2.0615,-2.0615,-2.0644,-2.0644,-2.0605,-2.04,-1.999,-2.0099,-2.0465,-2.0466,-2.0269,-2.0623,-2.1227,-2.1978,-2.2616,-2.275,-2.2914,-1.9814,-1.9156,-1.9059,-1.9504,-2.0307,-2.1426,-2.1738,-2.1568,-2.2533,-2.3101,-2.3018,-2.2451,-2.2068,-2.1721,-2.1191,-2.0954,-2.1239,-2.1197,-2.1102,-2.0904,-2.0977,-2.0775,-2.0623,-2.0189,-1.9919,-1.9909,-1.9816,-1.935,-1.9795,-1.9923,-1.9844,-1.9195,-1.9599,-1.9923,-2.004,-2.0284,-2.0615,-2.0615,-2.0615,-2.0615,-2.0615,-2.0615,-2.0615,-2.0615,-2.0615,-2.0615,-2.0615,-2.0615,-2.0615,-2.0615,-2.0615,-2.0488,-2.0331,-1.9639,-1.8936,-1.875,-1.915,-1.9102,-1.8564,-1.874,-1.8555,-1.8232,-1.8008,-1.8018,-1.8018,-1.8037,-1.8227,-1.8422,-1.8217,-1.8081,-1.8198,-1.8286,-1.8174,-1.8027,-1.8018,-1.8018,-1.8008,-1.8008,-1.8203,-1.8412,-1.8754,-1.9209,-1.9707,-2.0273,-2.0595,-2.0605,-2.0615,-2.0615,-2.0615,-2.0615,-2.0615,-2.0615,-2.0615,-2.0615,-2.0615,-2.0615,-2.0615,-2.0615,-2.0615,-2.0615,-2.0615,-2.0615,-2.0615,-2.0302,-1.9853,-2.0062,-2.0277,-1.9829,-1.9661,-2.0042,-2.0398,-2.1037,-2.1698,-2.2156,-2.2341,-1.838,-1.8267,-1.8294,-1.8257,-1.8458,-1.9614,-1.9614,-1.8964,-2.1401,-2.265,-2.2273,-2.1277,-2.0669,-2.0289,-1.9521,-1.938,-1.9618,-1.979,-1.9655,-1.9416,-1.9416,-1.9291,-1.8811,-1.8006,-1.8463,-1.8353,-1.8261,-1.8301,-1.8718,-1.8798,-1.843,-1.7383,-1.8359,-1.8957,-1.9362,-1.9883,-2.0284,-2.0615,-2.0615,-2.0615,-2.0615,-2.0615,-2.0615,-2.0615,-2.0615,-2.0615,-2.0615,-2.0615,-2.0615,-2.0615,-2.0556,-2.04,-1.9971,-1.9541,-1.8877,-1.8603,-1.8926,-1.8691,-1.8447,-1.849,-1.8418,-1.8184,-1.8008,-1.8008,-1.8008,-1.8008,-1.8198,-1.8295,-1.8144,-1.8091,-1.8178,-1.8184,-1.8066,-1.8008,-1.8008,-1.8008,-1.8008,-1.8008,-1.8086,-1.8389,-1.8848,-1.9258,-1.9521,-2.0048,-2.0595,-2.0605,-2.0615,-2.0615,-2.0566,-2.0566,-2.0586,-2.0586,-2.0595,-2.0595,-2.0615,-2.0615,-2.0615,-2.0615,-2.0615,-2.0615,-2.0615,-2.0615,-2.0615,-2.0282,-1.993,-1.9926,-1.9946,-1.9435,-1.9129,-1.9529,-1.9846,-2.0171,-2.0687,-2.1195,-2.1865,-1.669,-1.5954,-1.6814,-1.7193,-1.7367,-1.8493,-1.8828,-1.8639,-1.9264,-1.9678,-1.9609,-1.9299,-1.8999,-1.8668,-1.817,-1.8037,-1.8028,-1.8194,-1.7966,-1.7924,-1.7907,-1.7907,-1.7683,-1.722,-1.7374,-1.7496,-1.7464,-1.7293,-1.7455,-1.7577,-1.7617,-1.7302,-1.7787,-1.8149,-1.8847,-1.9432,-1.9962,-2.0527,-2.0615,-2.0615,-2.0615,-2.0615,-2.0615,-2.0615,-2.0615,-2.0615,-2.0615,-2.0615,-2.0615,-2.0615,-2.0615,-2.0332,-1.9941,-1.9521,-1.9043,-1.8617,-1.8607,-1.8403,-1.8311,-1.8276,-1.8276,-1.8144,-1.8008,-1.8008,-1.8008,-1.8008,-1.8037,-1.8105,-1.8135,-1.811,-1.812,-1.8086,-1.8008,-1.8008,-1.8008,-1.8008,-1.8008,-1.8008,-1.8008,-1.8379,-1.8848,-1.918,-1.9424,-1.9853,-2.041,-2.0615,-2.0615,-2.0586,-2.0478,-2.0449,-2.0507,-2.0517,-2.0566,-2.0576,-2.0595,-2.0615,-2.0615,-2.0615,-2.0615,-2.0615,-2.0615,-2.0615,-2.0586,-2.0331,-2.0084,-1.9919,-1.9457,-1.8775,-1.8656,-1.8996,-1.9044,-1.9243,-1.9529,-2.0009,-2.0974,-1.5201,-1.4781,-1.5827,-1.6327,-1.6448,-1.7051,-1.7051,-1.6633,-1.6591,-1.6598,-1.6757,-1.7219,-1.7451,-1.7025,-1.6603,-1.6646,-1.6542,-1.6617,-1.6648,-1.6617,-1.6601,-1.6617,-1.6478,-1.6239,-1.6281,-1.6404,-1.6478,-1.6437,-1.6198,-1.6396,-1.6478,-1.6247,-1.6568,-1.7536,-1.835,-1.8997,-1.9805,-2.0566,-2.0489,-2.0489,-2.0489,-2.0527,-2.0576,-2.0615,-2.0566,-2.0566,-2.0615,-2.0615,-2.0615,-2.0615,-2.0615,-2.0194,-1.9766,-1.9414,-1.8955,-1.8525,-1.8311,-1.8262,-1.812,-1.8139,-1.8237,-1.8086,-1.8008,-1.8008,-1.8008,-1.8027,-1.8159,-1.8208,-1.8086,-1.8042,-1.8208,-1.8198,-1.8076,-1.8008,-1.8008,-1.8008,-1.8008,-1.8008,-1.8008,-1.8135,-1.8662,-1.9199,-1.9521,-2.0057,-2.0498,-2.0605,-2.0605,-2.0595,-2.0488,-2.0312,-2.04,-2.0429,-2.0458,-2.0546,-2.0605,-2.0615,-2.0615,-2.0615,-2.0615,-2.0615,-2.0615,-2.0615,-2.0546,-2.0351,-2.0028,-1.9556,-1.901,-1.8486,-1.8174,-1.8391,-1.8303,-1.8202,-1.8553,-1.9044,-1.9944,-1.4151,-1.425,-1.511,-1.5462,-1.5496,-1.5511,-1.5082,-1.4313,-1.4179,-1.4228,-1.4487,-1.5574,-1.5937,-1.5517,-1.4838,-1.5034,-1.5262,-1.5462,-1.5496,-1.5504,-1.5496,-1.5504,-1.522,-1.4817,-1.5103,-1.5304,-1.5462,-1.5019,-1.4538,-1.5019,-1.522,-1.4699,-1.5594,-1.6935,-1.7658,-1.8621,-1.9541,-1.9678,-1.9717,-1.9913,-2.0157,-2.0411,-2.0411,-2.045,-2.0362,-2.0323,-2.045,-2.045,-2.045,-2.0265,-2.0062,-1.9478,-1.9088,-1.8663,-1.8228,-1.7785,-1.7643,-1.7665,-1.7735,-1.791,-1.7988,-1.8008,-1.8008,-1.8008,-1.8008,-1.8086,-1.8217,-1.8198,-1.8076,-1.8076,-1.8198,-1.8247,-1.8105,-1.8008,-1.8008,-1.8008,-1.8008,-1.8008,-1.8008,-1.8027,-1.8516,-1.9102,-1.9492,-2.0048,-2.0321,-2.0449,-2.0537,-2.0566,-2.0527,-2.038,-2.0321,-2.0264,-2.0254,-2.0361,-2.0566,-2.0615,-2.0615,-2.0615,-2.0615,-2.0615,-2.0615,-2.0615,-2.0566,-2.0458,-2.0077,-1.9453,-1.8994,-1.8535,-1.8271,-1.8008,-1.8008,-1.8042,-1.8269,-1.8721,-1.9144,-1.4088,-1.413,-1.4334,-1.4412,-1.4454,-1.4454,-1.4292,-1.413,-1.4088,-1.4088,-1.4186,-1.4242,-1.4536,-1.4536,-1.4333,-1.437,-1.4531,-1.4566,-1.4447,-1.4412,-1.4615,-1.4531,-1.4454,-1.4328,-1.4292,-1.4454,-1.4573,-1.4292,-1.4088,-1.4334,-1.4412,-1.425,-1.4286,-1.5304,-1.6108,-1.7033,-1.7641,-1.806,-1.831,-1.8301,-1.843,-1.8868,-1.9835,-1.959,-1.8859,-1.9432,-1.9795,-1.9678,-1.9441,-1.9191,-1.8942,-1.8321,-1.7886,-1.7594,-1.7171,-1.683,-1.6728,-1.6959,-1.7104,-1.7545,-1.7681,-1.8008,-1.8008,-1.8008,-1.8008,-1.8008,-1.8105,-1.8105,-1.8008,-1.8008,-1.8115,-1.8115,-1.8008,-1.8008,-1.8008,-1.8008,-1.8008,-1.8008,-1.8008,-1.8144,-1.8383,-1.8705,-1.8861,-1.9365,-1.9775,-1.9902,-2.0039,-2.0107,-2.0439,-2.0351,-2.0195,-2.0215,-2.0195,-2.0293,-2.0488,-2.0595,-2.0615,-2.0615,-2.0615,-2.0615,-2.0615,-2.0615,-2.0546,-2.038,-1.9959,-1.9392,-1.8926,-1.8506,-1.8252,-1.8008,-1.8008,-1.8076,-1.8202,-1.8395,-1.8787]}]]